Wetterdaten: Donnerstag, 16.02.2017
Datum Zeit Temp. A. Feuchte A. Luftdruck Regen Wind Richtung Richtung Sonnenschein ET UV Solar Taupunkt Windchill Windben Empfang
16.02.2017 00:00 -1,9 C 93 % 1035,8 hPa 0,0 l/m 0,0 km/h (0 Bft) W-SW 242 0 min 0,000 mm 0,0 UV-I 0 W/m -2,9 C -1,9 C 0,0 km/h (0 Bft) 96,00 %
16.02.2017 00:02 -1,9 C 93 % 1035,8 hPa 0,0 l/m 0,0 km/h (0 Bft) W-SW 242 0 min 0,000 mm 0,0 UV-I 0 W/m -2,9 C -1,9 C 0,0 km/h (0 Bft) 100,00 %
16.02.2017 00:04 -1,9 C 94 % 1035,8 hPa 0,0 l/m 0,0 km/h (0 Bft) W-SW 242 0 min 0,000 mm 0,0 UV-I 0 W/m -2,7 C -1,9 C 0,0 km/h (0 Bft) 96,00 %
16.02.2017 00:06 -1,9 C 94 % 1035,8 hPa 0,0 l/m 0,0 km/h (0 Bft) W-SW 242 0 min 0,000 mm 0,0 UV-I 0 W/m -2,7 C -1,9 C 0,0 km/h (0 Bft) 94,00 %
16.02.2017 00:08 -1,9 C 94 % 1035,8 hPa 0,0 l/m 0,0 km/h (0 Bft) W-SW 242 0 min 0,000 mm 0,0 UV-I 0 W/m -2,7 C -1,9 C 0,0 km/h (0 Bft) 97,87 %
16.02.2017 00:10 -1,9 C 94 % 1035,8 hPa 0,0 l/m 0,1 km/h (0 Bft) W-SW 242 0 min 0,000 mm 0,0 UV-I 0 W/m -2,7 C -1,9 C 1,6 km/h (1 Bft) 97,56 %
16.02.2017 00:12 -1,9 C 94 % 1035,8 hPa 0,0 l/m 0,1 km/h (0 Bft) W-SW 242 0 min 0,000 mm 0,0 UV-I 0 W/m -2,7 C -1,9 C 1,6 km/h (1 Bft) 97,87 %
16.02.2017 00:14 -2,0 C 94 % 1035,8 hPa 0,0 l/m 0,3 km/h (0 Bft) W-SW 242 0 min 0,000 mm 0,0 UV-I 0 W/m -2,8 C -2,0 C 1,6 km/h (1 Bft) 98,00 %
16.02.2017 00:16 -2,0 C 94 % 1035,8 hPa 0,0 l/m 0,0 km/h (0 Bft) W-SW 242 0 min 0,000 mm 0,0 UV-I 0 W/m -2,8 C -2,0 C 1,6 km/h (1 Bft) 100,00 %
16.02.2017 00:18 -1,8 C 94 % 1035,8 hPa 0,0 l/m 0,0 km/h (0 Bft) W-SW 242 0 min 0,000 mm 0,0 UV-I 0 W/m -2,6 C -1,8 C 0,0 km/h (0 Bft) 96,00 %
16.02.2017 00:20 -1,8 C 94 % 1035,8 hPa 0,0 l/m 0,0 km/h (0 Bft) W-SW 242 0 min 0,000 mm 0,0 UV-I 0 W/m -2,6 C -1,8 C 0,0 km/h (0 Bft) 94,29 %
16.02.2017 00:22 -1,8 C 94 % 1035,8 hPa 0,0 l/m 0,0 km/h (0 Bft) W-SW 242 0 min 0,000 mm 0,0 UV-I 0 W/m -2,6 C -1,8 C 0,0 km/h (0 Bft) 98,31 %
16.02.2017 00:24 -1,9 C 94 % 1035,8 hPa 0,0 l/m 0,7 km/h (0 Bft) W-SW 242 0 min 0,000 mm 0,0 UV-I 0 W/m -2,7 C -1,9 C 1,6 km/h (1 Bft) 100,00 %
16.02.2017 00:26 -1,9 C 94 % 1035,8 hPa 0,0 l/m 0,0 km/h (0 Bft) W-SW 242 0 min 0,000 mm 0,0 UV-I 0 W/m -2,7 C -1,9 C 1,6 km/h (1 Bft) 96,43 %
16.02.2017 00:28 -2,0 C 94 % 1035,8 hPa 0,0 l/m 0,0 km/h (0 Bft) W-SW 242 0 min 0,000 mm 0,0 UV-I 0 W/m -2,8 C -2,0 C 0,0 km/h (0 Bft) 95,74 %
16.02.2017 00:30 -2,1 C 94 % 1035,9 hPa 0,0 l/m 0,0 km/h (0 Bft) W-SW 242 0 min 0,000 mm 0,0 UV-I 0 W/m -2,9 C -2,1 C 0,0 km/h (0 Bft) 93,18 %
16.02.2017 00:32 -2,1 C 94 % 1035,8 hPa 0,0 l/m 0,0 km/h (0 Bft) W-SW 242 0 min 0,000 mm 0,0 UV-I 0 W/m -2,9 C -2,1 C 0,0 km/h (0 Bft) 98,11 %
16.02.2017 00:34 -2,2 C 94 % 1035,8 hPa 0,0 l/m 0,0 km/h (0 Bft) W-SW 242 0 min 0,000 mm 0,0 UV-I 0 W/m -3,0 C -2,2 C 0,0 km/h (0 Bft) 95,74 %
16.02.2017 00:36 -2,2 C 94 % 1035,8 hPa 0,0 l/m 0,0 km/h (0 Bft) W-SW 242 0 min 0,000 mm 0,0 UV-I 0 W/m -3,0 C -2,2 C 0,0 km/h (0 Bft) 96,00 %
16.02.2017 00:38 -2,2 C 94 % 1035,8 hPa 0,0 l/m 1,7 km/h (1 Bft) W-SW 242 0 min 0,000 mm 0,0 UV-I 0 W/m -3,0 C -2,2 C 3,2 km/h (1 Bft) 97,37 %
16.02.2017 00:40 -2,2 C 94 % 1035,9 hPa 0,0 l/m 2,2 km/h (1 Bft) W-SW 242 0 min 0,000 mm 0,0 UV-I 0 W/m -3,0 C -2,2 C 3,2 km/h (1 Bft) 94,87 %
16.02.2017 00:42 -2,2 C 94 % 1035,9 hPa 0,0 l/m 2,6 km/h (1 Bft) W-SW 242 0 min 0,000 mm 0,0 UV-I 0 W/m -3,0 C -2,2 C 3,2 km/h (1 Bft) 95,08 %
16.02.2017 00:44 -2,2 C 94 % 1035,8 hPa 0,0 l/m 3,5 km/h (1 Bft) W-SW 242 0 min 0,000 mm 0,0 UV-I 0 W/m -3,0 C -2,2 C 4,8 km/h (1 Bft) 96,00 %
16.02.2017 00:46 -2,2 C 94 % 1035,8 hPa 0,0 l/m 4,5 km/h (1 Bft) W-SW 242 0 min 0,000 mm 0,0 UV-I 0 W/m -3,0 C -2,2 C 4,8 km/h (1 Bft) 97,44 %
16.02.2017 00:48 -2,2 C 94 % 1035,8 hPa 0,0 l/m 4,1 km/h (1 Bft) W-SW 242 0 min 0,000 mm 0,0 UV-I 0 W/m -3,0 C -2,2 C 4,8 km/h (1 Bft) 95,74 %
16.02.2017 00:50 -2,2 C 94 % 1035,8 hPa 0,0 l/m 3,8 km/h (1 Bft) W-SW 242 0 min 0,000 mm 0,0 UV-I 0 W/m -3,0 C -2,2 C 4,8 km/h (1 Bft) 93,62 %
16.02.2017 00:52 -2,2 C 94 % 1035,7 hPa 0,0 l/m 3,2 km/h (1 Bft) W-SW 242 0 min 0,000 mm 0,0 UV-I 0 W/m -3,0 C -2,2 C 4,8 km/h (1 Bft) 92,45 %
16.02.2017 00:54 -2,2 C 94 % 1035,7 hPa 0,0 l/m 3,6 km/h (1 Bft) W-SW 242 0 min 0,000 mm 0,0 UV-I 0 W/m -3,0 C -2,2 C 4,8 km/h (1 Bft) 94,74 %
16.02.2017 00:56 -2,2 C 94 % 1035,7 hPa 0,0 l/m 4,2 km/h (1 Bft) W-SW 242 0 min 0,000 mm 0,0 UV-I 0 W/m -3,0 C -2,2 C 4,8 km/h (1 Bft) 93,62 %
16.02.2017 00:58 -2,2 C 94 % 1035,7 hPa 0,0 l/m 3,4 km/h (1 Bft) W-SW 242 0 min 0,000 mm 0,0 UV-I 0 W/m -3,0 C -2,2 C 4,8 km/h (1 Bft) 93,62 %
16.02.2017 01:00 -2,2 C 94 % 1035,7 hPa 0,0 l/m 3,5 km/h (1 Bft) W-SW 242 0 min 0,000 mm 0,0 UV-I 0 W/m -3,0 C -2,2 C 4,8 km/h (1 Bft) 94,00 %
16.02.2017 01:02 -2,2 C 94 % 1035,6 hPa 0,0 l/m 3,8 km/h (1 Bft) W-SW 242 0 min 0,000 mm 0,0 UV-I 0 W/m -3,0 C -2,2 C 4,8 km/h (1 Bft) 90,00 %
16.02.2017 01:04 -2,2 C 94 % 1035,6 hPa 0,0 l/m 3,5 km/h (1 Bft) W-SW 242 0 min 0,000 mm 0,0 UV-I 0 W/m -3,0 C -2,2 C 4,8 km/h (1 Bft) 93,62 %
16.02.2017 01:06 -2,2 C 95 % 1035,6 hPa 0,0 l/m 3,5 km/h (1 Bft) W-SW 242 0 min 0,000 mm 0,0 UV-I 0 W/m -2,9 C -2,2 C 4,8 km/h (1 Bft) 94,00 %
16.02.2017 01:08 -2,2 C 95 % 1035,6 hPa 0,0 l/m 3,8 km/h (1 Bft) W-SW 242 0 min 0,000 mm 0,0 UV-I 0 W/m -2,9 C -2,2 C 4,8 km/h (1 Bft) 97,87 %
16.02.2017 01:10 -2,2 C 94 % 1035,5 hPa 0,0 l/m 4,1 km/h (1 Bft) W-SW 242 0 min 0,000 mm 0,0 UV-I 0 W/m -3,0 C -2,2 C 6,4 km/h (2 Bft) 94,74 %
16.02.2017 01:12 -2,2 C 94 % 1035,5 hPa 0,0 l/m 3,6 km/h (1 Bft) W-SW 242 0 min 0,000 mm 0,0 UV-I 0 W/m -3,0 C -2,2 C 4,8 km/h (1 Bft) 96,23 %
16.02.2017 01:14 -2,2 C 94 % 1035,5 hPa 0,0 l/m 4,4 km/h (1 Bft) W-SW 242 0 min 0,000 mm 0,0 UV-I 0 W/m -3,0 C -2,2 C 4,8 km/h (1 Bft) 98,00 %
16.02.2017 01:16 -2,1 C 94 % 1035,5 hPa 0,0 l/m 4,8 km/h (1 Bft) W-SW 242 0 min 0,000 mm 0,0 UV-I 0 W/m -2,9 C -2,1 C 6,4 km/h (2 Bft) 100,00 %
16.02.2017 01:18 -2,1 C 95 % 1035,5 hPa 0,0 l/m 5,0 km/h (1 Bft) W-SW 242 0 min 0,000 mm 0,0 UV-I 0 W/m -2,8 C -2,1 C 6,4 km/h (2 Bft) 97,87 %
16.02.2017 01:20 -2,1 C 94 % 1035,5 hPa 0,0 l/m 4,0 km/h (1 Bft) W-SW 242 0 min 0,000 mm 0,0 UV-I 0 W/m -2,9 C -2,1 C 6,4 km/h (2 Bft) 100,00 %
16.02.2017 01:22 -2,0 C 94 % 1035,5 hPa 0,0 l/m 5,1 km/h (1 Bft) W-SW 242 0 min 0,000 mm 0,0 UV-I 0 W/m -2,8 C -2,0 C 6,4 km/h (2 Bft) 100,00 %
16.02.2017 01:24 -1,9 C 95 % 1035,5 hPa 0,0 l/m 4,7 km/h (1 Bft) W-SW 242 0 min 0,000 mm 0,0 UV-I 0 W/m -2,6 C -1,9 C 6,4 km/h (2 Bft) 100,00 %
16.02.2017 01:26 -1,9 C 95 % 1035,5 hPa 0,0 l/m 5,0 km/h (1 Bft) W-SW 242 0 min 0,000 mm 0,0 UV-I 0 W/m -2,6 C -1,9 C 6,4 km/h (2 Bft) 100,00 %
16.02.2017 01:28 -1,9 C 94 % 1035,5 hPa 0,0 l/m 5,0 km/h (1 Bft) W-SW 242 0 min 0,000 mm 0,0 UV-I 0 W/m -2,7 C -1,9 C 6,4 km/h (2 Bft) 100,00 %
16.02.2017 01:30 -1,9 C 94 % 1035,5 hPa 0,0 l/m 4,3 km/h (1 Bft) W-SW 242 0 min 0,000 mm 0,0 UV-I 0 W/m -2,7 C -1,9 C 4,8 km/h (1 Bft) 96,00 %
16.02.2017 01:32 -1,9 C 94 % 1035,4 hPa 0,0 l/m 3,1 km/h (1 Bft) W-SW 242 0 min 0,000 mm 0,0 UV-I 0 W/m -2,7 C -1,9 C 4,8 km/h (1 Bft) 96,00 %
16.02.2017 01:34 -1,9 C 94 % 1035,4 hPa 0,0 l/m 4,0 km/h (1 Bft) W-SW 242 0 min 0,000 mm 0,0 UV-I 0 W/m -2,7 C -1,9 C 4,8 km/h (1 Bft) 98,00 %
16.02.2017 01:36 -1,9 C 94 % 1035,4 hPa 0,0 l/m 3,8 km/h (1 Bft) W-SW 242 0 min 0,000 mm 0,0 UV-I 0 W/m -2,7 C -1,9 C 4,8 km/h (1 Bft) 100,00 %
16.02.2017 01:38 -1,9 C 94 % 1035,4 hPa 0,0 l/m 4,6 km/h (1 Bft) W-SW 242 0 min 0,000 mm 0,0 UV-I 0 W/m -2,7 C -1,9 C 6,4 km/h (2 Bft) 97,73 %
16.02.2017 01:40 -2,0 C 94 % 1035,4 hPa 0,0 l/m 4,0 km/h (1 Bft) W-SW 242 0 min 0,000 mm 0,0 UV-I 0 W/m -2,8 C -2,0 C 6,4 km/h (2 Bft) 98,00 %
16.02.2017 01:42 -1,9 C 94 % 1035,4 hPa 0,0 l/m 4,8 km/h (1 Bft) W-SW 242 0 min 0,000 mm 0,0 UV-I 0 W/m -2,7 C -1,9 C 6,4 km/h (2 Bft) 100,00 %
16.02.2017 01:44 -1,8 C 94 % 1035,4 hPa 0,0 l/m 5,1 km/h (1 Bft) W-SW 242 0 min 0,000 mm 0,0 UV-I 0 W/m -2,6 C -1,8 C 8,0 km/h (2 Bft) 97,06 %
16.02.2017 01:46 -1,7 C 94 % 1035,4 hPa 0,0 l/m 4,8 km/h (1 Bft) W-SW 242 0 min 0,000 mm 0,0 UV-I 0 W/m -2,5 C -1,7 C 6,4 km/h (2 Bft) 100,00 %
16.02.2017 01:48 -1,7 C 94 % 1035,4 hPa 0,0 l/m 4,9 km/h (1 Bft) W-SW 242 0 min 0,000 mm 0,0 UV-I 0 W/m -2,5 C -1,7 C 6,4 km/h (2 Bft) 100,00 %
16.02.2017 01:50 -1,6 C 94 % 1035,4 hPa 0,0 l/m 4,1 km/h (1 Bft) W-SW 242 0 min 0,000 mm 0,0 UV-I 0 W/m -2,4 C -1,6 C 4,8 km/h (1 Bft) 98,00 %
16.02.2017 01:52 -1,6 C 94 % 1035,4 hPa 0,0 l/m 3,7 km/h (1 Bft) W-SW 242 0 min 0,000 mm 0,0 UV-I 0 W/m -2,4 C -1,6 C 4,8 km/h (1 Bft) 98,00 %
16.02.2017 01:54 -1,6 C 94 % 1035,4 hPa 0,0 l/m 2,9 km/h (1 Bft) W-SW 242 0 min 0,000 mm 0,0 UV-I 0 W/m -2,4 C -1,6 C 3,2 km/h (1 Bft) 95,74 %
16.02.2017 01:56 -1,6 C 93 % 1035,4 hPa 0,0 l/m 3,0 km/h (1 Bft) W-SW 242 0 min 0,000 mm 0,0 UV-I 0 W/m -2,6 C -1,6 C 4,8 km/h (1 Bft) 98,00 %
16.02.2017 01:58 -1,6 C 93 % 1035,4 hPa 0,0 l/m 3,4 km/h (1 Bft) W-SW 242 0 min 0,000 mm 0,0 UV-I 0 W/m -2,6 C -1,6 C 4,8 km/h (1 Bft) 95,12 %
16.02.2017 02:00 -1,6 C 93 % 1035,4 hPa 0,0 l/m 3,4 km/h (1 Bft) W-SW 242 0 min 0,000 mm 0,0 UV-I 0 W/m -2,6 C -1,6 C 4,8 km/h (1 Bft) 100,00 %
16.02.2017 02:02 -1,6 C 93 % 1035,4 hPa 0,0 l/m 2,7 km/h (1 Bft) W-SW 242 0 min 0,000 mm 0,0 UV-I 0 W/m -2,6 C -1,6 C 3,2 km/h (1 Bft) 96,00 %
16.02.2017 02:04 -1,7 C 93 % 1035,4 hPa 0,0 l/m 1,4 km/h (1 Bft) W-SW 242 0 min 0,000 mm 0,0 UV-I 0 W/m -2,7 C -1,7 C 3,2 km/h (1 Bft) 100,00 %
16.02.2017 02:06 -1,8 C 93 % 1035,4 hPa 0,0 l/m 1,5 km/h (1 Bft) W-SW 242 0 min 0,000 mm 0,0 UV-I 0 W/m -2,8 C -1,8 C 3,2 km/h (1 Bft) 98,21 %
16.02.2017 02:08 -1,9 C 93 % 1035,4 hPa 0,0 l/m 1,5 km/h (1 Bft) W-SW 242 0 min 0,000 mm 0,0 UV-I 0 W/m -2,9 C -1,9 C 3,2 km/h (1 Bft) 100,00 %
16.02.2017 02:10 -1,9 C 93 % 1035,4 hPa 0,0 l/m 1,9 km/h (1 Bft) W-SW 242 0 min 0,000 mm 0,0 UV-I 0 W/m -2,9 C -1,9 C 3,2 km/h (1 Bft) 98,00 %
16.02.2017 02:12 -2,0 C 93 % 1035,4 hPa 0,0 l/m 2,2 km/h (1 Bft) W-SW 242 0 min 0,000 mm 0,0 UV-I 0 W/m -3,0 C -2,0 C 3,2 km/h (1 Bft) 100,00 %
16.02.2017 02:14 -1,9 C 94 % 1035,4 hPa 0,0 l/m 1,8 km/h (1 Bft) W-SW 242 0 min 0,000 mm 0,0 UV-I 0 W/m -2,7 C -1,9 C 3,2 km/h (1 Bft) 96,23 %
16.02.2017 02:16 -1,9 C 94 % 1035,4 hPa 0,0 l/m 2,9 km/h (1 Bft) W-SW 242 0 min 0,000 mm 0,0 UV-I 0 W/m -2,7 C -1,9 C 4,8 km/h (1 Bft) 97,37 %
16.02.2017 02:18 -1,8 C 94 % 1035,4 hPa 0,0 l/m 3,4 km/h (1 Bft) W-SW 242 0 min 0,000 mm 0,0 UV-I 0 W/m -2,6 C -1,8 C 4,8 km/h (1 Bft) 91,49 %
16.02.2017 02:20 -1,8 C 93 % 1035,4 hPa 0,0 l/m 3,1 km/h (1 Bft) W-SW 242 0 min 0,000 mm 0,0 UV-I 0 W/m -2,8 C -1,8 C 4,8 km/h (1 Bft) 97,37 %
16.02.2017 02:22 -1,8 C 93 % 1035,4 hPa 0,0 l/m 3,1 km/h (1 Bft) W-SW 242 0 min 0,000 mm 0,0 UV-I 0 W/m -2,8 C -1,8 C 4,8 km/h (1 Bft) 93,85 %
16.02.2017 02:24 -1,8 C 93 % 1035,4 hPa 0,0 l/m 2,9 km/h (1 Bft) W-SW 242 0 min 0,000 mm 0,0 UV-I 0 W/m -2,8 C -1,8 C 4,8 km/h (1 Bft) 95,74 %
16.02.2017 02:26 -1,8 C 93 % 1035,4 hPa 0,0 l/m 2,4 km/h (1 Bft) W-SW 242 0 min 0,000 mm 0,0 UV-I 0 W/m -2,8 C -1,8 C 3,2 km/h (1 Bft) 97,37 %
16.02.2017 02:28 -1,8 C 93 % 1035,3 hPa 0,0 l/m 2,6 km/h (1 Bft) W-SW 242 0 min 0,000 mm 0,0 UV-I 0 W/m -2,8 C -1,8 C 4,8 km/h (1 Bft) 98,11 %
16.02.2017 02:30 -1,8 C 93 % 1035,4 hPa 0,0 l/m 3,0 km/h (1 Bft) W-SW 242 0 min 0,000 mm 0,0 UV-I 0 W/m -2,8 C -1,8 C 4,8 km/h (1 Bft) 95,74 %
16.02.2017 02:32 -1,8 C 94 % 1035,4 hPa 0,0 l/m 2,9 km/h (1 Bft) W-SW 242 0 min 0,000 mm 0,0 UV-I 0 W/m -2,6 C -1,8 C 3,2 km/h (1 Bft) 98,00 %
16.02.2017 02:34 -1,8 C 94 % 1035,3 hPa 0,0 l/m 3,0 km/h (1 Bft) W-SW 242 0 min 0,000 mm 0,0 UV-I 0 W/m -2,6 C -1,8 C 3,2 km/h (1 Bft) 97,37 %
16.02.2017 02:36 -1,8 C 93 % 1035,3 hPa 0,0 l/m 2,7 km/h (1 Bft) W-SW 242 0 min 0,000 mm 0,0 UV-I 0 W/m -2,8 C -1,8 C 3,2 km/h (1 Bft) 98,11 %
16.02.2017 02:38 -1,8 C 94 % 1035,4 hPa 0,0 l/m 3,1 km/h (1 Bft) W-SW 242 0 min 0,000 mm 0,0 UV-I 0 W/m -2,6 C -1,8 C 3,2 km/h (1 Bft) 93,62 %
16.02.2017 02:40 -1,8 C 93 % 1035,4 hPa 0,0 l/m 2,1 km/h (1 Bft) W-SW 242 0 min 0,000 mm 0,0 UV-I 0 W/m -2,8 C -1,8 C 4,8 km/h (1 Bft) 100,00 %
16.02.2017 02:42 -1,8 C 93 % 1035,3 hPa 0,0 l/m 2,2 km/h (1 Bft) W-SW 242 0 min 0,000 mm 0,0 UV-I 0 W/m -2,8 C -1,8 C 3,2 km/h (1 Bft) 97,44 %
16.02.2017 02:44 -1,8 C 93 % 1035,3 hPa 0,0 l/m 2,3 km/h (1 Bft) W-SW 242 0 min 0,000 mm 0,0 UV-I 0 W/m -2,8 C -1,8 C 3,2 km/h (1 Bft) 100,00 %
16.02.2017 02:46 -1,8 C 93 % 1035,3 hPa 0,0 l/m 2,9 km/h (1 Bft) W-SW 242 0 min 0,000 mm 0,0 UV-I 0 W/m -2,8 C -1,8 C 3,2 km/h (1 Bft) 98,00 %
16.02.2017 02:48 -1,8 C 93 % 1035,3 hPa 0,0 l/m 2,9 km/h (1 Bft) W-SW 242 0 min 0,000 mm 0,0 UV-I 0 W/m -2,8 C -1,8 C 3,2 km/h (1 Bft) 100,00 %
16.02.2017 02:50 -1,8 C 93 % 1035,3 hPa 0,0 l/m 2,3 km/h (1 Bft) W-SW 242 0 min 0,000 mm 0,0 UV-I 0 W/m -2,8 C -1,8 C 3,2 km/h (1 Bft) 100,00 %
16.02.2017 02:52 -1,9 C 93 % 1035,3 hPa 0,0 l/m 1,5 km/h (1 Bft) W-SW 242 0 min 0,000 mm 0,0 UV-I 0 W/m -2,9 C -1,9 C 3,2 km/h (1 Bft) 100,00 %
16.02.2017 02:54 -1,9 C 93 % 1035,3 hPa 0,0 l/m 1,4 km/h (1 Bft) W-SW 242 0 min 0,000 mm 0,0 UV-I 0 W/m -2,9 C -1,9 C 3,2 km/h (1 Bft) 98,00 %
16.02.2017 02:56 -1,9 C 93 % 1035,3 hPa 0,0 l/m 2,0 km/h (1 Bft) W-SW 242 0 min 0,000 mm 0,0 UV-I 0 W/m -2,9 C -1,9 C 3,2 km/h (1 Bft) 95,12 %
16.02.2017 02:58 -1,9 C 94 % 1035,3 hPa 0,0 l/m 1,9 km/h (1 Bft) W-SW 242 0 min 0,000 mm 0,0 UV-I 0 W/m -2,7 C -1,9 C 3,2 km/h (1 Bft) 98,00 %
16.02.2017 03:00 -1,8 C 94 % 1035,2 hPa 0,0 l/m 1,1 km/h (1 Bft) W-SW 242 0 min 0,000 mm 0,0 UV-I 0 W/m -2,6 C -1,8 C 3,2 km/h (1 Bft) 96,00 %
16.02.2017 03:02 -1,8 C 93 % 1035,3 hPa 0,0 l/m 0,6 km/h (0 Bft) W-SW 242 0 min 0,000 mm 0,0 UV-I 0 W/m -2,8 C -1,8 C 3,2 km/h (1 Bft) 95,74 %
16.02.2017 03:04 -1,8 C 93 % 1035,2 hPa 0,0 l/m 0,2 km/h (0 Bft) W-SW 242 0 min 0,000 mm 0,0 UV-I 0 W/m -2,8 C -1,8 C 1,6 km/h (1 Bft) 95,74 %
16.02.2017 03:06 -1,8 C 93 % 1035,2 hPa 0,0 l/m 0,1 km/h (0 Bft) W-SW 242 0 min 0,000 mm 0,0 UV-I 0 W/m -2,8 C -1,8 C 1,6 km/h (1 Bft) 97,37 %
16.02.2017 03:08 -1,7 C 93 % 1035,2 hPa 0,0 l/m 0,0 km/h (0 Bft) W-SW 242 0 min 0,000 mm 0,0 UV-I 0 W/m -2,7 C -1,7 C 0,0 km/h (0 Bft) 98,00 %
16.02.2017 03:10 -1,8 C 93 % 1035,2 hPa 0,0 l/m 0,0 km/h (0 Bft) W-SW 242 0 min 0,000 mm 0,0 UV-I 0 W/m -2,8 C -1,8 C 0,0 km/h (0 Bft) 94,00 %
16.02.2017 03:12 -1,8 C 93 % 1035,2 hPa 0,0 l/m 0,0 km/h (0 Bft) W-SW 242 0 min 0,000 mm 0,0 UV-I 0 W/m -2,8 C -1,8 C 0,0 km/h (0 Bft) 97,37 %
16.02.2017 03:14 -1,9 C 93 % 1035,2 hPa 0,0 l/m 0,0 km/h (0 Bft) W-SW 242 0 min 0,000 mm 0,0 UV-I 0 W/m -2,9 C -1,9 C 0,0 km/h (0 Bft) 96,23 %
16.02.2017 03:16 -1,9 C 93 % 1035,2 hPa 0,0 l/m 0,0 km/h (0 Bft) W-SW 242 0 min 0,000 mm 0,0 UV-I 0 W/m -2,9 C -1,9 C 0,0 km/h (0 Bft) 94,00 %
16.02.2017 03:18 -1,9 C 93 % 1035,2 hPa 0,0 l/m 0,3 km/h (0 Bft) W-SW 242 0 min 0,000 mm 0,0 UV-I 0 W/m -2,9 C -1,9 C 1,6 km/h (1 Bft) 97,87 %
16.02.2017 03:20 -1,9 C 93 % 1035,2 hPa 0,0 l/m 0,1 km/h (0 Bft) W-SW 242 0 min 0,000 mm 0,0 UV-I 0 W/m -2,9 C -1,9 C 1,6 km/h (1 Bft) 95,74 %
16.02.2017 03:22 -1,9 C 93 % 1035,2 hPa 0,0 l/m 0,6 km/h (0 Bft) W-SW 242 0 min 0,000 mm 0,0 UV-I 0 W/m -2,9 C -1,9 C 1,6 km/h (1 Bft) 94,44 %
16.02.2017 03:24 -1,9 C 93 % 1035,2 hPa 0,0 l/m 0,2 km/h (0 Bft) W-SW 242 0 min 0,000 mm 0,0 UV-I 0 W/m -2,9 C -1,9 C 1,6 km/h (1 Bft) 94,64 %
16.02.2017 03:26 -1,9 C 93 % 1035,1 hPa 0,0 l/m 0,2 km/h (0 Bft) W-SW 242 0 min 0,000 mm 0,0 UV-I 0 W/m -2,9 C -1,9 C 1,6 km/h (1 Bft) 92,11 %
16.02.2017 03:28 -1,9 C 93 % 1035,2 hPa 0,0 l/m 0,2 km/h (0 Bft) W-SW 242 0 min 0,000 mm 0,0 UV-I 0 W/m -2,9 C -1,9 C 1,6 km/h (1 Bft) 98,11 %
16.02.2017 03:30 -1,9 C 93 % 1035,2 hPa 0,0 l/m 0,0 km/h (0 Bft) W-SW 242 0 min 0,000 mm 0,0 UV-I 0 W/m -2,9 C -1,9 C 0,0 km/h (0 Bft) 93,62 %
16.02.2017 03:32 -2,0 C 93 % 1035,1 hPa 0,0 l/m 0,1 km/h (0 Bft) W-SW 242 0 min 0,000 mm 0,0 UV-I 0 W/m -3,0 C -2,0 C 1,6 km/h (1 Bft) 95,92 %
16.02.2017 03:34 -2,1 C 93 % 1035,1 hPa 0,0 l/m 0,0 km/h (0 Bft) W-SW 242 0 min 0,000 mm 0,0 UV-I 0 W/m -3,1 C -2,1 C 0,0 km/h (0 Bft) 95,74 %
16.02.2017 03:36 -2,1 C 93 % 1035,2 hPa 0,0 l/m 0,0 km/h (0 Bft) W-SW 242 0 min 0,000 mm 0,0 UV-I 0 W/m -3,1 C -2,1 C 0,0 km/h (0 Bft) 95,74 %
16.02.2017 03:38 -2,2 C 93 % 1035,1 hPa 0,0 l/m 0,0 km/h (0 Bft) W-SW 242 0 min 0,000 mm 0,0 UV-I 0 W/m -3,2 C -2,2 C 0,0 km/h (0 Bft) 93,62 %
16.02.2017 03:40 -2,2 C 93 % 1035,1 hPa 0,0 l/m 0,0 km/h (0 Bft) W-SW 242 0 min 0,000 mm 0,0 UV-I 0 W/m -3,2 C -2,2 C 1,6 km/h (1 Bft) 92,11 %
16.02.2017 03:42 -2,3 C 93 % 1035,1 hPa 0,0 l/m 0,0 km/h (0 Bft) W-SW 242 0 min 0,000 mm 0,0 UV-I 0 W/m -3,3 C -2,3 C 1,6 km/h (1 Bft) 98,04 %
16.02.2017 03:44 -2,4 C 93 % 1035,1 hPa 0,0 l/m 0,2 km/h (0 Bft) W-SW 242 0 min 0,000 mm 0,0 UV-I 0 W/m -3,4 C -2,4 C 1,6 km/h (1 Bft) 92,00 %
16.02.2017 03:46 -2,3 C 94 % 1035,1 hPa 0,0 l/m 0,1 km/h (0 Bft) W-SW 242 0 min 0,000 mm 0,0 UV-I 0 W/m -3,1 C -2,3 C 1,6 km/h (1 Bft) 93,62 %
16.02.2017 03:48 -2,2 C 94 % 1035,1 hPa 0,0 l/m 0,0 km/h (0 Bft) W-SW 242 0 min 0,000 mm 0,0 UV-I 0 W/m -3,0 C -2,2 C 0,0 km/h (0 Bft) 97,87 %
16.02.2017 03:50 -2,2 C 94 % 1035,1 hPa 0,0 l/m 0,0 km/h (0 Bft) W-SW 242 0 min 0,000 mm 0,0 UV-I 0 W/m -3,0 C -2,2 C 1,6 km/h (1 Bft) 98,00 %
16.02.2017 03:52 -2,3 C 94 % 1035,0 hPa 0,0 l/m 0,1 km/h (0 Bft) W-SW 242 0 min 0,000 mm 0,0 UV-I 0 W/m -3,1 C -2,3 C 1,6 km/h (1 Bft) 92,00 %
16.02.2017 03:54 -2,4 C 93 % 1035,0 hPa 0,0 l/m 1,8 km/h (1 Bft) W-SW 242 0 min 0,000 mm 0,0 UV-I 0 W/m -3,4 C -2,4 C 3,2 km/h (1 Bft) 94,74 %
16.02.2017 03:56 -2,6 C 93 % 1035,1 hPa 0,0 l/m 1,3 km/h (1 Bft) W-SW 242 0 min 0,000 mm 0,0 UV-I 0 W/m -3,6 C -2,6 C 3,2 km/h (1 Bft) 96,00 %
16.02.2017 03:58 -2,6 C 94 % 1035,0 hPa 0,0 l/m 1,5 km/h (1 Bft) W-SW 242 0 min 0,000 mm 0,0 UV-I 0 W/m -3,4 C -2,6 C 3,2 km/h (1 Bft) 95,74 %
16.02.2017 04:00 -2,7 C 93 % 1035,0 hPa 0,0 l/m 2,5 km/h (1 Bft) W-SW 242 0 min 0,000 mm 0,0 UV-I 0 W/m -3,7 C -2,7 C 3,2 km/h (1 Bft) 100,00 %
16.02.2017 04:02 -2,7 C 94 % 1035,1 hPa 0,0 l/m 2,7 km/h (1 Bft) W-SW 242 0 min 0,000 mm 0,0 UV-I 0 W/m -3,5 C -2,7 C 4,8 km/h (1 Bft) 100,00 %
16.02.2017 04:04 -2,7 C 94 % 1035,0 hPa 0,0 l/m 2,2 km/h (1 Bft) W-SW 242 0 min 0,000 mm 0,0 UV-I 0 W/m -3,5 C -2,7 C 3,2 km/h (1 Bft) 98,21 %
16.02.2017 04:06 -2,7 C 94 % 1035,0 hPa 0,0 l/m 1,9 km/h (1 Bft) W-SW 242 0 min 0,000 mm 0,0 UV-I 0 W/m -3,5 C -2,7 C 3,2 km/h (1 Bft) 95,92 %
16.02.2017 04:08 -2,7 C 94 % 1035,0 hPa 0,0 l/m 2,2 km/h (1 Bft) W-SW 242 0 min 0,000 mm 0,0 UV-I 0 W/m -3,5 C -2,7 C 3,2 km/h (1 Bft) 97,44 %
16.02.2017 04:10 -2,6 C 95 % 1035,0 hPa 0,0 l/m 3,4 km/h (1 Bft) W-SW 242 0 min 0,000 mm 0,0 UV-I 0 W/m -3,3 C -2,6 C 4,8 km/h (1 Bft) 98,00 %
16.02.2017 04:12 -2,7 C 94 % 1035,0 hPa 0,0 l/m 2,9 km/h (1 Bft) W-SW 242 0 min 0,000 mm 0,0 UV-I 0 W/m -3,5 C -2,7 C 4,8 km/h (1 Bft) 96,15 %
16.02.2017 04:14 -2,7 C 94 % 1035,0 hPa 0,0 l/m 2,6 km/h (1 Bft) W-SW 242 0 min 0,000 mm 0,0 UV-I 0 W/m -3,5 C -2,7 C 3,2 km/h (1 Bft) 98,53 %
16.02.2017 04:16 -2,7 C 94 % 1035,0 hPa 0,0 l/m 2,1 km/h (1 Bft) W-SW 242 0 min 0,000 mm 0,0 UV-I 0 W/m -3,5 C -2,7 C 4,8 km/h (1 Bft) 98,11 %
16.02.2017 04:18 -2,7 C 94 % 1035,0 hPa 0,0 l/m 1,6 km/h (1 Bft) W-SW 242 0 min 0,000 mm 0,0 UV-I 0 W/m -3,5 C -2,7 C 3,2 km/h (1 Bft) 97,14 %
16.02.2017 04:20 -2,7 C 95 % 1035,0 hPa 0,0 l/m 1,0 km/h (0 Bft) W-SW 242 0 min 0,000 mm 0,0 UV-I 0 W/m -3,4 C -2,7 C 1,6 km/h (1 Bft) 100,00 %
16.02.2017 04:22 -2,6 C 95 % 1035,1 hPa 0,0 l/m 1,4 km/h (1 Bft) W-SW 242 0 min 0,000 mm 0,0 UV-I 0 W/m -3,3 C -2,6 C 3,2 km/h (1 Bft) 98,00 %
16.02.2017 04:24 -2,6 C 95 % 1035,1 hPa 0,0 l/m 0,9 km/h (0 Bft) W-SW 242 0 min 0,000 mm 0,0 UV-I 0 W/m -3,3 C -2,6 C 1,6 km/h (1 Bft) 98,00 %
16.02.2017 04:26 -2,6 C 95 % 1035,1 hPa 0,0 l/m 1,4 km/h (1 Bft) W-SW 242 0 min 0,000 mm 0,0 UV-I 0 W/m -3,3 C -2,6 C 3,2 km/h (1 Bft) 97,37 %
16.02.2017 04:28 -2,4 C 95 % 1035,0 hPa 0,0 l/m 0,3 km/h (0 Bft) W-SW 242 0 min 0,000 mm 0,0 UV-I 0 W/m -3,1 C -2,4 C 1,6 km/h (1 Bft) 98,11 %
16.02.2017 04:30 -2,4 C 95 % 1035,0 hPa 0,0 l/m 0,6 km/h (0 Bft) W-SW 242 0 min 0,000 mm 0,0 UV-I 0 W/m -3,1 C -2,4 C 1,6 km/h (1 Bft) 100,00 %
16.02.2017 04:32 -2,4 C 95 % 1035,0 hPa 0,0 l/m 0,6 km/h (0 Bft) W-SW 242 0 min 0,000 mm 0,0 UV-I 0 W/m -3,1 C -2,4 C 1,6 km/h (1 Bft) 100,00 %
16.02.2017 04:34 -2,5 C 94 % 1035,0 hPa 0,0 l/m 1,9 km/h (1 Bft) W-SW 242 0 min 0,000 mm 0,0 UV-I 0 W/m -3,3 C -2,5 C 3,2 km/h (1 Bft) 100,00 %
16.02.2017 04:36 -2,5 C 95 % 1035,0 hPa 0,0 l/m 2,0 km/h (1 Bft) W-SW 242 0 min 0,000 mm 0,0 UV-I 0 W/m -3,2 C -2,5 C 3,2 km/h (1 Bft) 98,11 %
16.02.2017 04:38 -2,5 C 95 % 1035,0 hPa 0,0 l/m 2,3 km/h (1 Bft) W-SW 242 0 min 0,000 mm 0,0 UV-I 0 W/m -3,2 C -2,5 C 3,2 km/h (1 Bft) 97,37 %
16.02.2017 04:40 -2,4 C 95 % 1035,0 hPa 0,0 l/m 2,5 km/h (1 Bft) W-SW 242 0 min 0,000 mm 0,0 UV-I 0 W/m -3,1 C -2,4 C 3,2 km/h (1 Bft) 98,11 %
16.02.2017 04:42 -2,4 C 95 % 1035,0 hPa 0,0 l/m 2,5 km/h (1 Bft) W-SW 242 0 min 0,000 mm 0,0 UV-I 0 W/m -3,1 C -2,4 C 3,2 km/h (1 Bft) 97,44 %
16.02.2017 04:44 -2,4 C 95 % 1035,0 hPa 0,0 l/m 1,9 km/h (1 Bft) W-SW 242 0 min 0,000 mm 0,0 UV-I 0 W/m -3,1 C -2,4 C 3,2 km/h (1 Bft) 98,00 %
16.02.2017 04:46 -2,5 C 94 % 1035,0 hPa 0,0 l/m 1,4 km/h (1 Bft) W-SW 242 0 min 0,000 mm 0,0 UV-I 0 W/m -3,3 C -2,5 C 1,6 km/h (1 Bft) 97,87 %
16.02.2017 04:48 -2,6 C 94 % 1035,0 hPa 0,0 l/m 1,3 km/h (1 Bft) W-SW 242 0 min 0,000 mm 0,0 UV-I 0 W/m -3,4 C -2,6 C 1,6 km/h (1 Bft) 100,00 %
16.02.2017 04:50 -2,6 C 95 % 1034,9 hPa 0,0 l/m 1,6 km/h (1 Bft) W-SW 242 0 min 0,000 mm 0,0 UV-I 0 W/m -3,3 C -2,6 C 3,2 km/h (1 Bft) 96,00 %
16.02.2017 04:52 -2,6 C 94 % 1035,0 hPa 0,0 l/m 1,9 km/h (1 Bft) W-SW 242 0 min 0,000 mm 0,0 UV-I 0 W/m -3,4 C -2,6 C 3,2 km/h (1 Bft) 98,00 %
16.02.2017 04:54 -2,7 C 94 % 1035,0 hPa 0,0 l/m 1,6 km/h (1 Bft) W-SW 242 0 min 0,000 mm 0,0 UV-I 0 W/m -3,5 C -2,7 C 3,2 km/h (1 Bft) 96,15 %
16.02.2017 04:56 -2,7 C 95 % 1035,1 hPa 0,0 l/m 1,8 km/h (1 Bft) W-SW 242 0 min 0,000 mm 0,0 UV-I 0 W/m -3,4 C -2,7 C 3,2 km/h (1 Bft) 96,92 %
16.02.2017 04:58 -2,7 C 94 % 1035,1 hPa 0,0 l/m 1,0 km/h (0 Bft) W-SW 242 0 min 0,000 mm 0,0 UV-I 0 W/m -3,5 C -2,7 C 1,6 km/h (1 Bft) 96,00 %
16.02.2017 05:00 -2,6 C 95 % 1035,1 hPa 0,0 l/m 1,2 km/h (1 Bft) W-SW 242 0 min 0,000 mm 0,0 UV-I 0 W/m -3,3 C -2,6 C 3,2 km/h (1 Bft) 95,12 %
16.02.2017 05:02 -2,6 C 95 % 1035,1 hPa 0,0 l/m 2,5 km/h (1 Bft) W-SW 242 0 min 0,000 mm 0,0 UV-I 0 W/m -3,3 C -2,6 C 3,2 km/h (1 Bft) 96,23 %
16.02.2017 05:04 -2,6 C 94 % 1035,1 hPa 0,0 l/m 2,4 km/h (1 Bft) W-SW 242 0 min 0,000 mm 0,0 UV-I 0 W/m -3,4 C -2,6 C 3,2 km/h (1 Bft) 95,74 %
16.02.2017 05:06 -2,7 C 94 % 1035,1 hPa 0,0 l/m 1,7 km/h (1 Bft) W-SW 242 0 min 0,000 mm 0,0 UV-I 0 W/m -3,5 C -2,7 C 3,2 km/h (1 Bft) 95,12 %
16.02.2017 05:08 -2,7 C 94 % 1035,1 hPa 0,0 l/m 1,4 km/h (1 Bft) W-SW 242 0 min 0,000 mm 0,0 UV-I 0 W/m -3,5 C -2,7 C 3,2 km/h (1 Bft) 98,11 %
16.02.2017 05:10 -2,7 C 95 % 1035,0 hPa 0,0 l/m 1,1 km/h (1 Bft) W-SW 242 0 min 0,000 mm 0,0 UV-I 0 W/m -3,4 C -2,7 C 1,6 km/h (1 Bft) 91,49 %
16.02.2017 05:12 -2,6 C 95 % 1035,0 hPa 0,0 l/m 0,9 km/h (0 Bft) W-SW 242 0 min 0,000 mm 0,0 UV-I 0 W/m -3,3 C -2,6 C 1,6 km/h (1 Bft) 93,62 %
16.02.2017 05:14 -2,6 C 95 % 1035,1 hPa 0,0 l/m 1,8 km/h (1 Bft) W-SW 242 0 min 0,000 mm 0,0 UV-I 0 W/m -3,3 C -2,6 C 3,2 km/h (1 Bft) 95,74 %
16.02.2017 05:16 -2,5 C 95 % 1035,1 hPa 0,0 l/m 1,8 km/h (1 Bft) W-SW 242 0 min 0,000 mm 0,0 UV-I 0 W/m -3,2 C -2,5 C 3,2 km/h (1 Bft) 92,11 %
16.02.2017 05:18 -2,4 C 95 % 1035,1 hPa 0,0 l/m 1,0 km/h (0 Bft) W-SW 242 0 min 0,000 mm 0,0 UV-I 0 W/m -3,1 C -2,4 C 1,6 km/h (1 Bft) 97,73 %
16.02.2017 05:20 -2,4 C 95 % 1035,0 hPa 0,0 l/m 0,7 km/h (0 Bft) W-SW 242 0 min 0,000 mm 0,0 UV-I 0 W/m -3,1 C -2,4 C 1,6 km/h (1 Bft) 98,04 %
16.02.2017 05:22 -2,3 C 95 % 1035,0 hPa 0,0 l/m 1,1 km/h (1 Bft) W-SW 242 0 min 0,000 mm 0,0 UV-I 0 W/m -3,0 C -2,3 C 3,2 km/h (1 Bft) 97,37 %
16.02.2017 05:24 -2,4 C 94 % 1035,0 hPa 0,0 l/m 0,1 km/h (0 Bft) W-SW 242 0 min 0,000 mm 0,0 UV-I 0 W/m -3,2 C -2,4 C 1,6 km/h (1 Bft) 96,23 %
16.02.2017 05:26 -2,7 C 94 % 1035,0 hPa 0,0 l/m 2,1 km/h (1 Bft) W-SW 242 0 min 0,000 mm 0,0 UV-I 0 W/m -3,5 C -2,7 C 3,2 km/h (1 Bft) 98,00 %
16.02.2017 05:28 -2,7 C 94 % 1035,0 hPa 0,0 l/m 1,8 km/h (1 Bft) W-SW 242 0 min 0,000 mm 0,0 UV-I 0 W/m -3,5 C -2,7 C 3,2 km/h (1 Bft) 97,87 %
16.02.2017 05:30 -2,7 C 94 % 1034,9 hPa 0,0 l/m 1,8 km/h (1 Bft) W-SW 242 0 min 0,000 mm 0,0 UV-I 0 W/m -3,5 C -2,7 C 3,2 km/h (1 Bft) 93,62 %
16.02.2017 05:32 -2,7 C 94 % 1034,9 hPa 0,0 l/m 2,8 km/h (1 Bft) W-SW 242 0 min 0,000 mm 0,0 UV-I 0 W/m -3,5 C -2,7 C 3,2 km/h (1 Bft) 95,74 %
16.02.2017 05:34 -2,7 C 94 % 1034,9 hPa 0,0 l/m 3,0 km/h (1 Bft) W-SW 242 0 min 0,000 mm 0,0 UV-I 0 W/m -3,5 C -2,7 C 4,8 km/h (1 Bft) 97,87 %
16.02.2017 05:36 -2,8 C 94 % 1034,9 hPa 0,0 l/m 3,0 km/h (1 Bft) W-SW 242 0 min 0,000 mm 0,0 UV-I 0 W/m -3,6 C -2,8 C 3,2 km/h (1 Bft) 94,00 %
16.02.2017 05:38 -2,8 C 94 % 1034,9 hPa 0,0 l/m 3,3 km/h (1 Bft) W-SW 242 0 min 0,000 mm 0,0 UV-I 0 W/m -3,6 C -2,8 C 4,8 km/h (1 Bft) 94,00 %
16.02.2017 05:40 -2,8 C 94 % 1034,9 hPa 0,0 l/m 3,1 km/h (1 Bft) W-SW 242 0 min 0,000 mm 0,0 UV-I 0 W/m -3,6 C -2,8 C 4,8 km/h (1 Bft) 97,87 %
16.02.2017 05:42 -2,9 C 94 % 1034,9 hPa 0,0 l/m 2,8 km/h (1 Bft) W-SW 242 0 min 0,000 mm 0,0 UV-I 0 W/m -3,7 C -2,9 C 3,2 km/h (1 Bft) 92,11 %
16.02.2017 05:44 -3,1 C 94 % 1034,9 hPa 0,0 l/m 2,6 km/h (1 Bft) W-SW 242 0 min 0,000 mm 0,0 UV-I 0 W/m -3,9 C -3,1 C 3,2 km/h (1 Bft) 97,73 %
16.02.2017 05:46 -3,1 C 94 % 1034,9 hPa 0,0 l/m 2,7 km/h (1 Bft) W-SW 242 0 min 0,000 mm 0,0 UV-I 0 W/m -3,9 C -3,1 C 4,8 km/h (1 Bft) 95,74 %
16.02.2017 05:48 -3,2 C 94 % 1034,8 hPa 0,0 l/m 3,1 km/h (1 Bft) W-SW 242 0 min 0,000 mm 0,0 UV-I 0 W/m -4,0 C -3,2 C 3,2 km/h (1 Bft) 94,34 %
16.02.2017 05:50 -3,2 C 95 % 1034,9 hPa 0,0 l/m 2,9 km/h (1 Bft) W-SW 242 0 min 0,000 mm 0,0 UV-I 0 W/m -3,9 C -3,2 C 3,2 km/h (1 Bft) 100,00 %
16.02.2017 05:52 -3,1 C 95 % 1034,8 hPa 0,0 l/m 2,0 km/h (1 Bft) W-SW 242 0 min 0,000 mm 0,0 UV-I 0 W/m -3,8 C -3,1 C 3,2 km/h (1 Bft) 98,11 %
16.02.2017 05:54 -3,1 C 95 % 1034,9 hPa 0,0 l/m 2,5 km/h (1 Bft) W-SW 242 0 min 0,000 mm 0,0 UV-I 0 W/m -3,8 C -3,1 C 3,2 km/h (1 Bft) 96,00 %
16.02.2017 05:56 -3,1 C 95 % 1034,9 hPa 0,0 l/m 2,6 km/h (1 Bft) W-SW 242 0 min 0,000 mm 0,0 UV-I 0 W/m -3,8 C -3,1 C 3,2 km/h (1 Bft) 97,56 %
16.02.2017 05:58 -3,0 C 95 % 1034,8 hPa 0,0 l/m 2,8 km/h (1 Bft) W-SW 242 0 min 0,000 mm 0,0 UV-I 0 W/m -3,7 C -3,0 C 3,2 km/h (1 Bft) 100,00 %
16.02.2017 06:00 -3,0 C 95 % 1034,9 hPa 0,0 l/m 1,8 km/h (1 Bft) W-SW 242 0 min 0,000 mm 0,0 UV-I 0 W/m -3,7 C -3,0 C 3,2 km/h (1 Bft) 97,73 %
16.02.2017 06:02 -3,1 C 95 % 1034,9 hPa 0,0 l/m 0,9 km/h (0 Bft) W-SW 242 0 min 0,000 mm 0,0 UV-I 0 W/m -3,8 C -3,1 C 3,2 km/h (1 Bft) 95,74 %
16.02.2017 06:04 -3,0 C 95 % 1034,8 hPa 0,0 l/m 0,8 km/h (0 Bft) W-SW 242 0 min 0,000 mm 0,0 UV-I 0 W/m -3,7 C -3,0 C 1,6 km/h (1 Bft) 98,11 %
16.02.2017 06:06 -2,9 C 95 % 1034,8 hPa 0,0 l/m 0,3 km/h (0 Bft) W-SW 242 0 min 0,000 mm 0,0 UV-I 0 W/m -3,6 C -2,9 C 1,6 km/h (1 Bft) 97,44 %
16.02.2017 06:08 -2,8 C 95 % 1034,8 hPa 0,0 l/m 0,2 km/h (0 Bft) W-SW 242 0 min 0,000 mm 0,0 UV-I 0 W/m -3,5 C -2,8 C 1,6 km/h (1 Bft) 100,00 %
16.02.2017 06:10 -2,8 C 95 % 1034,8 hPa 0,0 l/m 0,5 km/h (0 Bft) W-SW 242 0 min 0,000 mm 0,0 UV-I 0 W/m -3,5 C -2,8 C 1,6 km/h (1 Bft) 93,62 %
16.02.2017 06:12 -2,7 C 95 % 1034,8 hPa 0,0 l/m 0,8 km/h (0 Bft) W-SW 242 0 min 0,000 mm 0,0 UV-I 0 W/m -3,4 C -2,7 C 1,6 km/h (1 Bft) 96,00 %
16.02.2017 06:14 -2,7 C 95 % 1034,8 hPa 0,0 l/m 0,7 km/h (0 Bft) W-SW 242 0 min 0,000 mm 0,0 UV-I 0 W/m -3,4 C -2,7 C 1,6 km/h (1 Bft) 93,62 %
16.02.2017 06:16 -2,8 C 95 % 1034,8 hPa 0,0 l/m 1,0 km/h (0 Bft) W-SW 242 0 min 0,000 mm 0,0 UV-I 0 W/m -3,5 C -2,8 C 1,6 km/h (1 Bft) 92,00 %
16.02.2017 06:18 -2,7 C 95 % 1034,8 hPa 0,0 l/m 1,6 km/h (1 Bft) W-SW 242 0 min 0,000 mm 0,0 UV-I 0 W/m -3,4 C -2,7 C 3,2 km/h (1 Bft) 97,87 %
16.02.2017 06:20 -2,7 C 95 % 1034,8 hPa 0,0 l/m 1,9 km/h (1 Bft) W-SW 242 0 min 0,000 mm 0,0 UV-I 0 W/m -3,4 C -2,7 C 3,2 km/h (1 Bft) 100,00 %
16.02.2017 06:22 -2,7 C 95 % 1034,8 hPa 0,0 l/m 1,9 km/h (1 Bft) W-SW 242 0 min 0,000 mm 0,0 UV-I 0 W/m -3,4 C -2,7 C 3,2 km/h (1 Bft) 94,34 %
16.02.2017 06:24 -2,6 C 95 % 1034,8 hPa 0,0 l/m 2,2 km/h (1 Bft) W-SW 242 0 min 0,000 mm 0,0 UV-I 0 W/m -3,3 C -2,6 C 3,2 km/h (1 Bft) 96,00 %
16.02.2017 06:26 -2,6 C 95 % 1034,8 hPa 0,0 l/m 1,5 km/h (1 Bft) W-SW 242 0 min 0,000 mm 0,0 UV-I 0 W/m -3,3 C -2,6 C 3,2 km/h (1 Bft) 91,67 %
16.02.2017 06:28 -2,5 C 95 % 1034,8 hPa 0,0 l/m 1,4 km/h (1 Bft) W-SW 242 0 min 0,000 mm 0,0 UV-I 0 W/m -3,2 C -2,5 C 3,2 km/h (1 Bft) 96,00 %
16.02.2017 06:30 -2,5 C 95 % 1034,8 hPa 0,0 l/m 1,0 km/h (0 Bft) W-SW 242 0 min 0,000 mm 0,0 UV-I 0 W/m -3,2 C -2,5 C 1,6 km/h (1 Bft) 93,18 %
16.02.2017 06:32 -2,6 C 94 % 1034,8 hPa 0,0 l/m 1,2 km/h (1 Bft) W-SW 242 0 min 0,000 mm 0,0 UV-I 0 W/m -3,4 C -2,6 C 1,6 km/h (1 Bft) 96,00 %
16.02.2017 06:34 -2,6 C 94 % 1034,8 hPa 0,0 l/m 1,3 km/h (1 Bft) W-SW 242 0 min 0,000 mm 0,0 UV-I 0 W/m -3,4 C -2,6 C 3,2 km/h (1 Bft) 95,74 %
16.02.2017 06:36 -2,7 C 94 % 1034,8 hPa 0,0 l/m 0,0 km/h (0 Bft) W-SW 242 0 min 0,000 mm 0,0 UV-I 0 W/m -3,5 C -2,7 C 1,6 km/h (1 Bft) 97,73 %
16.02.2017 06:38 -2,9 C 94 % 1034,7 hPa 0,0 l/m 0,0 km/h (0 Bft) W-SW 242 0 min 0,000 mm 0,0 UV-I 0 W/m -3,7 C -2,9 C 0,0 km/h (0 Bft) 100,00 %
16.02.2017 06:40 -3,1 C 94 % 1034,7 hPa 0,0 l/m 0,0 km/h (0 Bft) W-SW 242 0 min 0,000 mm 0,0 UV-I 0 W/m -3,9 C -3,1 C 0,0 km/h (0 Bft) 94,34 %
16.02.2017 06:42 -3,2 C 94 % 1034,7 hPa 0,0 l/m 0,0 km/h (0 Bft) W-SW 242 0 min 0,000 mm 0,0 UV-I 0 W/m -4,0 C -3,2 C 1,6 km/h (1 Bft) 97,22 %
16.02.2017 06:44 -3,3 C 94 % 1034,7 hPa 0,0 l/m 0,6 km/h (0 Bft) W-SW 242 0 min 0,000 mm 0,0 UV-I 0 W/m -4,1 C -3,3 C 1,6 km/h (1 Bft) 90,20 %
16.02.2017 06:46 -3,3 C 94 % 1034,7 hPa 0,0 l/m 0,3 km/h (0 Bft) W-SW 242 0 min 0,000 mm 0,0 UV-I 0 W/m -4,1 C -3,3 C 1,6 km/h (1 Bft) 98,00 %
16.02.2017 06:48 -3,3 C 94 % 1034,7 hPa 0,0 l/m 0,0 km/h (0 Bft) W-SW 242 0 min 0,000 mm 0,0 UV-I 0 W/m -4,1 C -3,3 C 0,0 km/h (0 Bft) 100,00 %
16.02.2017 06:50 -3,4 C 94 % 1034,8 hPa 0,0 l/m 0,0 km/h (0 Bft) W-SW 242 0 min 0,000 mm 0,0 UV-I 0 W/m -4,2 C -3,4 C 0,0 km/h (0 Bft) 97,73 %
16.02.2017 06:52 -3,4 C 94 % 1034,7 hPa 0,0 l/m 0,0 km/h (0 Bft) W-SW 242 0 min 0,000 mm 0,0 UV-I 0 W/m -4,2 C -3,4 C 0,0 km/h (0 Bft) 98,00 %
16.02.2017 06:54 -3,3 C 95 % 1034,8 hPa 0,0 l/m 0,0 km/h (0 Bft) W-SW 242 0 min 0,000 mm 0,0 UV-I 1 W/m -4,0 C -3,3 C 0,0 km/h (0 Bft) 95,74 %
16.02.2017 06:56 -3,3 C 95 % 1034,8 hPa 0,0 l/m 0,2 km/h (0 Bft) W-SW 242 0 min 0,000 mm 0,0 UV-I 5 W/m -4,0 C -3,3 C 1,6 km/h (1 Bft) 100,00 %
16.02.2017 06:58 -3,3 C 95 % 1034,8 hPa 0,0 l/m 0,6 km/h (0 Bft) W-SW 242 0 min 0,000 mm 0,0 UV-I 5 W/m -4,0 C -3,3 C 1,6 km/h (1 Bft) 98,00 %
16.02.2017 07:00 -3,3 C 95 % 1034,8 hPa 0,0 l/m 0,6 km/h (0 Bft) W-SW 242 0 min 0,000 mm 0,0 UV-I 5 W/m -4,0 C -3,3 C 1,6 km/h (1 Bft) 100,00 %
16.02.2017 07:02 -3,2 C 95 % 1034,8 hPa 0,0 l/m 1,1 km/h (1 Bft) W-SW 242 0 min 0,000 mm 0,0 UV-I 5 W/m -3,9 C -3,2 C 1,6 km/h (1 Bft) 98,00 %
16.02.2017 07:04 -3,0 C 95 % 1034,8 hPa 0,0 l/m 0,8 km/h (0 Bft) W-SW 242 0 min 0,000 mm 0,0 UV-I 7 W/m -3,7 C -3,0 C 1,6 km/h (1 Bft) 98,11 %
16.02.2017 07:06 -2,9 C 95 % 1034,8 hPa 0,0 l/m 0,0 km/h (0 Bft) W-SW 242 0 min 0,000 mm 0,0 UV-I 7 W/m -3,6 C -2,9 C 0,0 km/h (0 Bft) 100,00 %
16.02.2017 07:08 -2,9 C 95 % 1034,9 hPa 0,0 l/m 0,7 km/h (0 Bft) W-SW 242 0 min 0,000 mm 0,0 UV-I 7 W/m -3,6 C -2,9 C 3,2 km/h (1 Bft) 98,00 %
16.02.2017 07:10 -2,8 C 95 % 1034,8 hPa 0,0 l/m 1,2 km/h (1 Bft) W-SW 242 0 min 0,000 mm 0,0 UV-I 9 W/m -3,5 C -2,8 C 1,6 km/h (1 Bft) 98,00 %
16.02.2017 07:12 -2,8 C 95 % 1034,8 hPa 0,0 l/m 0,0 km/h (0 Bft) W-SW 242 0 min 0,000 mm 0,0 UV-I 9 W/m -3,5 C -2,8 C 1,6 km/h (1 Bft) 91,49 %
16.02.2017 07:14 -2,8 C 95 % 1034,8 hPa 0,0 l/m 1,0 km/h (0 Bft) W-SW 242 0 min 0,000 mm 0,0 UV-I 11 W/m -3,5 C -2,8 C 3,2 km/h (1 Bft) 94,00 %
16.02.2017 07:16 -3,0 C 94 % 1034,9 hPa 0,0 l/m 1,0 km/h (0 Bft) W-SW 242 0 min 0,000 mm 0,0 UV-I 12 W/m -3,8 C -3,0 C 3,2 km/h (1 Bft) 92,11 %
16.02.2017 07:18 -3,2 C 94 % 1034,9 hPa 0,0 l/m 0,0 km/h (0 Bft) W-SW 242 0 min 0,000 mm 0,0 UV-I 12 W/m -4,0 C -3,2 C 0,0 km/h (0 Bft) 100,00 %
16.02.2017 07:20 -3,2 C 94 % 1034,8 hPa 0,0 l/m 0,0 km/h (0 Bft) W-SW 242 2 min 0,000 mm 0,0 UV-I 14 W/m -4,0 C -3,2 C 0,0 km/h (0 Bft) 88,00 %
16.02.2017 07:22 -3,2 C 94 % 1034,8 hPa 0,0 l/m 0,0 km/h (0 Bft) W-SW 242 2 min 0,000 mm 0,0 UV-I 16 W/m -4,0 C -3,2 C 0,0 km/h (0 Bft) 97,62 %
16.02.2017 07:24 -3,2 C 95 % 1034,9 hPa 0,0 l/m 0,0 km/h (0 Bft) W-SW 242 2 min 0,000 mm 0,0 UV-I 18 W/m -3,9 C -3,2 C 0,0 km/h (0 Bft) 91,49 %
16.02.2017 07:26 -3,2 C 95 % 1034,8 hPa 0,0 l/m 0,2 km/h (0 Bft) W-SW 242 2 min 0,000 mm 0,0 UV-I 19 W/m -3,9 C -3,2 C 1,6 km/h (1 Bft) 98,00 %
16.02.2017 07:28 -3,2 C 95 % 1034,8 hPa 0,0 l/m 0,5 km/h (0 Bft) W-SW 242 0 min 0,000 mm 0,0 UV-I 20 W/m -3,9 C -3,2 C 1,6 km/h (1 Bft) 91,49 %
16.02.2017 07:30 -3,1 C 95 % 1034,9 hPa 0,0 l/m 0,6 km/h (0 Bft) W-SW 242 0 min 0,000 mm 0,0 UV-I 22 W/m -3,8 C -3,1 C 1,6 km/h (1 Bft) 98,11 %
16.02.2017 07:32 -3,2 C 95 % 1034,8 hPa 0,0 l/m 0,3 km/h (0 Bft) W-SW 242 0 min 0,000 mm 0,0 UV-I 23 W/m -3,9 C -3,2 C 1,6 km/h (1 Bft) 89,47 %
16.02.2017 07:34 -3,2 C 95 % 1034,9 hPa 0,0 l/m 0,2 km/h (0 Bft) W-SW 242 0 min 0,000 mm 0,0 UV-I 25 W/m -3,9 C -3,2 C 1,6 km/h (1 Bft) 96,00 %
16.02.2017 07:36 -3,2 C 95 % 1034,9 hPa 0,0 l/m 0,0 km/h (0 Bft) W-SW 242 0 min 0,000 mm 0,0 UV-I 27 W/m -3,9 C -3,2 C 0,0 km/h (0 Bft) 94,00 %
16.02.2017 07:38 -3,2 C 95 % 1034,9 hPa 0,0 l/m 0,0 km/h (0 Bft) W-SW 242 0 min 0,000 mm 0,0 UV-I 36 W/m -3,9 C -3,2 C 0,0 km/h (0 Bft) 91,49 %
16.02.2017 07:40 -3,1 C 95 % 1034,9 hPa 0,0 l/m 0,0 km/h (0 Bft) W-SW 242 2 min 0,000 mm 0,0 UV-I 51 W/m -3,8 C -3,1 C 0,0 km/h (0 Bft) 95,74 %
16.02.2017 07:42 -3,1 C 95 % 1034,9 hPa 0,0 l/m 0,0 km/h (0 Bft) W-SW 242 2 min 0,000 mm 0,0 UV-I 56 W/m -3,8 C -3,1 C 0,0 km/h (0 Bft) 98,00 %
16.02.2017 07:44 -3,2 C 95 % 1034,9 hPa 0,0 l/m 0,3 km/h (0 Bft) W-SW 242 2 min 0,000 mm 0,0 UV-I 61 W/m -3,9 C -3,2 C 1,6 km/h (1 Bft) 97,37 %
16.02.2017 07:46 -3,2 C 95 % 1034,9 hPa 0,0 l/m 1,9 km/h (1 Bft) W-SW 242 2 min 0,000 mm 0,0 UV-I 65 W/m -3,9 C -3,2 C 3,2 km/h (1 Bft) 95,74 %
16.02.2017 07:48 -3,1 C 95 % 1034,9 hPa 0,0 l/m 1,9 km/h (1 Bft) W-SW 242 2 min 0,000 mm 0,0 UV-I 70 W/m -3,8 C -3,1 C 3,2 km/h (1 Bft) 97,87 %
16.02.2017 07:50 -3,1 C 95 % 1035,1 hPa 0,0 l/m 1,4 km/h (1 Bft) W-SW 242 2 min 0,000 mm 0,0 UV-I 75 W/m -3,8 C -3,1 C 3,2 km/h (1 Bft) 95,45 %
16.02.2017 07:52 -2,9 C 95 % 1035,1 hPa 0,0 l/m 1,2 km/h (1 Bft) W-SW 242 2 min 0,000 mm 0,0 UV-I 80 W/m -3,6 C -2,9 C 1,6 km/h (1 Bft) 92,00 %
16.02.2017 07:54 -2,9 C 95 % 1035,0 hPa 0,0 l/m 1,5 km/h (1 Bft) W-SW 242 2 min 0,000 mm 0,0 UV-I 84 W/m -3,6 C -2,9 C 3,2 km/h (1 Bft) 94,00 %
16.02.2017 07:56 -2,8 C 95 % 1035,1 hPa 0,0 l/m 1,5 km/h (1 Bft) W-SW 242 2 min 0,000 mm 0,0 UV-I 89 W/m -3,5 C -2,8 C 3,2 km/h (1 Bft) 96,00 %
16.02.2017 07:58 -2,8 C 95 % 1035,1 hPa 0,0 l/m 2,4 km/h (1 Bft) W-SW 242 2 min 0,000 mm 0,0 UV-I 94 W/m -3,5 C -2,8 C 3,2 km/h (1 Bft) 97,87 %
16.02.2017 08:00 -2,7 C 95 % 1035,1 hPa 0,0 l/m 2,0 km/h (1 Bft) W-SW 242 2 min 0,000 mm 0,0 UV-I 97 W/m -3,4 C -2,7 C 3,2 km/h (1 Bft) 95,74 %
16.02.2017 08:02 -2,7 C 95 % 1035,2 hPa 0,0 l/m 1,4 km/h (1 Bft) W-SW 242 2 min 0,000 mm 0,0 UV-I 101 W/m -3,4 C -2,7 C 3,2 km/h (1 Bft) 95,12 %
16.02.2017 08:04 -2,7 C 95 % 1035,1 hPa 0,0 l/m 1,0 km/h (0 Bft) W-SW 242 2 min 0,000 mm 0,0 UV-I 105 W/m -3,4 C -2,7 C 1,6 km/h (1 Bft) 96,00 %
16.02.2017 08:06 -2,7 C 95 % 1035,2 hPa 0,0 l/m 0,9 km/h (0 Bft) W-SW 242 2 min 0,000 mm 0,0 UV-I 108 W/m -3,4 C -2,7 C 1,6 km/h (1 Bft) 98,00 %
16.02.2017 08:08 -2,6 C 95 % 1035,2 hPa 0,0 l/m 0,0 km/h (0 Bft) W-SW 242 2 min 0,000 mm 0,0 UV-I 114 W/m -3,3 C -2,6 C 0,0 km/h (0 Bft) 94,87 %
16.02.2017 08:10 -2,4 C 95 % 1035,2 hPa 0,0 l/m 0,0 km/h (0 Bft) W-SW 242 2 min 0,000 mm 0,0 UV-I 120 W/m -3,1 C -2,4 C 1,6 km/h (1 Bft) 98,00 %
16.02.2017 08:12 -2,4 C 95 % 1035,1 hPa 0,0 l/m 1,0 km/h (0 Bft) W-SW 242 2 min 0,000 mm 0,0 UV-I 126 W/m -3,1 C -2,4 C 1,6 km/h (1 Bft) 97,87 %
16.02.2017 08:14 -2,4 C 95 % 1035,2 hPa 0,0 l/m 0,1 km/h (0 Bft) W-SW 242 2 min 0,000 mm 0,0 UV-I 132 W/m -3,1 C -2,4 C 1,6 km/h (1 Bft) 94,00 %
16.02.2017 08:16 -2,3 C 95 % 1035,1 hPa 0,0 l/m 0,0 km/h (0 Bft) W-SW 242 2 min 0,000 mm 0,0 UV-I 137 W/m -3,0 C -2,3 C 0,0 km/h (0 Bft) 100,00 %
16.02.2017 08:18 -2,2 C 95 % 1035,1 hPa 0,0 l/m 0,0 km/h (0 Bft) W-SW 242 2 min 0,000 mm 0,0 UV-I 142 W/m -2,9 C -2,2 C 0,0 km/h (0 Bft) 98,00 %
16.02.2017 08:20 -2,1 C 95 % 1035,0 hPa 0,0 l/m 0,2 km/h (0 Bft) W-SW 242 2 min 0,000 mm 0,0 UV-I 146 W/m -2,8 C -2,1 C 1,6 km/h (1 Bft) 98,00 %
16.02.2017 08:22 -2,0 C 95 % 1035,1 hPa 0,0 l/m 0,3 km/h (0 Bft) W-SW 242 2 min 0,000 mm 0,0 UV-I 150 W/m -2,7 C -2,0 C 1,6 km/h (1 Bft) 93,10 %
16.02.2017 08:24 -1,8 C 95 % 1035,1 hPa 0,0 l/m 0,1 km/h (0 Bft) W-SW 242 2 min 0,000 mm 0,0 UV-I 154 W/m -2,5 C -1,8 C 1,6 km/h (1 Bft) 100,00 %
16.02.2017 08:26 -1,8 C 95 % 1035,0 hPa 0,0 l/m 0,2 km/h (0 Bft) W-SW 242 2 min 0,000 mm 0,0 UV-I 156 W/m -2,5 C -1,8 C 1,6 km/h (1 Bft) 98,00 %
16.02.2017 08:28 -1,7 C 95 % 1035,0 hPa 0,0 l/m 1,0 km/h (0 Bft) W-SW 242 2 min 0,000 mm 0,0 UV-I 160 W/m -2,4 C -1,7 C 3,2 km/h (1 Bft) 97,37 %
16.02.2017 08:30 -1,6 C 94 % 1034,9 hPa 0,0 l/m 0,6 km/h (0 Bft) W-SW 242 2 min 0,000 mm 0,0 UV-I 162 W/m -2,4 C -1,6 C 3,2 km/h (1 Bft) 100,00 %
16.02.2017 08:32 -1,4 C 94 % 1035,0 hPa 0,0 l/m 0,1 km/h (0 Bft) W-SW 242 2 min 0,000 mm 0,0 UV-I 167 W/m -2,2 C -1,4 C 1,6 km/h (1 Bft) 96,23 %
16.02.2017 08:34 -1,3 C 94 % 1035,0 hPa 0,0 l/m 0,0 km/h (0 Bft) W-SW 242 2 min 0,000 mm 0,0 UV-I 170 W/m -2,1 C -1,3 C 0,0 km/h (0 Bft) 100,00 %
16.02.2017 08:36 -1,3 C 94 % 1035,0 hPa 0,0 l/m 0,0 km/h (0 Bft) W-SW 242 2 min 0,000 mm 0,0 UV-I 168 W/m -2,1 C -1,3 C 0,0 km/h (0 Bft) 94,00 %
16.02.2017 08:38 -1,3 C 93 % 1034,9 hPa 0,0 l/m 2,0 km/h (1 Bft) W-SW 242 2 min 0,000 mm 0,0 UV-I 165 W/m -2,3 C -1,3 C 3,2 km/h (1 Bft) 90,00 %
16.02.2017 08:40 -1,3 C 93 % 1034,9 hPa 0,0 l/m 1,5 km/h (1 Bft) W-SW 242 2 min 0,000 mm 0,0 UV-I 169 W/m -2,3 C -1,3 C 3,2 km/h (1 Bft) 98,00 %
16.02.2017 08:42 -1,3 C 94 % 1034,8 hPa 0,0 l/m 1,3 km/h (1 Bft) W-SW 242 2 min 0,000 mm 0,0 UV-I 175 W/m -2,1 C -1,3 C 3,2 km/h (1 Bft) 94,87 %
16.02.2017 08:44 -1,2 C 94 % 1034,8 hPa 0,0 l/m 1,2 km/h (1 Bft) W-SW 242 2 min 0,000 mm 0,0 UV-I 182 W/m -2,0 C -1,2 C 3,2 km/h (1 Bft) 100,00 %
16.02.2017 08:46 -1,1 C 94 % 1034,9 hPa 0,0 l/m 0,8 km/h (0 Bft) W-SW 242 2 min 0,000 mm 0,0 UV-I 188 W/m -1,9 C -1,1 C 1,6 km/h (1 Bft) 96,23 %
16.02.2017 08:48 -0,9 C 94 % 1034,9 hPa 0,0 l/m 2,1 km/h (1 Bft) W-SW 242 2 min 0,000 mm 0,0 UV-I 188 W/m -1,7 C -0,9 C 3,2 km/h (1 Bft) 98,00 %
16.02.2017 08:50 -0,8 C 93 % 1034,9 hPa 0,0 l/m 2,3 km/h (1 Bft) W-SW 242 2 min 0,000 mm 0,0 UV-I 194 W/m -1,8 C -0,8 C 3,2 km/h (1 Bft) 97,87 %
16.02.2017 08:52 -0,7 C 93 % 1034,8 hPa 0,0 l/m 1,7 km/h (1 Bft) W-SW 242 2 min 0,000 mm 0,0 UV-I 197 W/m -1,7 C -0,7 C 3,2 km/h (1 Bft) 97,37 %
16.02.2017 08:54 -0,6 C 93 % 1034,9 hPa 0,0 l/m 1,4 km/h (1 Bft) W-SW 242 2 min 0,000 mm 0,0 UV-I 199 W/m -1,6 C -0,6 C 3,2 km/h (1 Bft) 100,00 %
16.02.2017 08:56 -0,5 C 92 % 1034,8 hPa 0,0 l/m 1,8 km/h (1 Bft) W-SW 242 2 min 0,000 mm 0,0 UV-I 207 W/m -1,6 C -0,5 C 3,2 km/h (1 Bft) 100,00 %
16.02.2017 08:58 -0,5 C 92 % 1034,9 hPa 0,0 l/m 3,4 km/h (1 Bft) W-SW 242 2 min 0,000 mm 0,0 UV-I 215 W/m -1,6 C -0,5 C 4,8 km/h (1 Bft) 95,74 %
16.02.2017 09:00 -0,4 C 92 % 1034,9 hPa 0,2 l/m 2,2 km/h (1 Bft) W-SW 242 2 min 0,051 mm 0,0 UV-I 218 W/m -1,5 C -0,4 C 4,8 km/h (1 Bft) 95,74 %
16.02.2017 09:02 -0,3 C 92 % 1034,8 hPa 0,0 l/m 1,3 km/h (1 Bft) W-SW 242 2 min 0,000 mm 0,0 UV-I 224 W/m -1,4 C -0,3 C 3,2 km/h (1 Bft) 97,37 %
16.02.2017 09:04 -0,4 C 91 % 1034,8 hPa 0,0 l/m 1,4 km/h (1 Bft) W-SW 242 2 min 0,000 mm 0,0 UV-I 227 W/m -1,7 C -0,4 C 3,2 km/h (1 Bft) 98,21 %
16.02.2017 09:06 -0,3 C 91 % 1034,8 hPa 0,0 l/m 0,6 km/h (0 Bft) W-SW 242 2 min 0,000 mm 0,0 UV-I 235 W/m -1,6 C -0,3 C 3,2 km/h (1 Bft) 98,11 %
16.02.2017 09:08 -0,2 C 92 % 1034,8 hPa 0,0 l/m 2,1 km/h (1 Bft) W-SW 242 2 min 0,000 mm 0,0 UV-I 236 W/m -1,3 C -0,2 C 3,2 km/h (1 Bft) 100,00 %
16.02.2017 09:10 -0,1 C 91 % 1034,8 hPa 0,0 l/m 2,3 km/h (1 Bft) W-SW 242 2 min 0,000 mm 0,0 UV-I 241 W/m -1,4 C -0,1 C 4,8 km/h (1 Bft) 97,87 %
16.02.2017 09:12 0,0 C 91 % 1034,8 hPa 0,0 l/m 1,9 km/h (1 Bft) W-SW 242 2 min 0,000 mm 0,0 UV-I 247 W/m -1,3 C 0,0 C 4,8 km/h (1 Bft) 98,00 %
16.02.2017 09:14 0,1 C 90 % 1034,9 hPa 0,0 l/m 1,6 km/h (1 Bft) W-SW 242 2 min 0,000 mm 0,0 UV-I 252 W/m -1,3 C 0,1 C 3,2 km/h (1 Bft) 96,00 %
16.02.2017 09:16 0,1 C 90 % 1034,8 hPa 0,0 l/m 1,4 km/h (1 Bft) W-SW 242 2 min 0,000 mm 0,0 UV-I 255 W/m -1,3 C 0,1 C 3,2 km/h (1 Bft) 97,14 %
16.02.2017 09:18 0,1 C 90 % 1034,7 hPa 0,0 l/m 0,4 km/h (0 Bft) W-SW 242 2 min 0,000 mm 0,0 UV-I 257 W/m -1,3 C 0,1 C 1,6 km/h (1 Bft) 100,00 %
16.02.2017 09:20 0,2 C 90 % 1034,7 hPa 0,0 l/m 1,6 km/h (1 Bft) W-SW 242 2 min 0,000 mm 0,0 UV-I 262 W/m -1,2 C 0,2 C 3,2 km/h (1 Bft) 95,56 %
16.02.2017 09:22 0,3 C 90 % 1034,7 hPa 0,0 l/m 1,8 km/h (1 Bft) W-SW 242 2 min 0,000 mm 0,1 UV-I 269 W/m -1,1 C 0,3 C 3,2 km/h (1 Bft) 96,15 %
16.02.2017 09:24 0,3 C 90 % 1034,6 hPa 0,0 l/m 1,1 km/h (1 Bft) W-SW 242 2 min 0,000 mm 0,5 UV-I 276 W/m -1,1 C 0,3 C 3,2 km/h (1 Bft) 98,00 %
16.02.2017 09:26 0,3 C 89 % 1034,6 hPa 0,0 l/m 1,3 km/h (1 Bft) W-SW 242 2 min 0,000 mm 0,5 UV-I 282 W/m -1,3 C 0,3 C 3,2 km/h (1 Bft) 97,92 %
16.02.2017 09:28 0,4 C 89 % 1034,6 hPa 0,0 l/m 1,2 km/h (1 Bft) W-SW 242 2 min 0,000 mm 0,5 UV-I 288 W/m -1,2 C 0,4 C 3,2 km/h (1 Bft) 97,14 %
16.02.2017 09:30 0,4 C 89 % 1034,6 hPa 0,0 l/m 0,4 km/h (0 Bft) W-SW 242 2 min 0,000 mm 0,5 UV-I 294 W/m -1,2 C 0,4 C 3,2 km/h (1 Bft) 94,34 %
16.02.2017 09:32 0,5 C 89 % 1034,6 hPa 0,0 l/m 1,3 km/h (1 Bft) W-SW 242 2 min 0,000 mm 0,5 UV-I 301 W/m -1,1 C 0,5 C 4,8 km/h (1 Bft) 89,36 %
16.02.2017 09:34 0,6 C 89 % 1034,5 hPa 0,0 l/m 1,0 km/h (0 Bft) W-SW 242 2 min 0,000 mm 0,5 UV-I 306 W/m -1,0 C 0,6 C 3,2 km/h (1 Bft) 96,00 %
16.02.2017 09:36 0,7 C 89 % 1034,6 hPa 0,0 l/m 1,2 km/h (1 Bft) W-SW 242 2 min 0,000 mm 0,5 UV-I 312 W/m -0,9 C 0,7 C 3,2 km/h (1 Bft) 97,87 %
16.02.2017 09:38 0,8 C 88 % 1034,5 hPa 0,0 l/m 1,6 km/h (1 Bft) W-SW 242 2 min 0,000 mm 0,6 UV-I 317 W/m -1,0 C 0,8 C 3,2 km/h (1 Bft) 95,12 %
16.02.2017 09:40 0,9 C 88 % 1034,6 hPa 0,0 l/m 1,8 km/h (1 Bft) W-SW 242 2 min 0,000 mm 0,6 UV-I 322 W/m -0,9 C 0,9 C 3,2 km/h (1 Bft) 95,74 %
16.02.2017 09:42 1,1 C 88 % 1034,5 hPa 0,0 l/m 0,4 km/h (0 Bft) W-SW 242 2 min 0,000 mm 0,6 UV-I 328 W/m -0,7 C 1,1 C 1,6 km/h (1 Bft) 94,00 %
16.02.2017 09:44 1,2 C 87 % 1034,6 hPa 0,0 l/m 2,2 km/h (1 Bft) W-SW 242 2 min 0,000 mm 0,6 UV-I 333 W/m -0,7 C 1,2 C 4,8 km/h (1 Bft) 96,00 %
16.02.2017 09:46 1,3 C 87 % 1034,5 hPa 0,0 l/m 2,2 km/h (1 Bft) W-SW 242 2 min 0,000 mm 0,6 UV-I 336 W/m -0,6 C 1,3 C 4,8 km/h (1 Bft) 98,00 %
16.02.2017 09:48 1,4 C 87 % 1034,5 hPa 0,0 l/m 0,8 km/h (0 Bft) W-SW 242 2 min 0,000 mm 0,6 UV-I 341 W/m -0,5 C 1,4 C 3,2 km/h (1 Bft) 94,29 %
16.02.2017 09:50 1,4 C 87 % 1034,5 hPa 0,0 l/m 2,9 km/h (1 Bft) W-SW 242 2 min 0,000 mm 0,6 UV-I 346 W/m -0,5 C 1,4 C 4,8 km/h (1 Bft) 100,00 %
16.02.2017 09:52 1,7 C 87 % 1034,5 hPa 0,0 l/m 2,6 km/h (1 Bft) W-SW 242 2 min 0,000 mm 0,6 UV-I 351 W/m -0,2 C 1,7 C 4,8 km/h (1 Bft) 97,56 %
16.02.2017 09:54 1,8 C 86 % 1034,5 hPa 0,0 l/m 0,9 km/h (0 Bft) W-SW 242 2 min 0,000 mm 0,7 UV-I 356 W/m -0,3 C 1,8 C 1,6 km/h (1 Bft) 100,00 %
16.02.2017 09:56 1,8 C 86 % 1034,4 hPa 0,0 l/m 0,8 km/h (0 Bft) W-SW 242 2 min 0,000 mm 0,7 UV-I 358 W/m -0,3 C 1,8 C 3,2 km/h (1 Bft) 97,87 %
16.02.2017 09:58 1,9 C 87 % 1034,4 hPa 0,0 l/m 2,0 km/h (1 Bft) W-SW 242 2 min 0,000 mm 0,7 UV-I 363 W/m -0,0 C 1,9 C 3,2 km/h (1 Bft) 96,23 %
16.02.2017 10:00 2,1 C 86 % 1034,4 hPa 0,0 l/m 2,5 km/h (1 Bft) W-SW 242 2 min 0,101 mm 0,7 UV-I 367 W/m 0,0 C 2,1 C 3,2 km/h (1 Bft) 98,00 %
16.02.2017 10:02 2,3 C 85 % 1034,4 hPa 0,0 l/m 3,1 km/h (1 Bft) W-SW 242 2 min 0,000 mm 0,7 UV-I 371 W/m 0,0 C 2,3 C 6,4 km/h (2 Bft) 97,44 %
16.02.2017 10:04 2,3 C 84 % 1034,4 hPa 0,0 l/m 1,9 km/h (1 Bft) W-SW 242 2 min 0,000 mm 0,7 UV-I 375 W/m -0,1 C 2,3 C 4,8 km/h (1 Bft) 100,00 %
16.02.2017 10:06 2,3 C 84 % 1034,3 hPa 0,0 l/m 2,9 km/h (1 Bft) W-SW 242 2 min 0,000 mm 0,7 UV-I 379 W/m -0,1 C 2,3 C 4,8 km/h (1 Bft) 97,44 %
16.02.2017 10:08 2,3 C 84 % 1034,3 hPa 0,0 l/m 5,3 km/h (1 Bft) W-SW 242 2 min 0,000 mm 0,8 UV-I 383 W/m -0,1 C 2,3 C 6,4 km/h (2 Bft) 100,00 %
16.02.2017 10:10 2,4 C 84 % 1034,3 hPa 0,0 l/m 3,9 km/h (1 Bft) W-SW 242 2 min 0,000 mm 0,8 UV-I 387 W/m -0,0 C 2,4 C 4,8 km/h (1 Bft) 98,11 %
16.02.2017 10:12 2,4 C 83 % 1034,3 hPa 0,0 l/m 4,4 km/h (1 Bft) W-SW 242 2 min 0,000 mm 0,8 UV-I 391 W/m -0,2 C 2,4 C 6,4 km/h (2 Bft) 100,00 %
16.02.2017 10:14 2,6 C 83 % 1034,3 hPa 0,0 l/m 4,5 km/h (1 Bft) W-SW 242 2 min 0,000 mm 0,8 UV-I 395 W/m 0,0 C 2,6 C 6,4 km/h (2 Bft) 96,00 %
16.02.2017 10:16 2,8 C 83 % 1034,3 hPa 0,0 l/m 3,2 km/h (1 Bft) W-SW 242 2 min 0,000 mm 0,8 UV-I 398 W/m 0,2 C 2,8 C 4,8 km/h (1 Bft) 100,00 %
16.02.2017 10:18 2,9 C 82 % 1034,3 hPa 0,0 l/m 3,5 km/h (1 Bft) W-SW 242 2 min 0,000 mm 0,8 UV-I 402 W/m 0,1 C 2,9 C 4,8 km/h (1 Bft) 100,00 %
16.02.2017 10:20 3,0 C 81 % 1034,3 hPa 0,0 l/m 3,4 km/h (1 Bft) W-SW 242 2 min 0,000 mm 0,8 UV-I 405 W/m 0,1 C 3,0 C 4,8 km/h (1 Bft) 100,00 %
16.02.2017 10:22 3,1 C 81 % 1034,3 hPa 0,0 l/m 3,5 km/h (1 Bft) W-SW 242 2 min 0,000 mm 0,9 UV-I 407 W/m 0,2 C 3,1 C 6,4 km/h (2 Bft) 97,37 %
16.02.2017 10:24 3,1 C 81 % 1034,3 hPa 0,0 l/m 4,1 km/h (1 Bft) W-SW 242 2 min 0,000 mm 0,9 UV-I 411 W/m 0,2 C 3,1 C 6,4 km/h (2 Bft) 97,87 %
16.02.2017 10:26 3,1 C 80 % 1034,3 hPa 0,0 l/m 3,4 km/h (1 Bft) W-SW 242 2 min 0,000 mm 0,9 UV-I 415 W/m -0,0 C 3,1 C 4,8 km/h (1 Bft) 98,00 %
16.02.2017 10:28 3,2 C 81 % 1034,2 hPa 0,0 l/m 3,2 km/h (1 Bft) W-SW 242 2 min 0,000 mm 0,9 UV-I 417 W/m 0,3 C 3,2 C 4,8 km/h (1 Bft) 96,00 %
16.02.2017 10:30 3,4 C 81 % 1034,2 hPa 0,0 l/m 3,2 km/h (1 Bft) W-SW 242 2 min 0,000 mm 0,9 UV-I 420 W/m 0,5 C 3,4 C 4,8 km/h (1 Bft) 100,00 %
16.02.2017 10:32 3,5 C 79 % 1034,2 hPa 0,0 l/m 3,1 km/h (1 Bft) W-SW 242 2 min 0,000 mm 0,9 UV-I 424 W/m 0,2 C 3,5 C 4,8 km/h (1 Bft) 98,51 %
16.02.2017 10:34 3,6 C 79 % 1034,2 hPa 0,0 l/m 4,2 km/h (1 Bft) W-SW 246 2 min 0,000 mm 0,9 UV-I 427 W/m 0,3 C 3,6 C 6,4 km/h (2 Bft) 100,00 %
16.02.2017 10:36 3,6 C 78 % 1034,2 hPa 0,0 l/m 5,8 km/h (2 Bft) W-SW 246 2 min 0,000 mm 0,9 UV-I 429 W/m 0,1 C 3,6 C 8,0 km/h (2 Bft) 96,00 %
16.02.2017 10:38 3,6 C 78 % 1034,2 hPa 0,0 l/m 4,0 km/h (1 Bft) W-SW 246 2 min 0,000 mm 1,0 UV-I 432 W/m 0,1 C 3,6 C 6,4 km/h (2 Bft) 96,00 %
16.02.2017 10:40 3,7 C 79 % 1034,1 hPa 0,0 l/m 1,6 km/h (1 Bft) W-SW 246 2 min 0,000 mm 1,0 UV-I 434 W/m 0,4 C 3,7 C 3,2 km/h (1 Bft) 96,00 %
16.02.2017 10:42 3,8 C 79 % 1034,2 hPa 0,0 l/m 2,7 km/h (1 Bft) W-SW 246 2 min 0,000 mm 1,0 UV-I 437 W/m 0,5 C 3,8 C 4,8 km/h (1 Bft) 94,87 %
16.02.2017 10:44 3,9 C 76 % 1034,2 hPa 0,0 l/m 4,5 km/h (1 Bft) W-SW 246 2 min 0,000 mm 1,0 UV-I 440 W/m 0,1 C 3,9 C 6,4 km/h (2 Bft) 98,08 %
16.02.2017 10:46 4,1 C 77 % 1034,2 hPa 0,0 l/m 1,5 km/h (1 Bft) W-SW 246 2 min 0,000 mm 1,0 UV-I 444 W/m 0,4 C 4,1 C 3,2 km/h (1 Bft) 95,24 %
16.02.2017 10:48 4,2 C 76 % 1034,2 hPa 0,0 l/m 0,3 km/h (0 Bft) W-SW 246 2 min 0,000 mm 1,0 UV-I 443 W/m 0,4 C 4,2 C 1,6 km/h (1 Bft) 95,74 %
16.02.2017 10:50 4,3 C 77 % 1034,2 hPa 0,0 l/m 0,1 km/h (0 Bft) W-SW 246 2 min 0,000 mm 1,0 UV-I 450 W/m 0,6 C 4,3 C 1,6 km/h (1 Bft) 94,34 %
16.02.2017 10:52 4,2 C 78 % 1034,1 hPa 0,0 l/m 0,7 km/h (0 Bft) W-SW 246 2 min 0,000 mm 1,1 UV-I 453 W/m 0,7 C 4,2 C 1,6 km/h (1 Bft) 94,74 %
16.02.2017 10:54 4,2 C 77 % 1034,1 hPa 0,0 l/m 0,3 km/h (0 Bft) W-SW 246 2 min 0,000 mm 1,1 UV-I 458 W/m 0,5 C 4,2 C 1,6 km/h (1 Bft) 98,00 %
16.02.2017 10:56 4,2 C 78 % 1034,1 hPa 0,0 l/m 0,6 km/h (0 Bft) W-SW 246 2 min 0,000 mm 1,1 UV-I 459 W/m 0,7 C 4,2 C 1,6 km/h (1 Bft) 96,00 %
16.02.2017 10:58 4,3 C 78 % 1034,1 hPa 0,0 l/m 0,5 km/h (0 Bft) W-SW 246 2 min 0,000 mm 1,1 UV-I 462 W/m 0,8 C 4,3 C 1,6 km/h (1 Bft) 96,00 %
16.02.2017 11:00 4,4 C 78 % 1034,1 hPa 0,0 l/m 0,4 km/h (0 Bft) W-SW 246 2 min 0,153 mm 1,1 UV-I 464 W/m 0,9 C 4,4 C 1,6 km/h (1 Bft) 100,00 %
16.02.2017 11:02 4,4 C 77 % 1034,1 hPa 0,0 l/m 1,7 km/h (1 Bft) W-SW 246 2 min 0,000 mm 1,1 UV-I 466 W/m 0,7 C 4,4 C 3,2 km/h (1 Bft) 100,00 %
16.02.2017 11:04 4,4 C 75 % 1034,0 hPa 0,0 l/m 1,2 km/h (1 Bft) W-SW 246 2 min 0,000 mm 1,1 UV-I 467 W/m 0,4 C 4,4 C 3,2 km/h (1 Bft) 97,87 %
16.02.2017 11:06 4,5 C 75 % 1034,1 hPa 0,0 l/m 0,1 km/h (0 Bft) W-SW 246 2 min 0,000 mm 1,2 UV-I 469 W/m 0,5 C 4,5 C 1,6 km/h (1 Bft) 100,00 %
16.02.2017 11:08 4,6 C 75 % 1034,0 hPa 0,0 l/m 1,1 km/h (1 Bft) W-SW 246 2 min 0,000 mm 1,2 UV-I 472 W/m 0,6 C 4,6 C 1,6 km/h (1 Bft) 100,00 %
16.02.2017 11:10 4,5 C 75 % 1034,1 hPa 0,0 l/m 2,1 km/h (1 Bft) W-SW 246 2 min 0,000 mm 1,2 UV-I 475 W/m 0,5 C 4,5 C 3,2 km/h (1 Bft) 95,74 %
16.02.2017 11:12 4,4 C 75 % 1034,1 hPa 0,0 l/m 3,0 km/h (1 Bft) W-SW 246 2 min 0,000 mm 1,2 UV-I 479 W/m 0,4 C 4,4 C 3,2 km/h (1 Bft) 95,74 %
16.02.2017 11:14 4,5 C 75 % 1034,0 hPa 0,0 l/m 2,1 km/h (1 Bft) W-SW 246 2 min 0,000 mm 1,2 UV-I 479 W/m 0,5 C 4,5 C 3,2 km/h (1 Bft) 97,56 %
16.02.2017 11:16 4,6 C 75 % 1034,0 hPa 0,0 l/m 0,3 km/h (0 Bft) W-SW 246 2 min 0,000 mm 1,2 UV-I 482 W/m 0,6 C 4,6 C 1,6 km/h (1 Bft) 97,87 %
16.02.2017 11:18 4,8 C 75 % 1034,0 hPa 0,0 l/m 1,8 km/h (1 Bft) W-SW 246 2 min 0,000 mm 1,2 UV-I 484 W/m 0,8 C 4,8 C 3,2 km/h (1 Bft) 95,24 %
16.02.2017 11:20 4,9 C 74 % 1033,9 hPa 0,0 l/m 0,9 km/h (0 Bft) W-SW 246 2 min 0,000 mm 1,2 UV-I 487 W/m 0,7 C 4,9 C 3,2 km/h (1 Bft) 96,00 %
16.02.2017 11:22 4,9 C 74 % 1033,9 hPa 0,0 l/m 0,7 km/h (0 Bft) W-SW 246 2 min 0,000 mm 1,2 UV-I 487 W/m 0,7 C 4,9 C 1,6 km/h (1 Bft) 95,74 %
16.02.2017 11:24 5,0 C 75 % 1033,9 hPa 0,0 l/m 0,8 km/h (0 Bft) W-SW 246 2 min 0,000 mm 1,2 UV-I 489 W/m 0,9 C 5,0 C 3,2 km/h (1 Bft) 91,49 %
16.02.2017 11:26 5,0 C 74 % 1033,9 hPa 0,0 l/m 1,9 km/h (1 Bft) W-SW 247 2 min 0,000 mm 1,3 UV-I 490 W/m 0,8 C 5,0 C 3,2 km/h (1 Bft) 94,00 %
16.02.2017 11:28 5,0 C 74 % 1033,9 hPa 0,0 l/m 0,2 km/h (0 Bft) W-SW 247 2 min 0,000 mm 1,3 UV-I 492 W/m 0,8 C 5,0 C 1,6 km/h (1 Bft) 98,00 %
16.02.2017 11:30 5,0 C 74 % 1033,9 hPa 0,0 l/m 0,7 km/h (0 Bft) W-SW 247 2 min 0,000 mm 1,3 UV-I 491 W/m 0,8 C 5,0 C 1,6 km/h (1 Bft) 95,74 %
16.02.2017 11:32 5,2 C 76 % 1033,8 hPa 0,0 l/m 0,8 km/h (0 Bft) W-SW 247 2 min 0,000 mm 1,3 UV-I 494 W/m 1,3 C 5,2 C 1,6 km/h (1 Bft) 95,45 %
16.02.2017 11:34 5,3 C 74 % 1033,7 hPa 0,0 l/m 0,4 km/h (0 Bft) W-SW 247 2 min 0,000 mm 1,3 UV-I 496 W/m 1,0 C 5,3 C 1,6 km/h (1 Bft) 98,00 %
16.02.2017 11:36 5,3 C 73 % 1033,7 hPa 0,0 l/m 0,2 km/h (0 Bft) W-SW 247 2 min 0,000 mm 1,3 UV-I 496 W/m 0,9 C 5,3 C 1,6 km/h (1 Bft) 95,74 %
16.02.2017 11:38 5,3 C 73 % 1033,6 hPa 0,0 l/m 0,1 km/h (0 Bft) W-SW 247 2 min 0,000 mm 1,3 UV-I 498 W/m 0,9 C 5,3 C 1,6 km/h (1 Bft) 92,11 %
16.02.2017 11:40 5,2 C 73 % 1033,6 hPa 0,0 l/m 1,6 km/h (1 Bft) W-SW 244 2 min 0,000 mm 1,3 UV-I 500 W/m 0,8 C 5,2 C 3,2 km/h (1 Bft) 94,34 %
16.02.2017 11:42 5,2 C 74 % 1033,6 hPa 0,0 l/m 1,1 km/h (1 Bft) W-SW 244 2 min 0,000 mm 1,3 UV-I 502 W/m 1,0 C 5,2 C 3,2 km/h (1 Bft) 97,56 %
16.02.2017 11:44 5,2 C 72 % 1033,6 hPa 0,0 l/m 0,9 km/h (0 Bft) W-SW 244 2 min 0,000 mm 1,3 UV-I 503 W/m 0,6 C 5,2 C 3,2 km/h (1 Bft) 98,00 %
16.02.2017 11:46 5,4 C 75 % 1033,6 hPa 0,0 l/m 1,9 km/h (1 Bft) W-SW 244 2 min 0,000 mm 1,3 UV-I 503 W/m 1,3 C 5,4 C 4,8 km/h (1 Bft) 95,12 %
16.02.2017 11:48 5,7 C 73 % 1033,6 hPa 0,0 l/m 0,9 km/h (0 Bft) W-SW 244 2 min 0,000 mm 1,3 UV-I 502 W/m 1,2 C 5,7 C 1,6 km/h (1 Bft) 98,00 %
16.02.2017 11:50 5,8 C 74 % 1033,6 hPa 0,0 l/m 0,2 km/h (0 Bft) W-SW 244 2 min 0,000 mm 1,3 UV-I 503 W/m 1,5 C 5,8 C 1,6 km/h (1 Bft) 98,00 %
16.02.2017 11:52 5,9 C 74 % 1033,5 hPa 0,0 l/m 0,7 km/h (0 Bft) W-SW 244 2 min 0,000 mm 1,3 UV-I 504 W/m 1,6 C 5,9 C 1,6 km/h (1 Bft) 96,23 %
16.02.2017 11:54 5,9 C 72 % 1033,5 hPa 0,0 l/m 1,7 km/h (1 Bft) W-SW 244 2 min 0,000 mm 1,3 UV-I 504 W/m 1,2 C 5,9 C 3,2 km/h (1 Bft) 93,18 %
16.02.2017 11:56 6,1 C 72 % 1033,5 hPa 0,0 l/m 0,7 km/h (0 Bft) W-SW 244 2 min 0,000 mm 1,3 UV-I 504 W/m 1,4 C 6,1 C 1,6 km/h (1 Bft) 96,00 %
16.02.2017 11:58 6,1 C 73 % 1033,5 hPa 0,0 l/m 0,8 km/h (0 Bft) W-SW 244 2 min 0,000 mm 1,3 UV-I 505 W/m 1,6 C 6,1 C 1,6 km/h (1 Bft) 100,00 %
16.02.2017 12:00 6,0 C 72 % 1033,4 hPa 0,0 l/m 0,8 km/h (0 Bft) W-SW 244 2 min 0,203 mm 1,3 UV-I 503 W/m 1,3 C 6,0 C 1,6 km/h (1 Bft) 96,23 %
16.02.2017 12:02 6,0 C 72 % 1033,4 hPa 0,0 l/m 0,7 km/h (0 Bft) W-SW 244 2 min 0,000 mm 1,3 UV-I 504 W/m 1,3 C 6,0 C 1,6 km/h (1 Bft) 96,43 %
16.02.2017 12:04 6,2 C 74 % 1033,4 hPa 0,0 l/m 0,7 km/h (0 Bft) W-SW 244 2 min 0,000 mm 1,3 UV-I 505 W/m 1,9 C 6,2 C 3,2 km/h (1 Bft) 97,87 %
16.02.2017 12:06 6,1 C 72 % 1033,4 hPa 0,0 l/m 2,4 km/h (1 Bft) W 274 2 min 0,000 mm 1,3 UV-I 502 W/m 1,4 C 6,1 C 4,8 km/h (1 Bft) 95,74 %
16.02.2017 12:08 6,1 C 72 % 1033,3 hPa 0,0 l/m 2,0 km/h (1 Bft) W-NW 288 2 min 0,000 mm 1,3 UV-I 501 W/m 1,4 C 6,1 C 6,4 km/h (2 Bft) 92,00 %
16.02.2017 12:10 6,1 C 73 % 1033,2 hPa 0,0 l/m 1,9 km/h (1 Bft) W-NW 301 2 min 0,000 mm 1,3 UV-I 500 W/m 1,6 C 6,1 C 4,8 km/h (1 Bft) 94,74 %
16.02.2017 12:12 6,1 C 71 % 1033,2 hPa 0,0 l/m 2,6 km/h (1 Bft) W-NW 302 2 min 0,000 mm 1,3 UV-I 501 W/m 1,2 C 6,1 C 4,8 km/h (1 Bft) 94,00 %
16.02.2017 12:14 6,1 C 72 % 1033,2 hPa 0,0 l/m 1,3 km/h (1 Bft) NW 311 2 min 0,000 mm 1,3 UV-I 503 W/m 1,4 C 6,1 C 3,2 km/h (1 Bft) 94,34 %
16.02.2017 12:16 5,9 C 72 % 1033,2 hPa 0,0 l/m 0,8 km/h (0 Bft) NW 315 2 min 0,000 mm 1,3 UV-I 503 W/m 1,2 C 5,9 C 3,2 km/h (1 Bft) 97,37 %
16.02.2017 12:18 5,9 C 74 % 1033,1 hPa 0,0 l/m 1,7 km/h (1 Bft) N-NW 327 2 min 0,000 mm 1,3 UV-I 501 W/m 1,6 C 5,9 C 4,8 km/h (1 Bft) 94,00 %
16.02.2017 12:20 5,9 C 73 % 1033,1 hPa 0,0 l/m 2,8 km/h (1 Bft) N-NW 330 2 min 0,000 mm 1,3 UV-I 504 W/m 1,4 C 5,9 C 4,8 km/h (1 Bft) 97,87 %
16.02.2017 12:22 5,9 C 75 % 1033,1 hPa 0,0 l/m 0,7 km/h (0 Bft) N-NW 340 2 min 0,000 mm 1,3 UV-I 504 W/m 1,8 C 5,9 C 3,2 km/h (1 Bft) 97,87 %
16.02.2017 12:24 5,8 C 75 % 1033,1 hPa 0,0 l/m 0,3 km/h (0 Bft) N-NW 340 2 min 0,000 mm 1,3 UV-I 503 W/m 1,7 C 5,8 C 1,6 km/h (1 Bft) 98,11 %
16.02.2017 12:26 5,9 C 74 % 1033,0 hPa 0,0 l/m 1,1 km/h (1 Bft) N-NW 340 2 min 0,000 mm 1,3 UV-I 500 W/m 1,6 C 5,9 C 4,8 km/h (1 Bft) 97,37 %
16.02.2017 12:28 6,0 C 75 % 1032,9 hPa 0,0 l/m 0,3 km/h (0 Bft) N-NW 340 2 min 0,000 mm 1,3 UV-I 498 W/m 1,9 C 6,0 C 1,6 km/h (1 Bft) 95,74 %
16.02.2017 12:30 6,1 C 75 % 1032,9 hPa 0,0 l/m 0,2 km/h (0 Bft) N-NW 340 2 min 0,000 mm 1,3 UV-I 497 W/m 2,0 C 6,1 C 1,6 km/h (1 Bft) 96,00 %
16.02.2017 12:32 6,2 C 74 % 1032,9 hPa 0,0 l/m 1,5 km/h (1 Bft) N-NW 340 2 min 0,000 mm 1,3 UV-I 499 W/m 1,9 C 6,2 C 4,8 km/h (1 Bft) 98,00 %
16.02.2017 12:34 6,2 C 73 % 1032,9 hPa 0,0 l/m 2,3 km/h (1 Bft) N-NW 341 2 min 0,000 mm 1,3 UV-I 497 W/m 1,7 C 6,2 C 4,8 km/h (1 Bft) 100,00 %
16.02.2017 12:36 6,1 C 73 % 1032,8 hPa 0,0 l/m 1,7 km/h (1 Bft) N-NW 341 2 min 0,000 mm 1,3 UV-I 497 W/m 1,6 C 6,1 C 4,8 km/h (1 Bft) 100,00 %
16.02.2017 12:38 6,1 C 73 % 1032,8 hPa 0,0 l/m 1,7 km/h (1 Bft) N-NW 342 2 min 0,000 mm 1,3 UV-I 495 W/m 1,6 C 6,1 C 4,8 km/h (1 Bft) 100,00 %
16.02.2017 12:40 6,2 C 74 % 1032,7 hPa 0,0 l/m 1,4 km/h (1 Bft) N-NW 335 2 min 0,000 mm 1,3 UV-I 492 W/m 1,9 C 6,2 C 4,8 km/h (1 Bft) 97,62 %
16.02.2017 12:42 6,0 C 74 % 1032,7 hPa 0,0 l/m 1,0 km/h (0 Bft) N-NW 331 2 min 0,000 mm 1,3 UV-I 493 W/m 1,7 C 6,0 C 3,2 km/h (1 Bft) 100,00 %
16.02.2017 12:44 6,1 C 73 % 1032,8 hPa 0,0 l/m 1,9 km/h (1 Bft) N-NW 336 2 min 0,000 mm 1,3 UV-I 492 W/m 1,6 C 6,1 C 4,8 km/h (1 Bft) 95,12 %
16.02.2017 12:46 6,1 C 73 % 1032,7 hPa 0,0 l/m 1,0 km/h (0 Bft) N-NW 340 2 min 0,000 mm 1,3 UV-I 493 W/m 1,6 C 6,1 C 3,2 km/h (1 Bft) 100,00 %
16.02.2017 12:48 6,1 C 72 % 1032,7 hPa 0,0 l/m 2,0 km/h (1 Bft) N-NW 344 2 min 0,000 mm 1,3 UV-I 494 W/m 1,4 C 6,1 C 4,8 km/h (1 Bft) 100,00 %
16.02.2017 12:50 6,4 C 74 % 1032,7 hPa 0,0 l/m 1,4 km/h (1 Bft) N-NW 344 2 min 0,000 mm 1,3 UV-I 489 W/m 2,1 C 6,4 C 4,8 km/h (1 Bft) 97,87 %
16.02.2017 12:52 6,3 C 72 % 1032,6 hPa 0,0 l/m 0,8 km/h (0 Bft) N 349 2 min 0,000 mm 1,3 UV-I 490 W/m 1,6 C 6,3 C 1,6 km/h (1 Bft) 98,00 %
16.02.2017 12:54 6,4 C 73 % 1032,6 hPa 0,0 l/m 1,0 km/h (0 Bft) N 11 2 min 0,000 mm 1,2 UV-I 486 W/m 1,9 C 6,4 C 3,2 km/h (1 Bft) 97,37 %
16.02.2017 12:56 6,4 C 73 % 1032,5 hPa 0,0 l/m 0,6 km/h (0 Bft) N 11 2 min 0,000 mm 1,2 UV-I 486 W/m 1,9 C 6,4 C 3,2 km/h (1 Bft) 96,00 %
16.02.2017 12:58 6,3 C 72 % 1032,5 hPa 0,0 l/m 1,8 km/h (1 Bft) N 11 2 min 0,000 mm 1,2 UV-I 486 W/m 1,6 C 6,3 C 3,2 km/h (1 Bft) 98,11 %
16.02.2017 13:00 6,4 C 71 % 1032,5 hPa 0,0 l/m 2,0 km/h (1 Bft) N 11 2 min 0,000 mm 1,2 UV-I 485 W/m 1,5 C 6,4 C 3,2 km/h (1 Bft) 97,14 %
16.02.2017 13:02 6,5 C 71 % 1032,4 hPa 0,0 l/m 0,9 km/h (0 Bft) N 355 2 min 0,203 mm 1,2 UV-I 486 W/m 1,6 C 6,5 C 3,2 km/h (1 Bft) 96,23 %
16.02.2017 13:04 6,6 C 72 % 1032,5 hPa 0,0 l/m 3,5 km/h (1 Bft) N-NO 19 2 min 0,000 mm 1,2 UV-I 478 W/m 1,9 C 6,6 C 8,0 km/h (2 Bft) 97,87 %
16.02.2017 13:06 6,7 C 71 % 1032,4 hPa 0,0 l/m 0,1 km/h (0 Bft) N-NO 19 2 min 0,000 mm 1,2 UV-I 481 W/m 1,8 C 6,7 C 1,6 km/h (1 Bft) 98,04 %
16.02.2017 13:08 6,8 C 70 % 1032,3 hPa 0,0 l/m 2,8 km/h (1 Bft) N-NO 19 2 min 0,000 mm 1,2 UV-I 473 W/m 1,7 C 6,8 C 6,4 km/h (2 Bft) 93,62 %
16.02.2017 13:10 6,9 C 70 % 1032,3 hPa 0,0 l/m 1,6 km/h (1 Bft) NW 317 2 min 0,000 mm 1,2 UV-I 480 W/m 1,8 C 6,9 C 4,8 km/h (1 Bft) 97,87 %
16.02.2017 13:12 7,1 C 68 % 1032,3 hPa 0,0 l/m 1,5 km/h (1 Bft) NW 311 2 min 0,000 mm 1,2 UV-I 480 W/m 1,6 C 7,1 C 3,2 km/h (1 Bft) 94,74 %
16.02.2017 13:14 7,2 C 68 % 1032,3 hPa 0,0 l/m 0,3 km/h (0 Bft) NW 311 2 min 0,000 mm 1,2 UV-I 472 W/m 1,7 C 7,2 C 1,6 km/h (1 Bft) 94,00 %
16.02.2017 13:16 7,1 C 67 % 1032,2 hPa 0,0 l/m 0,6 km/h (0 Bft) NW 311 2 min 0,000 mm 1,2 UV-I 441 W/m 1,4 C 7,1 C 1,6 km/h (1 Bft) 100,00 %
16.02.2017 13:18 7,2 C 68 % 1032,2 hPa 0,0 l/m 1,0 km/h (0 Bft) NW 316 2 min 0,000 mm 1,2 UV-I 446 W/m 1,7 C 7,2 C 3,2 km/h (1 Bft) 98,00 %
16.02.2017 13:20 7,2 C 67 % 1032,2 hPa 0,0 l/m 0,3 km/h (0 Bft) NW 316 2 min 0,000 mm 1,2 UV-I 460 W/m 1,5 C 7,2 C 1,6 km/h (1 Bft) 100,00 %
16.02.2017 13:22 7,3 C 68 % 1032,1 hPa 0,0 l/m 0,7 km/h (0 Bft) NW 316 2 min 0,000 mm 1,2 UV-I 474 W/m 1,8 C 7,3 C 3,2 km/h (1 Bft) 96,00 %
16.02.2017 13:24 7,3 C 67 % 1032,1 hPa 0,0 l/m 1,4 km/h (1 Bft) N-NW 335 2 min 0,000 mm 1,2 UV-I 473 W/m 1,6 C 7,3 C 3,2 km/h (1 Bft) 100,00 %
16.02.2017 13:26 7,3 C 69 % 1032,0 hPa 0,0 l/m 1,2 km/h (1 Bft) N-NW 342 2 min 0,000 mm 1,2 UV-I 470 W/m 2,0 C 7,3 C 4,8 km/h (1 Bft) 98,00 %
16.02.2017 13:28 7,3 C 66 % 1032,0 hPa 0,0 l/m 1,5 km/h (1 Bft) N-NW 342 2 min 0,000 mm 1,2 UV-I 470 W/m 1,4 C 7,3 C 4,8 km/h (1 Bft) 100,00 %
16.02.2017 13:30 7,3 C 66 % 1032,0 hPa 0,0 l/m 0,8 km/h (0 Bft) N-NW 342 2 min 0,000 mm 1,1 UV-I 457 W/m 1,4 C 7,3 C 3,2 km/h (1 Bft) 100,00 %
16.02.2017 13:32 7,2 C 67 % 1031,9 hPa 0,0 l/m 0,7 km/h (0 Bft) N-NW 342 2 min 0,000 mm 1,1 UV-I 464 W/m 1,5 C 7,2 C 3,2 km/h (1 Bft) 98,11 %
16.02.2017 13:34 7,3 C 66 % 1032,0 hPa 0,0 l/m 1,1 km/h (1 Bft) N-NW 342 2 min 0,000 mm 1,1 UV-I 460 W/m 1,4 C 7,3 C 3,2 km/h (1 Bft) 93,62 %
16.02.2017 13:36 7,6 C 66 % 1031,9 hPa 0,0 l/m 1,3 km/h (1 Bft) N-NW 342 2 min 0,000 mm 1,1 UV-I 458 W/m 1,7 C 7,6 C 3,2 km/h (1 Bft) 97,96 %
16.02.2017 13:38 7,7 C 64 % 1031,9 hPa 0,0 l/m 0,3 km/h (0 Bft) N-NW 342 2 min 0,000 mm 1,1 UV-I 456 W/m 1,3 C 7,7 C 1,6 km/h (1 Bft) 97,87 %
16.02.2017 13:40 7,8 C 65 % 1031,9 hPa 0,0 l/m 1,3 km/h (1 Bft) N-NW 342 2 min 0,000 mm 1,1 UV-I 433 W/m 1,6 C 7,8 C 3,2 km/h (1 Bft) 98,00 %
16.02.2017 13:42 7,7 C 66 % 1031,9 hPa 0,0 l/m 1,8 km/h (1 Bft) N-NW 342 2 min 0,000 mm 1,1 UV-I 448 W/m 1,8 C 7,7 C 3,2 km/h (1 Bft) 97,37 %
16.02.2017 13:44 7,7 C 67 % 1031,8 hPa 0,0 l/m 1,7 km/h (1 Bft) N-NW 342 2 min 0,000 mm 1,1 UV-I 445 W/m 2,0 C 7,7 C 4,8 km/h (1 Bft) 93,62 %
16.02.2017 13:46 7,8 C 65 % 1031,8 hPa 0,0 l/m 0,7 km/h (0 Bft) N-NW 342 2 min 0,000 mm 1,0 UV-I 442 W/m 1,6 C 7,8 C 3,2 km/h (1 Bft) 96,23 %
16.02.2017 13:48 7,7 C 65 % 1031,7 hPa 0,0 l/m 0,6 km/h (0 Bft) N-NW 342 2 min 0,000 mm 1,0 UV-I 440 W/m 1,5 C 7,7 C 3,2 km/h (1 Bft) 97,87 %
16.02.2017 13:50 7,7 C 67 % 1031,7 hPa 0,0 l/m 0,1 km/h (0 Bft) N-NW 342 2 min 0,000 mm 1,0 UV-I 438 W/m 2,0 C 7,7 C 1,6 km/h (1 Bft) 98,00 %
16.02.2017 13:52 7,8 C 65 % 1031,7 hPa 0,0 l/m 0,4 km/h (0 Bft) N-NW 342 2 min 0,000 mm 1,0 UV-I 435 W/m 1,6 C 7,8 C 1,6 km/h (1 Bft) 89,47 %
16.02.2017 13:54 7,9 C 65 % 1031,6 hPa 0,0 l/m 0,7 km/h (0 Bft) N-NW 342 2 min 0,000 mm 1,0 UV-I 430 W/m 1,7 C 7,9 C 3,2 km/h (1 Bft) 98,00 %
16.02.2017 13:56 8,1 C 65 % 1031,6 hPa 0,0 l/m 1,3 km/h (1 Bft) N-NW 342 2 min 0,000 mm 1,0 UV-I 426 W/m 1,9 C 8,1 C 3,2 km/h (1 Bft) 90,48 %
16.02.2017 13:58 8,1 C 64 % 1031,6 hPa 0,0 l/m 0,7 km/h (0 Bft) N-NW 342 2 min 0,000 mm 1,0 UV-I 423 W/m 1,7 C 8,1 C 1,6 km/h (1 Bft) 92,73 %
16.02.2017 14:00 8,1 C 64 % 1031,6 hPa 0,0 l/m 1,0 km/h (0 Bft) N-NW 342 2 min 0,203 mm 1,0 UV-I 419 W/m 1,7 C 8,1 C 3,2 km/h (1 Bft) 94,87 %
16.02.2017 14:02 8,2 C 64 % 1031,5 hPa 0,0 l/m 1,5 km/h (1 Bft) N-NW 342 2 min 0,000 mm 1,0 UV-I 418 W/m 1,8 C 8,2 C 3,2 km/h (1 Bft) 94,00 %
16.02.2017 14:04 8,2 C 64 % 1031,5 hPa 0,0 l/m 2,0 km/h (1 Bft) N-NW 341 2 min 0,000 mm 1,0 UV-I 416 W/m 1,8 C 8,2 C 3,2 km/h (1 Bft) 97,87 %
16.02.2017 14:06 8,2 C 64 % 1031,5 hPa 0,0 l/m 0,9 km/h (0 Bft) N-NW 341 2 min 0,000 mm 0,9 UV-I 414 W/m 1,8 C 8,2 C 3,2 km/h (1 Bft) 95,74 %
16.02.2017 14:08 8,2 C 64 % 1031,5 hPa 0,0 l/m 0,3 km/h (0 Bft) N-NW 341 2 min 0,000 mm 0,9 UV-I 410 W/m 1,8 C 8,2 C 1,6 km/h (1 Bft) 96,00 %
16.02.2017 14:10 8,2 C 64 % 1031,4 hPa 0,0 l/m 1,0 km/h (0 Bft) N-NW 341 2 min 0,000 mm 0,9 UV-I 407 W/m 1,8 C 8,2 C 3,2 km/h (1 Bft) 96,15 %
16.02.2017 14:12 8,2 C 64 % 1031,4 hPa 0,0 l/m 2,6 km/h (1 Bft) N-NW 333 2 min 0,000 mm 0,9 UV-I 404 W/m 1,8 C 8,2 C 4,8 km/h (1 Bft) 98,46 %
16.02.2017 14:14 8,2 C 64 % 1031,4 hPa 0,0 l/m 2,2 km/h (1 Bft) NW 326 2 min 0,000 mm 0,9 UV-I 399 W/m 1,8 C 8,2 C 4,8 km/h (1 Bft) 100,00 %
16.02.2017 14:16 8,2 C 64 % 1031,4 hPa 0,0 l/m 0,7 km/h (0 Bft) NW 326 2 min 0,000 mm 0,9 UV-I 397 W/m 1,8 C 8,2 C 3,2 km/h (1 Bft) 98,00 %
16.02.2017 14:18 8,2 C 66 % 1031,3 hPa 0,0 l/m 0,8 km/h (0 Bft) NW 326 2 min 0,000 mm 0,9 UV-I 393 W/m 2,2 C 8,2 C 1,6 km/h (1 Bft) 97,87 %
16.02.2017 14:20 8,3 C 64 % 1031,3 hPa 0,0 l/m 1,5 km/h (1 Bft) NW 326 2 min 0,000 mm 0,8 UV-I 388 W/m 1,9 C 8,3 C 3,2 km/h (1 Bft) 95,12 %
16.02.2017 14:22 8,3 C 63 % 1031,3 hPa 0,0 l/m 0,1 km/h (0 Bft) NW 326 2 min 0,000 mm 0,8 UV-I 384 W/m 1,7 C 8,3 C 1,6 km/h (1 Bft) 96,00 %
16.02.2017 14:24 8,4 C 64 % 1031,3 hPa 0,0 l/m 2,3 km/h (1 Bft) NW 325 2 min 0,000 mm 0,8 UV-I 381 W/m 2,0 C 8,4 C 4,8 km/h (1 Bft) 97,87 %
16.02.2017 14:26 8,4 C 64 % 1031,2 hPa 0,0 l/m 0,5 km/h (0 Bft) NW 325 2 min 0,000 mm 0,8 UV-I 378 W/m 2,0 C 8,4 C 1,6 km/h (1 Bft) 100,00 %
16.02.2017 14:28 8,4 C 63 % 1031,2 hPa 0,0 l/m 0,2 km/h (0 Bft) NW 325 2 min 0,000 mm 0,8 UV-I 374 W/m 1,8 C 8,4 C 1,6 km/h (1 Bft) 96,23 %
16.02.2017 14:30 8,4 C 63 % 1031,2 hPa 0,0 l/m 0,3 km/h (0 Bft) NW 325 2 min 0,000 mm 0,8 UV-I 371 W/m 1,8 C 8,4 C 1,6 km/h (1 Bft) 96,00 %
16.02.2017 14:32 8,4 C 65 % 1031,2 hPa 0,0 l/m 0,0 km/h (0 Bft) NW 325 2 min 0,000 mm 0,8 UV-I 367 W/m 2,2 C 8,4 C 1,6 km/h (1 Bft) 98,11 %
16.02.2017 14:34 8,5 C 64 % 1031,2 hPa 0,0 l/m 0,1 km/h (0 Bft) NW 325 2 min 0,000 mm 0,8 UV-I 363 W/m 2,1 C 8,5 C 1,6 km/h (1 Bft) 95,74 %
16.02.2017 14:36 8,6 C 63 % 1031,1 hPa 0,0 l/m 0,8 km/h (0 Bft) NW 325 2 min 0,000 mm 0,7 UV-I 358 W/m 2,0 C 8,6 C 3,2 km/h (1 Bft) 97,44 %
16.02.2017 14:38 8,6 C 63 % 1031,1 hPa 0,0 l/m 1,9 km/h (1 Bft) NW 325 2 min 0,000 mm 0,7 UV-I 354 W/m 2,0 C 8,6 C 3,2 km/h (1 Bft) 98,00 %
16.02.2017 14:40 8,6 C 63 % 1031,1 hPa 0,0 l/m 0,4 km/h (0 Bft) NW 325 2 min 0,000 mm 0,7 UV-I 351 W/m 2,0 C 8,6 C 1,6 km/h (1 Bft) 97,56 %
16.02.2017 14:42 8,6 C 63 % 1031,2 hPa 0,0 l/m 0,0 km/h (0 Bft) NW 325 2 min 0,000 mm 0,7 UV-I 346 W/m 2,0 C 8,6 C 1,6 km/h (1 Bft) 98,11 %
16.02.2017 14:44 8,7 C 63 % 1031,1 hPa 0,0 l/m 0,8 km/h (0 Bft) NW 325 2 min 0,000 mm 0,7 UV-I 341 W/m 2,1 C 8,7 C 3,2 km/h (1 Bft) 100,00 %
16.02.2017 14:46 8,7 C 62 % 1031,1 hPa 0,0 l/m 0,4 km/h (0 Bft) NW 325 2 min 0,000 mm 0,7 UV-I 337 W/m 1,8 C 8,7 C 1,6 km/h (1 Bft) 98,18 %
16.02.2017 14:48 8,7 C 64 % 1031,0 hPa 0,0 l/m 0,8 km/h (0 Bft) NW 325 2 min 0,000 mm 0,7 UV-I 333 W/m 2,3 C 8,7 C 1,6 km/h (1 Bft) 97,87 %
16.02.2017 14:50 8,7 C 63 % 1031,0 hPa 0,0 l/m 0,8 km/h (0 Bft) NW 325 2 min 0,000 mm 0,6 UV-I 330 W/m 2,1 C 8,7 C 3,2 km/h (1 Bft) 100,00 %
16.02.2017 14:52 8,7 C 62 % 1031,0 hPa 0,0 l/m 0,2 km/h (0 Bft) NW 325 2 min 0,000 mm 0,6 UV-I 325 W/m 1,8 C 8,7 C 1,6 km/h (1 Bft) 100,00 %
16.02.2017 14:54 8,8 C 63 % 1030,9 hPa 0,0 l/m 0,6 km/h (0 Bft) NW 325 2 min 0,000 mm 0,6 UV-I 322 W/m 2,2 C 8,8 C 3,2 km/h (1 Bft) 97,87 %
16.02.2017 14:56 8,8 C 63 % 1030,9 hPa 0,0 l/m 0,9 km/h (0 Bft) NW 325 2 min 0,000 mm 0,6 UV-I 316 W/m 2,2 C 8,8 C 1,6 km/h (1 Bft) 100,00 %
16.02.2017 14:58 8,7 C 65 % 1030,8 hPa 0,0 l/m 1,2 km/h (1 Bft) NW 325 2 min 0,000 mm 0,6 UV-I 312 W/m 2,5 C 8,7 C 3,2 km/h (1 Bft) 100,00 %
16.02.2017 15:00 8,6 C 63 % 1030,8 hPa 0,0 l/m 1,2 km/h (1 Bft) NW 325 2 min 0,178 mm 0,6 UV-I 310 W/m 2,0 C 8,6 C 1,6 km/h (1 Bft) 100,00 %
16.02.2017 15:02 8,5 C 63 % 1030,8 hPa 0,0 l/m 0,2 km/h (0 Bft) NW 325 2 min 0,000 mm 0,6 UV-I 306 W/m 1,9 C 8,5 C 1,6 km/h (1 Bft) 97,87 %
16.02.2017 15:04 8,6 C 64 % 1030,8 hPa 0,0 l/m 1,0 km/h (0 Bft) NW 325 2 min 0,000 mm 0,5 UV-I 298 W/m 2,2 C 8,6 C 3,2 km/h (1 Bft) 100,00 %
16.02.2017 15:06 8,7 C 63 % 1030,8 hPa 0,0 l/m 1,8 km/h (1 Bft) NW 325 2 min 0,000 mm 0,5 UV-I 294 W/m 2,1 C 8,7 C 3,2 km/h (1 Bft) 100,00 %
16.02.2017 15:08 8,7 C 63 % 1030,8 hPa 0,0 l/m 1,2 km/h (1 Bft) NW 325 2 min 0,000 mm 0,5 UV-I 290 W/m 2,1 C 8,7 C 3,2 km/h (1 Bft) 97,14 %
16.02.2017 15:10 8,7 C 62 % 1030,7 hPa 0,0 l/m 0,2 km/h (0 Bft) NW 325 2 min 0,000 mm 0,5 UV-I 286 W/m 1,8 C 8,7 C 1,6 km/h (1 Bft) 100,00 %
16.02.2017 15:12 8,7 C 63 % 1030,8 hPa 0,0 l/m 0,0 km/h (0 Bft) NW 325 2 min 0,000 mm 0,5 UV-I 281 W/m 2,1 C 8,7 C 1,6 km/h (1 Bft) 100,00 %
16.02.2017 15:14 8,7 C 64 % 1030,7 hPa 0,0 l/m 0,4 km/h (0 Bft) NW 325 2 min 0,000 mm 0,5 UV-I 277 W/m 2,3 C 8,7 C 1,6 km/h (1 Bft) 95,74 %
16.02.2017 15:16 8,7 C 63 % 1030,7 hPa 0,0 l/m 0,7 km/h (0 Bft) NW 325 2 min 0,000 mm 0,5 UV-I 271 W/m 2,1 C 8,7 C 1,6 km/h (1 Bft) 100,00 %
16.02.2017 15:18 8,6 C 63 % 1030,7 hPa 0,0 l/m 1,6 km/h (1 Bft) NW 325 2 min 0,000 mm 0,4 UV-I 269 W/m 2,0 C 8,6 C 3,2 km/h (1 Bft) 97,87 %
16.02.2017 15:20 8,7 C 64 % 1030,6 hPa 0,0 l/m 2,9 km/h (1 Bft) NW 325 2 min 0,000 mm 0,0 UV-I 263 W/m 2,3 C 8,7 C 3,2 km/h (1 Bft) 100,00 %
16.02.2017 15:22 8,7 C 64 % 1030,6 hPa 0,0 l/m 2,3 km/h (1 Bft) NW 325 2 min 0,000 mm 0,0 UV-I 257 W/m 2,3 C 8,7 C 3,2 km/h (1 Bft) 98,11 %
16.02.2017 15:24 8,7 C 64 % 1030,6 hPa 0,0 l/m 2,5 km/h (1 Bft) NW 325 2 min 0,000 mm 0,0 UV-I 253 W/m 2,3 C 8,7 C 3,2 km/h (1 Bft) 100,00 %
16.02.2017 15:26 8,7 C 64 % 1030,6 hPa 0,0 l/m 1,8 km/h (1 Bft) NW 325 2 min 0,000 mm 0,0 UV-I 248 W/m 2,3 C 8,7 C 3,2 km/h (1 Bft) 100,00 %
16.02.2017 15:28 8,7 C 64 % 1030,6 hPa 0,0 l/m 2,6 km/h (1 Bft) N-NW 328 2 min 0,000 mm 0,0 UV-I 243 W/m 2,3 C 8,7 C 4,8 km/h (1 Bft) 100,00 %
16.02.2017 15:30 8,6 C 64 % 1030,6 hPa 0,0 l/m 3,0 km/h (1 Bft) N-NW 329 2 min 0,000 mm 0,0 UV-I 239 W/m 2,2 C 8,6 C 4,8 km/h (1 Bft) 100,00 %
16.02.2017 15:32 8,6 C 64 % 1030,5 hPa 0,0 l/m 2,5 km/h (1 Bft) N-NW 329 2 min 0,000 mm 0,0 UV-I 235 W/m 2,2 C 8,6 C 3,2 km/h (1 Bft) 100,00 %
16.02.2017 15:34 8,6 C 65 % 1030,4 hPa 0,0 l/m 3,0 km/h (1 Bft) N-NW 331 2 min 0,000 mm 0,0 UV-I 229 W/m 2,4 C 8,6 C 4,8 km/h (1 Bft) 100,00 %
16.02.2017 15:36 8,5 C 65 % 1030,4 hPa 0,0 l/m 3,0 km/h (1 Bft) N-NW 331 2 min 0,000 mm 0,0 UV-I 223 W/m 2,3 C 8,5 C 4,8 km/h (1 Bft) 100,00 %
16.02.2017 15:38 8,4 C 65 % 1030,3 hPa 0,0 l/m 2,6 km/h (1 Bft) N-NW 331 2 min 0,000 mm 0,0 UV-I 219 W/m 2,2 C 8,4 C 4,8 km/h (1 Bft) 100,00 %
16.02.2017 15:40 8,4 C 65 % 1030,4 hPa 0,0 l/m 2,3 km/h (1 Bft) N-NW 331 2 min 0,000 mm 0,0 UV-I 213 W/m 2,2 C 8,4 C 3,2 km/h (1 Bft) 100,00 %
16.02.2017 15:42 8,4 C 65 % 1030,3 hPa 0,0 l/m 3,0 km/h (1 Bft) N-NW 331 2 min 0,000 mm 0,0 UV-I 209 W/m 2,2 C 8,4 C 4,8 km/h (1 Bft) 97,87 %
16.02.2017 15:44 8,4 C 65 % 1030,4 hPa 0,0 l/m 1,8 km/h (1 Bft) N-NW 331 2 min 0,000 mm 0,0 UV-I 203 W/m 2,2 C 8,4 C 3,2 km/h (1 Bft) 97,87 %
16.02.2017 15:46 8,4 C 65 % 1030,3 hPa 0,0 l/m 1,4 km/h (1 Bft) N-NW 331 2 min 0,000 mm 0,0 UV-I 199 W/m 2,2 C 8,4 C 3,2 km/h (1 Bft) 97,14 %
16.02.2017 15:48 8,4 C 64 % 1030,3 hPa 0,0 l/m 1,3 km/h (1 Bft) N-NW 331 2 min 0,000 mm 0,0 UV-I 193 W/m 2,0 C 8,4 C 1,6 km/h (1 Bft) 96,43 %
16.02.2017 15:50 8,4 C 65 % 1030,3 hPa 0,0 l/m 0,1 km/h (0 Bft) N-NW 331 2 min 0,000 mm 0,0 UV-I 190 W/m 2,2 C 8,4 C 1,6 km/h (1 Bft) 98,11 %
16.02.2017 15:52 8,4 C 65 % 1030,3 hPa 0,0 l/m 1,8 km/h (1 Bft) N-NW 331 2 min 0,000 mm 0,0 UV-I 185 W/m 2,2 C 8,4 C 3,2 km/h (1 Bft) 97,37 %
16.02.2017 15:54 8,4 C 65 % 1030,2 hPa 0,0 l/m 2,0 km/h (1 Bft) N-NW 331 2 min 0,000 mm 0,0 UV-I 181 W/m 2,2 C 8,4 C 3,2 km/h (1 Bft) 98,00 %
16.02.2017 15:56 8,5 C 64 % 1030,2 hPa 0,0 l/m 0,7 km/h (0 Bft) N-NW 331 2 min 0,000 mm 0,0 UV-I 176 W/m 2,1 C 8,5 C 3,2 km/h (1 Bft) 95,83 %
16.02.2017 15:58 8,4 C 64 % 1030,2 hPa 0,0 l/m 0,5 km/h (0 Bft) N-NW 331 2 min 0,000 mm 0,0 UV-I 171 W/m 2,0 C 8,4 C 3,2 km/h (1 Bft) 93,62 %
16.02.2017 16:00 8,4 C 65 % 1030,2 hPa 0,0 l/m 1,8 km/h (1 Bft) N-NW 331 2 min 0,000 mm 0,0 UV-I 166 W/m 2,2 C 8,4 C 3,2 km/h (1 Bft) 97,56 %
16.02.2017 16:02 8,5 C 64 % 1030,2 hPa 0,0 l/m 1,6 km/h (1 Bft) N-NW 331 2 min 0,102 mm 0,0 UV-I 161 W/m 2,1 C 8,5 C 3,2 km/h (1 Bft) 96,00 %
16.02.2017 16:04 8,5 C 64 % 1030,1 hPa 0,0 l/m 2,2 km/h (1 Bft) N-NW 331 2 min 0,000 mm 0,0 UV-I 156 W/m 2,1 C 8,5 C 4,8 km/h (1 Bft) 94,00 %
16.02.2017 16:06 8,3 C 65 % 1030,2 hPa 0,0 l/m 2,0 km/h (1 Bft) N-NW 331 2 min 0,000 mm 0,0 UV-I 153 W/m 2,1 C 8,3 C 3,2 km/h (1 Bft) 95,12 %
16.02.2017 16:08 8,3 C 65 % 1030,1 hPa 0,0 l/m 2,5 km/h (1 Bft) N-NW 331 2 min 0,000 mm 0,0 UV-I 149 W/m 2,1 C 8,3 C 3,2 km/h (1 Bft) 92,00 %
16.02.2017 16:10 8,3 C 65 % 1030,2 hPa 0,0 l/m 1,7 km/h (1 Bft) N-NW 331 2 min 0,000 mm 0,0 UV-I 144 W/m 2,1 C 8,3 C 3,2 km/h (1 Bft) 96,00 %
16.02.2017 16:12 8,4 C 64 % 1030,2 hPa 0,0 l/m 1,2 km/h (1 Bft) N-NW 331 2 min 0,000 mm 0,0 UV-I 140 W/m 2,0 C 8,4 C 3,2 km/h (1 Bft) 96,00 %
16.02.2017 16:14 8,4 C 65 % 1030,2 hPa 0,0 l/m 0,1 km/h (0 Bft) N-NW 331 2 min 0,000 mm 0,0 UV-I 136 W/m 2,2 C 8,4 C 1,6 km/h (1 Bft) 91,49 %
16.02.2017 16:16 8,4 C 64 % 1030,1 hPa 0,0 l/m 0,7 km/h (0 Bft) N-NW 331 2 min 0,000 mm 0,0 UV-I 134 W/m 2,0 C 8,4 C 1,6 km/h (1 Bft) 94,74 %
16.02.2017 16:18 8,3 C 65 % 1030,1 hPa 0,0 l/m 0,9 km/h (0 Bft) N-NW 331 2 min 0,000 mm 0,0 UV-I 100 W/m 2,1 C 8,3 C 1,6 km/h (1 Bft) 94,34 %
16.02.2017 16:20 8,2 C 65 % 1030,2 hPa 0,0 l/m 1,5 km/h (1 Bft) N-NW 331 0 min 0,000 mm 0,0 UV-I 48 W/m 2,0 C 8,2 C 1,6 km/h (1 Bft) 92,00 %
16.02.2017 16:22 8,1 C 66 % 1030,1 hPa 0,0 l/m 1,4 km/h (1 Bft) N-NW 331 0 min 0,000 mm 0,0 UV-I 40 W/m 2,1 C 8,1 C 3,2 km/h (1 Bft) 94,74 %
16.02.2017 16:24 8,0 C 66 % 1030,1 hPa 0,0 l/m 0,7 km/h (0 Bft) N-NW 331 0 min 0,000 mm 0,0 UV-I 37 W/m 2,0 C 8,0 C 1,6 km/h (1 Bft) 95,12 %
16.02.2017 16:26 7,7 C 67 % 1030,0 hPa 0,0 l/m 0,0 km/h (0 Bft) N-NW 331 0 min 0,000 mm 0,0 UV-I 35 W/m 2,0 C 7,7 C 0,0 km/h (0 Bft) 94,55 %
16.02.2017 16:28 7,4 C 68 % 1030,0 hPa 0,0 l/m 0,0 km/h (0 Bft) N-NW 331 0 min 0,000 mm 0,0 UV-I 35 W/m 1,9 C 7,4 C 0,0 km/h (0 Bft) 95,74 %
16.02.2017 16:30 7,2 C 69 % 1030,0 hPa 0,0 l/m 0,2 km/h (0 Bft) N-NW 331 0 min 0,000 mm 0,0 UV-I 33 W/m 1,9 C 7,2 C 1,6 km/h (1 Bft) 94,00 %
16.02.2017 16:32 6,9 C 70 % 1030,0 hPa 0,0 l/m 0,0 km/h (0 Bft) N-NW 331 0 min 0,000 mm 0,0 UV-I 33 W/m 1,8 C 6,9 C 0,0 km/h (0 Bft) 93,62 %
16.02.2017 16:34 6,7 C 70 % 1029,9 hPa 0,0 l/m 0,0 km/h (0 Bft) N-NW 331 0 min 0,000 mm 0,0 UV-I 34 W/m 1,6 C 6,7 C 0,0 km/h (0 Bft) 90,00 %
16.02.2017 16:36 6,5 C 71 % 1029,9 hPa 0,0 l/m 1,4 km/h (1 Bft) N-NW 331 0 min 0,000 mm 0,0 UV-I 38 W/m 1,6 C 6,5 C 3,2 km/h (1 Bft) 94,44 %
16.02.2017 16:38 6,4 C 72 % 1029,9 hPa 0,0 l/m 2,3 km/h (1 Bft) N-NW 331 0 min 0,000 mm 0,0 UV-I 46 W/m 1,7 C 6,4 C 4,8 km/h (1 Bft) 95,74 %
16.02.2017 16:40 6,3 C 72 % 1029,9 hPa 0,0 l/m 2,9 km/h (1 Bft) N-NW 331 0 min 0,000 mm 0,0 UV-I 56 W/m 1,6 C 6,3 C 3,2 km/h (1 Bft) 94,74 %
16.02.2017 16:42 6,2 C 73 % 1029,8 hPa 0,0 l/m 3,2 km/h (1 Bft) N-NW 331 2 min 0,000 mm 0,0 UV-I 82 W/m 1,7 C 6,2 C 4,8 km/h (1 Bft) 91,94 %
16.02.2017 16:44 5,9 C 74 % 1029,9 hPa 0,0 l/m 3,2 km/h (1 Bft) N-NW 331 2 min 0,000 mm 0,0 UV-I 90 W/m 1,6 C 5,9 C 4,8 km/h (1 Bft) 90,00 %
16.02.2017 16:46 6,0 C 75 % 1029,8 hPa 0,0 l/m 2,2 km/h (1 Bft) N-NW 331 2 min 0,000 mm 0,0 UV-I 85 W/m 1,9 C 6,0 C 3,2 km/h (1 Bft) 93,18 %
16.02.2017 16:48 6,1 C 75 % 1029,9 hPa 0,0 l/m 0,7 km/h (0 Bft) N-NW 331 2 min 0,000 mm 0,0 UV-I 80 W/m 2,0 C 6,1 C 1,6 km/h (1 Bft) 95,12 %
16.02.2017 16:50 6,4 C 74 % 1029,8 hPa 0,0 l/m 0,1 km/h (0 Bft) N-NW 331 2 min 0,000 mm 0,0 UV-I 75 W/m 2,1 C 6,4 C 1,6 km/h (1 Bft) 94,00 %
16.02.2017 16:52 6,3 C 74 % 1029,8 hPa 0,0 l/m 0,2 km/h (0 Bft) N-NW 331 2 min 0,000 mm 0,0 UV-I 69 W/m 2,0 C 6,3 C 1,6 km/h (1 Bft) 94,34 %
16.02.2017 16:54 6,3 C 74 % 1029,8 hPa 0,0 l/m 1,2 km/h (1 Bft) N-NW 331 2 min 0,000 mm 0,0 UV-I 64 W/m 2,0 C 6,3 C 3,2 km/h (1 Bft) 95,12 %
16.02.2017 16:56 6,4 C 74 % 1029,8 hPa 0,0 l/m 1,1 km/h (1 Bft) N-NW 331 2 min 0,000 mm 0,0 UV-I 57 W/m 2,1 C 6,4 C 1,6 km/h (1 Bft) 96,00 %
16.02.2017 16:58 6,3 C 74 % 1029,8 hPa 0,0 l/m 1,4 km/h (1 Bft) N-NW 331 2 min 0,000 mm 0,0 UV-I 53 W/m 2,0 C 6,3 C 3,2 km/h (1 Bft) 93,62 %
16.02.2017 17:00 6,1 C 75 % 1029,8 hPa 0,0 l/m 1,5 km/h (1 Bft) N-NW 331 2 min 0,051 mm 0,0 UV-I 47 W/m 2,0 C 6,1 C 3,2 km/h (1 Bft) 95,12 %
16.02.2017 17:02 5,9 C 75 % 1029,8 hPa 0,0 l/m 0,8 km/h (0 Bft) N-NW 331 2 min 0,000 mm 0,0 UV-I 43 W/m 1,8 C 5,9 C 3,2 km/h (1 Bft) 95,74 %
16.02.2017 17:04 5,7 C 75 % 1029,8 hPa 0,0 l/m 0,3 km/h (0 Bft) N-NW 331 2 min 0,000 mm 0,0 UV-I 39 W/m 1,6 C 5,7 C 1,6 km/h (1 Bft) 92,00 %
16.02.2017 17:06 5,5 C 76 % 1029,8 hPa 0,0 l/m 0,5 km/h (0 Bft) N-NW 331 2 min 0,000 mm 0,0 UV-I 35 W/m 1,6 C 5,5 C 1,6 km/h (1 Bft) 94,74 %
16.02.2017 17:08 5,2 C 77 % 1029,8 hPa 0,0 l/m 0,1 km/h (0 Bft) N-NW 331 2 min 0,000 mm 0,0 UV-I 31 W/m 1,5 C 5,2 C 1,6 km/h (1 Bft) 94,34 %
16.02.2017 17:10 5,2 C 77 % 1029,8 hPa 0,0 l/m 0,6 km/h (0 Bft) N-NW 331 2 min 0,000 mm 0,0 UV-I 27 W/m 1,5 C 5,2 C 1,6 km/h (1 Bft) 94,00 %
16.02.2017 17:12 5,4 C 77 % 1029,8 hPa 0,0 l/m 1,2 km/h (1 Bft) N-NW 331 2 min 0,000 mm 0,0 UV-I 24 W/m 1,7 C 5,4 C 1,6 km/h (1 Bft) 96,08 %
16.02.2017 17:14 5,7 C 76 % 1029,8 hPa 0,0 l/m 1,7 km/h (1 Bft) N-NW 331 2 min 0,000 mm 0,0 UV-I 22 W/m 1,8 C 5,7 C 3,2 km/h (1 Bft) 94,44 %
16.02.2017 17:16 5,6 C 76 % 1029,8 hPa 0,0 l/m 1,0 km/h (0 Bft) N-NW 331 2 min 0,000 mm 0,0 UV-I 19 W/m 1,7 C 5,6 C 3,2 km/h (1 Bft) 96,23 %
16.02.2017 17:18 5,3 C 76 % 1029,8 hPa 0,0 l/m 1,0 km/h (0 Bft) N-NW 331 0 min 0,000 mm 0,0 UV-I 17 W/m 1,4 C 5,3 C 1,6 km/h (1 Bft) 96,00 %
16.02.2017 17:20 5,2 C 77 % 1029,8 hPa 0,0 l/m 0,7 km/h (0 Bft) N-NW 331 0 min 0,000 mm 0,0 UV-I 14 W/m 1,5 C 5,2 C 1,6 km/h (1 Bft) 95,12 %
16.02.2017 17:22 4,9 C 77 % 1029,9 hPa 0,0 l/m 0,3 km/h (0 Bft) N-NW 331 0 min 0,000 mm 0,0 UV-I 12 W/m 1,2 C 4,9 C 1,6 km/h (1 Bft) 92,16 %
16.02.2017 17:24 4,7 C 78 % 1029,8 hPa 0,0 l/m 0,0 km/h (0 Bft) N-NW 331 0 min 0,000 mm 0,0 UV-I 11 W/m 1,2 C 4,7 C 0,0 km/h (0 Bft) 94,00 %
16.02.2017 17:26 4,6 C 79 % 1029,9 hPa 0,0 l/m 0,9 km/h (0 Bft) N-NW 331 0 min 0,000 mm 0,0 UV-I 10 W/m 1,3 C 4,6 C 1,6 km/h (1 Bft) 94,74 %
16.02.2017 17:28 4,5 C 79 % 1029,8 hPa 0,0 l/m 1,1 km/h (1 Bft) N-NW 331 0 min 0,000 mm 0,0 UV-I 9 W/m 1,2 C 4,5 C 1,6 km/h (1 Bft) 96,00 %
16.02.2017 17:30 4,7 C 79 % 1029,8 hPa 0,0 l/m 0,1 km/h (0 Bft) N-NW 331 0 min 0,000 mm 0,0 UV-I 7 W/m 1,4 C 4,7 C 1,6 km/h (1 Bft) 97,87 %
16.02.2017 17:32 4,8 C 78 % 1029,7 hPa 0,0 l/m 0,0 km/h (0 Bft) N-NW 331 0 min 0,000 mm 0,0 UV-I 7 W/m 1,3 C 4,8 C 1,6 km/h (1 Bft) 92,00 %
16.02.2017 17:34 4,7 C 78 % 1029,7 hPa 0,0 l/m 0,0 km/h (0 Bft) N-NW 331 0 min 0,000 mm 0,0 UV-I 6 W/m 1,2 C 4,7 C 0,0 km/h (0 Bft) 90,00 %
16.02.2017 17:36 4,7 C 78 % 1029,7 hPa 0,0 l/m 0,1 km/h (0 Bft) N-NW 331 0 min 0,000 mm 0,0 UV-I 5 W/m 1,2 C 4,7 C 1,6 km/h (1 Bft) 97,14 %
16.02.2017 17:38 4,6 C 78 % 1029,7 hPa 0,0 l/m 0,0 km/h (0 Bft) N-NW 331 0 min 0,000 mm 0,0 UV-I 5 W/m 1,1 C 4,6 C 1,6 km/h (1 Bft) 100,00 %
16.02.2017 17:40 4,3 C 78 % 1029,7 hPa 0,0 l/m 0,0 km/h (0 Bft) N-NW 331 0 min 0,000 mm 0,0 UV-I 5 W/m 0,8 C 4,3 C 0,0 km/h (0 Bft) 90,32 %
16.02.2017 17:42 4,0 C 79 % 1029,7 hPa 0,0 l/m 0,0 km/h (0 Bft) N-NW 331 0 min 0,000 mm 0,0 UV-I 3 W/m 0,7 C 4,0 C 0,0 km/h (0 Bft) 96,00 %
16.02.2017 17:44 3,9 C 80 % 1029,7 hPa 0,0 l/m 0,0 km/h (0 Bft) N-NW 331 0 min 0,000 mm 0,0 UV-I 0 W/m 0,8 C 3,9 C 0,0 km/h (0 Bft) 91,49 %
16.02.2017 17:46 3,8 C 81 % 1029,7 hPa 0,0 l/m 0,5 km/h (0 Bft) N-NW 331 0 min 0,000 mm 0,0 UV-I 0 W/m 0,8 C 3,8 C 1,6 km/h (1 Bft) 95,74 %
16.02.2017 17:48 3,9 C 81 % 1029,7 hPa 0,0 l/m 0,9 km/h (0 Bft) N-NW 331 0 min 0,000 mm 0,0 UV-I 0 W/m 0,9 C 3,9 C 3,2 km/h (1 Bft) 87,80 %
16.02.2017 17:50 3,9 C 80 % 1029,7 hPa 0,0 l/m 2,5 km/h (1 Bft) N-NW 331 0 min 0,000 mm 0,0 UV-I 0 W/m 0,8 C 3,9 C 3,2 km/h (1 Bft) 94,55 %
16.02.2017 17:52 3,9 C 81 % 1029,7 hPa 0,0 l/m 1,6 km/h (1 Bft) N-NW 331 0 min 0,000 mm 0,0 UV-I 0 W/m 0,9 C 3,9 C 3,2 km/h (1 Bft) 92,86 %
16.02.2017 17:54 3,9 C 80 % 1029,7 hPa 0,0 l/m 3,1 km/h (1 Bft) N-NW 331 0 min 0,000 mm 0,0 UV-I 0 W/m 0,8 C 3,9 C 4,8 km/h (1 Bft) 94,23 %
16.02.2017 17:56 3,9 C 80 % 1029,6 hPa 0,0 l/m 4,2 km/h (1 Bft) N-NW 331 0 min 0,000 mm 0,0 UV-I 0 W/m 0,8 C 3,9 C 4,8 km/h (1 Bft) 95,74 %
16.02.2017 17:58 3,9 C 81 % 1029,7 hPa 0,0 l/m 4,1 km/h (1 Bft) N-NW 329 0 min 0,000 mm 0,0 UV-I 0 W/m 0,9 C 3,9 C 4,8 km/h (1 Bft) 100,00 %
16.02.2017 18:00 3,9 C 81 % 1029,7 hPa 0,0 l/m 4,4 km/h (1 Bft) NW 304 0 min 0,000 mm 0,0 UV-I 0 W/m 0,9 C 3,9 C 6,4 km/h (2 Bft) 91,18 %
16.02.2017 18:02 3,9 C 81 % 1029,8 hPa 0,0 l/m 4,7 km/h (1 Bft) W-NW 302 0 min 0,000 mm 0,0 UV-I 0 W/m 0,9 C 3,9 C 4,8 km/h (1 Bft) 92,11 %
16.02.2017 18:04 3,9 C 81 % 1029,7 hPa 0,0 l/m 3,6 km/h (1 Bft) W-NW 302 0 min 0,000 mm 0,0 UV-I 0 W/m 0,9 C 3,9 C 4,8 km/h (1 Bft) 96,00 %
16.02.2017 18:06 3,9 C 81 % 1029,7 hPa 0,0 l/m 3,7 km/h (1 Bft) W-NW 302 0 min 0,000 mm 0,0 UV-I 0 W/m 0,9 C 3,9 C 4,8 km/h (1 Bft) 97,37 %
16.02.2017 18:08 3,9 C 81 % 1029,7 hPa 0,0 l/m 3,1 km/h (1 Bft) W-NW 302 0 min 0,000 mm 0,0 UV-I 0 W/m 0,9 C 3,9 C 3,2 km/h (1 Bft) 98,11 %
16.02.2017 18:10 3,9 C 81 % 1029,8 hPa 0,0 l/m 3,3 km/h (1 Bft) W-NW 302 0 min 0,000 mm 0,0 UV-I 0 W/m 0,9 C 3,9 C 4,8 km/h (1 Bft) 93,62 %
16.02.2017 18:12 3,8 C 81 % 1029,7 hPa 0,0 l/m 2,7 km/h (1 Bft) W-NW 302 0 min 0,000 mm 0,0 UV-I 0 W/m 0,8 C 3,8 C 4,8 km/h (1 Bft) 91,49 %
16.02.2017 18:14 3,8 C 81 % 1029,8 hPa 0,0 l/m 4,0 km/h (1 Bft) W-NW 302 0 min 0,000 mm 0,0 UV-I 0 W/m 0,8 C 3,8 C 4,8 km/h (1 Bft) 97,14 %
16.02.2017 18:16 3,7 C 81 % 1029,8 hPa 0,0 l/m 3,6 km/h (1 Bft) W-NW 302 0 min 0,000 mm 0,0 UV-I 0 W/m 0,7 C 3,7 C 4,8 km/h (1 Bft) 90,77 %
16.02.2017 18:18 3,7 C 81 % 1029,8 hPa 0,0 l/m 2,5 km/h (1 Bft) W-NW 302 0 min 0,000 mm 0,0 UV-I 0 W/m 0,7 C 3,7 C 4,8 km/h (1 Bft) 97,37 %
16.02.2017 18:20 3,7 C 81 % 1029,8 hPa 0,0 l/m 2,6 km/h (1 Bft) W-NW 302 0 min 0,000 mm 0,0 UV-I 0 W/m 0,7 C 3,7 C 4,8 km/h (1 Bft) 90,00 %
16.02.2017 18:22 3,6 C 81 % 1029,8 hPa 0,0 l/m 3,1 km/h (1 Bft) W-NW 302 0 min 0,000 mm 0,0 UV-I 0 W/m 0,7 C 3,6 C 4,8 km/h (1 Bft) 94,34 %
16.02.2017 18:24 3,6 C 82 % 1029,7 hPa 0,0 l/m 2,6 km/h (1 Bft) W-NW 302 0 min 0,000 mm 0,0 UV-I 0 W/m 0,8 C 3,6 C 3,2 km/h (1 Bft) 97,87 %
16.02.2017 18:26 3,5 C 82 % 1029,8 hPa 0,0 l/m 3,3 km/h (1 Bft) W-NW 302 0 min 0,000 mm 0,0 UV-I 0 W/m 0,7 C 3,5 C 4,8 km/h (1 Bft) 92,11 %
16.02.2017 18:28 3,4 C 82 % 1029,7 hPa 0,0 l/m 3,6 km/h (1 Bft) W-NW 302 0 min 0,000 mm 0,0 UV-I 0 W/m 0,6 C 3,4 C 4,8 km/h (1 Bft) 97,87 %
16.02.2017 18:30 3,4 C 82 % 1029,7 hPa 0,0 l/m 1,9 km/h (1 Bft) W-NW 302 0 min 0,000 mm 0,0 UV-I 0 W/m 0,6 C 3,4 C 3,2 km/h (1 Bft) 96,00 %
16.02.2017 18:32 3,4 C 82 % 1029,7 hPa 0,0 l/m 1,2 km/h (1 Bft) W-NW 302 0 min 0,000 mm 0,0 UV-I 0 W/m 0,6 C 3,4 C 1,6 km/h (1 Bft) 100,00 %
16.02.2017 18:34 3,3 C 82 % 1029,7 hPa 0,0 l/m 1,4 km/h (1 Bft) W-NW 302 0 min 0,000 mm 0,0 UV-I 0 W/m 0,5 C 3,3 C 3,2 km/h (1 Bft) 91,49 %
16.02.2017 18:36 3,2 C 82 % 1029,6 hPa 0,0 l/m 2,1 km/h (1 Bft) W-NW 298 0 min 0,000 mm 0,0 UV-I 0 W/m 0,4 C 3,2 C 3,2 km/h (1 Bft) 92,86 %
16.02.2017 18:38 3,2 C 83 % 1029,7 hPa 0,0 l/m 2,2 km/h (1 Bft) SW 225 0 min 0,000 mm 0,0 UV-I 0 W/m 0,6 C 3,2 C 3,2 km/h (1 Bft) 98,11 %
16.02.2017 18:40 3,2 C 83 % 1029,7 hPa 0,0 l/m 2,1 km/h (1 Bft) S-SW 198 0 min 0,000 mm 0,0 UV-I 0 W/m 0,6 C 3,2 C 4,8 km/h (1 Bft) 95,74 %
16.02.2017 18:42 3,3 C 83 % 1029,6 hPa 0,0 l/m 2,1 km/h (1 Bft) S-SW 196 0 min 0,000 mm 0,0 UV-I 0 W/m 0,7 C 3,3 C 3,2 km/h (1 Bft) 97,37 %
16.02.2017 18:44 3,4 C 83 % 1029,6 hPa 0,0 l/m 1,1 km/h (1 Bft) S-SW 196 0 min 0,000 mm 0,0 UV-I 0 W/m 0,8 C 3,4 C 3,2 km/h (1 Bft) 100,00 %
16.02.2017 18:46 3,4 C 82 % 1029,6 hPa 0,0 l/m 1,4 km/h (1 Bft) S-SW 196 0 min 0,000 mm 0,0 UV-I 0 W/m 0,6 C 3,4 C 3,2 km/h (1 Bft) 96,00 %
16.02.2017 18:48 3,5 C 83 % 1029,7 hPa 0,0 l/m 1,2 km/h (1 Bft) S-SW 196 0 min 0,000 mm 0,0 UV-I 0 W/m 0,9 C 3,5 C 1,6 km/h (1 Bft) 97,87 %
16.02.2017 18:50 3,4 C 82 % 1029,6 hPa 0,0 l/m 1,2 km/h (1 Bft) S-SW 196 0 min 0,000 mm 0,0 UV-I 0 W/m 0,6 C 3,4 C 3,2 km/h (1 Bft) 96,00 %
16.02.2017 18:52 3,4 C 83 % 1029,6 hPa 0,0 l/m 1,6 km/h (1 Bft) S-SW 196 0 min 0,000 mm 0,0 UV-I 0 W/m 0,8 C 3,4 C 3,2 km/h (1 Bft) 97,37 %
16.02.2017 18:54 3,3 C 82 % 1029,6 hPa 0,0 l/m 2,2 km/h (1 Bft) S-SW 196 0 min 0,000 mm 0,0 UV-I 0 W/m 0,5 C 3,3 C 3,2 km/h (1 Bft) 93,62 %
16.02.2017 18:56 3,3 C 82 % 1029,6 hPa 0,0 l/m 2,0 km/h (1 Bft) S-SW 196 0 min 0,000 mm 0,0 UV-I 0 W/m 0,5 C 3,3 C 3,2 km/h (1 Bft) 96,00 %
16.02.2017 18:58 3,1 C 82 % 1029,6 hPa 0,0 l/m 2,7 km/h (1 Bft) S-SW 196 0 min 0,000 mm 0,0 UV-I 0 W/m 0,3 C 3,1 C 4,8 km/h (1 Bft) 96,00 %
16.02.2017 19:00 2,9 C 83 % 1029,6 hPa 0,0 l/m 2,7 km/h (1 Bft) S-SW 196 0 min 0,000 mm 0,0 UV-I 0 W/m 0,3 C 2,9 C 4,8 km/h (1 Bft) 95,74 %
16.02.2017 19:02 2,7 C 83 % 1029,6 hPa 0,0 l/m 2,7 km/h (1 Bft) S-SW 196 0 min 0,000 mm 0,0 UV-I 0 W/m 0,1 C 2,7 C 3,2 km/h (1 Bft) 100,00 %
16.02.2017 19:04 2,5 C 84 % 1029,6 hPa 0,0 l/m 2,6 km/h (1 Bft) S-SW 196 0 min 0,000 mm 0,0 UV-I 0 W/m 0,1 C 2,5 C 3,2 km/h (1 Bft) 100,00 %
16.02.2017 19:06 2,5 C 85 % 1029,6 hPa 0,0 l/m 3,2 km/h (1 Bft) S-SW 196 0 min 0,000 mm 0,0 UV-I 0 W/m 0,2 C 2,5 C 4,8 km/h (1 Bft) 96,23 %
16.02.2017 19:08 2,6 C 85 % 1029,6 hPa 0,0 l/m 3,7 km/h (1 Bft) S-SW 196 0 min 0,000 mm 0,0 UV-I 0 W/m 0,3 C 2,6 C 4,8 km/h (1 Bft) 97,67 %
16.02.2017 19:10 2,6 C 85 % 1029,6 hPa 0,0 l/m 3,9 km/h (1 Bft) S-SW 196 0 min 0,000 mm 0,0 UV-I 0 W/m 0,3 C 2,6 C 4,8 km/h (1 Bft) 100,00 %
16.02.2017 19:12 2,7 C 85 % 1029,6 hPa 0,0 l/m 3,1 km/h (1 Bft) S-SW 196 0 min 0,000 mm 0,0 UV-I 0 W/m 0,4 C 2,7 C 4,8 km/h (1 Bft) 100,00 %
16.02.2017 19:14 2,8 C 85 % 1029,6 hPa 0,0 l/m 2,9 km/h (1 Bft) S-SW 196 0 min 0,000 mm 0,0 UV-I 0 W/m 0,5 C 2,8 C 4,8 km/h (1 Bft) 97,87 %
16.02.2017 19:16 2,8 C 85 % 1029,5 hPa 0,0 l/m 2,6 km/h (1 Bft) S-SW 196 0 min 0,000 mm 0,0 UV-I 0 W/m 0,5 C 2,8 C 4,8 km/h (1 Bft) 97,56 %
16.02.2017 19:18 2,8 C 84 % 1029,5 hPa 0,0 l/m 2,4 km/h (1 Bft) S-SW 196 0 min 0,000 mm 0,0 UV-I 0 W/m 0,4 C 2,8 C 3,2 km/h (1 Bft) 91,38 %
16.02.2017 19:20 2,9 C 84 % 1029,5 hPa 0,0 l/m 2,8 km/h (1 Bft) S-SW 196 0 min 0,000 mm 0,0 UV-I 0 W/m 0,5 C 2,9 C 4,8 km/h (1 Bft) 94,00 %
16.02.2017 19:22 2,9 C 84 % 1029,5 hPa 0,0 l/m 3,8 km/h (1 Bft) S-SW 196 0 min 0,000 mm 0,0 UV-I 0 W/m 0,5 C 2,9 C 6,4 km/h (2 Bft) 100,00 %
16.02.2017 19:24 2,9 C 84 % 1029,5 hPa 0,0 l/m 4,3 km/h (1 Bft) S-SW 196 0 min 0,000 mm 0,0 UV-I 0 W/m 0,5 C 2,9 C 6,4 km/h (2 Bft) 100,00 %
16.02.2017 19:26 2,9 C 84 % 1029,6 hPa 0,0 l/m 3,1 km/h (1 Bft) S-SW 196 0 min 0,000 mm 0,0 UV-I 0 W/m 0,5 C 2,9 C 4,8 km/h (1 Bft) 98,00 %
16.02.2017 19:28 2,6 C 83 % 1029,5 hPa 0,0 l/m 3,7 km/h (1 Bft) S-SW 196 0 min 0,000 mm 0,0 UV-I 0 W/m 0,0 C 2,6 C 4,8 km/h (1 Bft) 92,00 %
16.02.2017 19:30 2,3 C 84 % 1029,5 hPa 0,0 l/m 5,1 km/h (1 Bft) S-SW 196 0 min 0,000 mm 0,0 UV-I 0 W/m -0,1 C 2,3 C 6,4 km/h (2 Bft) 94,74 %
16.02.2017 19:32 2,1 C 85 % 1029,4 hPa 0,0 l/m 4,0 km/h (1 Bft) S-SW 196 0 min 0,000 mm 0,0 UV-I 0 W/m -0,2 C 2,1 C 4,8 km/h (1 Bft) 94,34 %
16.02.2017 19:34 2,3 C 86 % 1029,4 hPa 0,0 l/m 3,6 km/h (1 Bft) S-SW 193 0 min 0,000 mm 0,0 UV-I 0 W/m 0,2 C 2,3 C 6,4 km/h (2 Bft) 92,11 %
16.02.2017 19:36 2,2 C 85 % 1029,4 hPa 0,0 l/m 3,3 km/h (1 Bft) S 190 0 min 0,000 mm 0,0 UV-I 0 W/m -0,1 C 2,2 C 4,8 km/h (1 Bft) 94,34 %
16.02.2017 19:38 2,2 C 86 % 1029,4 hPa 0,0 l/m 3,1 km/h (1 Bft) S 189 0 min 0,000 mm 0,0 UV-I 0 W/m 0,1 C 2,2 C 4,8 km/h (1 Bft) 98,00 %
16.02.2017 19:40 2,3 C 86 % 1029,4 hPa 0,0 l/m 3,2 km/h (1 Bft) S 188 0 min 0,000 mm 0,0 UV-I 0 W/m 0,2 C 2,3 C 6,4 km/h (2 Bft) 93,62 %
16.02.2017 19:42 2,6 C 86 % 1029,4 hPa 0,0 l/m 3,1 km/h (1 Bft) S 187 0 min 0,000 mm 0,0 UV-I 0 W/m 0,5 C 2,6 C 4,8 km/h (1 Bft) 95,74 %
16.02.2017 19:44 2,8 C 85 % 1029,3 hPa 0,0 l/m 4,5 km/h (1 Bft) S 187 0 min 0,000 mm 0,0 UV-I 0 W/m 0,5 C 2,8 C 8,0 km/h (2 Bft) 93,62 %
16.02.2017 19:46 2,9 C 84 % 1029,3 hPa 0,0 l/m 3,9 km/h (1 Bft) S 187 0 min 0,000 mm 0,0 UV-I 0 W/m 0,5 C 2,9 C 8,0 km/h (2 Bft) 85,19 %
16.02.2017 19:48 2,8 C 84 % 1029,4 hPa 0,0 l/m 3,2 km/h (1 Bft) S 187 0 min 0,000 mm 0,0 UV-I 0 W/m 0,4 C 2,8 C 4,8 km/h (1 Bft) 94,03 %
16.02.2017 19:50 2,6 C 83 % 1029,3 hPa 0,0 l/m 4,8 km/h (1 Bft) S 187 0 min 0,000 mm 0,0 UV-I 0 W/m 0,0 C 2,6 C 6,4 km/h (2 Bft) 97,87 %
16.02.2017 19:52 2,4 C 84 % 1029,3 hPa 0,0 l/m 5,1 km/h (1 Bft) S 187 0 min 0,000 mm 0,0 UV-I 0 W/m -0,0 C 2,4 C 6,4 km/h (2 Bft) 97,62 %
16.02.2017 19:54 2,3 C 85 % 1029,2 hPa 0,0 l/m 4,6 km/h (1 Bft) S 187 0 min 0,000 mm 0,0 UV-I 0 W/m 0,0 C 2,3 C 6,4 km/h (2 Bft) 94,00 %
16.02.2017 19:56 2,4 C 85 % 1029,2 hPa 0,0 l/m 3,6 km/h (1 Bft) S 182 0 min 0,000 mm 0,0 UV-I 0 W/m 0,1 C 2,4 C 6,4 km/h (2 Bft) 95,74 %
16.02.2017 19:58 2,4 C 85 % 1029,2 hPa 0,0 l/m 2,7 km/h (1 Bft) S 180 0 min 0,000 mm 0,0 UV-I 0 W/m 0,1 C 2,4 C 4,8 km/h (1 Bft) 93,62 %
16.02.2017 20:00 2,6 C 85 % 1029,2 hPa 0,0 l/m 2,6 km/h (1 Bft) S 180 0 min 0,000 mm 0,0 UV-I 0 W/m 0,3 C 2,6 C 4,8 km/h (1 Bft) 92,68 %
16.02.2017 20:02 2,7 C 85 % 1029,2 hPa 0,0 l/m 3,9 km/h (1 Bft) S 173 0 min 0,000 mm 0,0 UV-I 0 W/m 0,4 C 2,7 C 8,0 km/h (2 Bft) 96,00 %
16.02.2017 20:04 2,9 C 84 % 1029,2 hPa 0,0 l/m 5,4 km/h (1 Bft) S 186 0 min 0,000 mm 0,0 UV-I 0 W/m 0,5 C 2,9 C 8,0 km/h (2 Bft) 96,00 %
16.02.2017 20:06 3,0 C 83 % 1029,2 hPa 0,0 l/m 5,4 km/h (1 Bft) S 186 0 min 0,000 mm 0,0 UV-I 0 W/m 0,4 C 3,0 C 8,0 km/h (2 Bft) 94,74 %
16.02.2017 20:08 2,9 C 83 % 1029,2 hPa 0,0 l/m 4,1 km/h (1 Bft) S 188 0 min 0,000 mm 0,0 UV-I 0 W/m 0,3 C 2,9 C 8,0 km/h (2 Bft) 96,49 %
16.02.2017 20:10 2,8 C 83 % 1029,1 hPa 0,0 l/m 3,8 km/h (1 Bft) S 186 0 min 0,000 mm 0,0 UV-I 0 W/m 0,2 C 2,8 C 8,0 km/h (2 Bft) 98,00 %
16.02.2017 20:12 2,7 C 83 % 1029,0 hPa 0,0 l/m 4,8 km/h (1 Bft) S 186 0 min 0,000 mm 0,0 UV-I 0 W/m 0,1 C 2,7 C 8,0 km/h (2 Bft) 97,37 %
16.02.2017 20:14 2,8 C 83 % 1029,0 hPa 0,0 l/m 5,8 km/h (2 Bft) S 190 0 min 0,000 mm 0,0 UV-I 0 W/m 0,2 C 2,8 C 9,7 km/h (2 Bft) 96,23 %
16.02.2017 20:16 2,9 C 83 % 1029,0 hPa 0,0 l/m 5,9 km/h (2 Bft) S 182 0 min 0,000 mm 0,0 UV-I 0 W/m 0,3 C 2,9 C 8,0 km/h (2 Bft) 95,12 %
16.02.2017 20:18 2,9 C 83 % 1029,0 hPa 0,0 l/m 5,5 km/h (1 Bft) S 182 0 min 0,000 mm 0,0 UV-I 0 W/m 0,3 C 2,9 C 8,0 km/h (2 Bft) 92,00 %
16.02.2017 20:20 2,9 C 82 % 1029,0 hPa 0,0 l/m 3,6 km/h (1 Bft) S 182 0 min 0,000 mm 0,0 UV-I 0 W/m 0,1 C 2,9 C 6,4 km/h (2 Bft) 96,00 %
16.02.2017 20:22 2,7 C 82 % 1029,0 hPa 0,0 l/m 3,5 km/h (1 Bft) S 182 0 min 0,000 mm 0,0 UV-I 0 W/m -0,1 C 2,7 C 6,4 km/h (2 Bft) 91,43 %
16.02.2017 20:24 2,7 C 83 % 1029,0 hPa 0,0 l/m 4,8 km/h (1 Bft) S 183 0 min 0,000 mm 0,0 UV-I 0 W/m 0,1 C 2,7 C 8,0 km/h (2 Bft) 92,31 %
16.02.2017 20:26 2,7 C 83 % 1029,0 hPa 0,0 l/m 5,2 km/h (1 Bft) S 180 0 min 0,000 mm 0,0 UV-I 0 W/m 0,1 C 2,7 C 6,4 km/h (2 Bft) 100,00 %
16.02.2017 20:28 2,7 C 83 % 1029,0 hPa 0,0 l/m 6,6 km/h (2 Bft) S-SW 201 0 min 0,000 mm 0,0 UV-I 0 W/m 0,1 C 2,5 C 9,7 km/h (2 Bft) 95,74 %
16.02.2017 20:30 2,7 C 83 % 1029,0 hPa 0,0 l/m 7,2 km/h (2 Bft) S-SW 203 0 min 0,000 mm 0,0 UV-I 0 W/m 0,1 C 1,9 C 8,0 km/h (2 Bft) 96,23 %
16.02.2017 20:32 2,6 C 83 % 1029,0 hPa 0,0 l/m 6,1 km/h (2 Bft) S-SW 205 0 min 0,000 mm 0,0 UV-I 0 W/m 0,0 C 2,6 C 8,0 km/h (2 Bft) 100,00 %
16.02.2017 20:34 2,4 C 83 % 1029,0 hPa 0,0 l/m 5,7 km/h (1 Bft) S-SW 207 0 min 0,000 mm 0,0 UV-I 0 W/m -0,2 C 2,4 C 8,0 km/h (2 Bft) 96,00 %
16.02.2017 20:36 2,3 C 83 % 1029,1 hPa 0,0 l/m 4,6 km/h (1 Bft) S-SW 207 0 min 0,000 mm 0,0 UV-I 0 W/m -0,3 C 2,3 C 6,4 km/h (2 Bft) 95,45 %
16.02.2017 20:38 2,1 C 84 % 1029,1 hPa 0,0 l/m 4,1 km/h (1 Bft) S-SW 207 0 min 0,000 mm 0,0 UV-I 0 W/m -0,3 C 2,1 C 6,4 km/h (2 Bft) 98,08 %
16.02.2017 20:40 1,9 C 84 % 1029,2 hPa 0,0 l/m 4,0 km/h (1 Bft) S-SW 207 0 min 0,000 mm 0,0 UV-I 0 W/m -0,5 C 1,9 C 4,8 km/h (1 Bft) 100,00 %
16.02.2017 20:42 1,8 C 85 % 1029,2 hPa 0,0 l/m 5,5 km/h (1 Bft) S-SW 207 0 min 0,000 mm 0,0 UV-I 0 W/m -0,4 C 1,8 C 6,4 km/h (2 Bft) 100,00 %
16.02.2017 20:44 1,7 C 85 % 1029,2 hPa 0,0 l/m 6,0 km/h (2 Bft) S-SW 207 0 min 0,000 mm 0,0 UV-I 0 W/m -0,5 C 1,7 C 8,0 km/h (2 Bft) 97,37 %
16.02.2017 20:46 1,7 C 85 % 1029,1 hPa 0,0 l/m 5,9 km/h (2 Bft) S-SW 207 0 min 0,000 mm 0,0 UV-I 0 W/m -0,5 C 1,7 C 8,0 km/h (2 Bft) 96,30 %
16.02.2017 20:48 1,7 C 86 % 1029,2 hPa 0,0 l/m 5,3 km/h (1 Bft) S-SW 207 0 min 0,000 mm 0,0 UV-I 0 W/m -0,4 C 1,7 C 6,4 km/h (2 Bft) 92,68 %
16.02.2017 20:50 1,7 C 86 % 1029,2 hPa 0,0 l/m 3,5 km/h (1 Bft) S-SW 207 0 min 0,000 mm 0,0 UV-I 0 W/m -0,4 C 1,7 C 4,8 km/h (1 Bft) 95,74 %
16.02.2017 20:52 1,7 C 86 % 1029,2 hPa 0,0 l/m 4,4 km/h (1 Bft) S-SW 207 0 min 0,000 mm 0,0 UV-I 0 W/m -0,4 C 1,7 C 6,4 km/h (2 Bft) 96,00 %
16.02.2017 20:54 1,7 C 86 % 1029,2 hPa 0,0 l/m 3,9 km/h (1 Bft) S-SW 207 0 min 0,000 mm 0,0 UV-I 0 W/m -0,4 C 1,7 C 4,8 km/h (1 Bft) 97,87 %
16.02.2017 20:56 1,8 C 86 % 1029,3 hPa 0,0 l/m 4,1 km/h (1 Bft) S-SW 207 0 min 0,000 mm 0,0 UV-I 0 W/m -0,3 C 1,8 C 4,8 km/h (1 Bft) 98,08 %
16.02.2017 20:58 1,7 C 86 % 1029,2 hPa 0,0 l/m 4,2 km/h (1 Bft) S-SW 207 0 min 0,000 mm 0,0 UV-I 0 W/m -0,4 C 1,7 C 6,4 km/h (2 Bft) 98,00 %
16.02.2017 21:00 1,7 C 86 % 1029,1 hPa 0,0 l/m 3,0 km/h (1 Bft) S-SW 207 0 min 0,000 mm 0,0 UV-I 0 W/m -0,4 C 1,7 C 4,8 km/h (1 Bft) 97,87 %
16.02.2017 21:02 1,7 C 86 % 1029,1 hPa 0,0 l/m 2,2 km/h (1 Bft) S-SW 207 0 min 0,000 mm 0,0 UV-I 0 W/m -0,4 C 1,7 C 4,8 km/h (1 Bft) 94,29 %
16.02.2017 21:04 1,7 C 86 % 1029,1 hPa 0,0 l/m 3,8 km/h (1 Bft) S-SW 207 0 min 0,000 mm 0,0 UV-I 0 W/m -0,4 C 1,7 C 6,4 km/h (2 Bft) 96,23 %
16.02.2017 21:06 1,7 C 86 % 1029,1 hPa 0,0 l/m 4,6 km/h (1 Bft) S-SW 207 0 min 0,000 mm 0,0 UV-I 0 W/m -0,4 C 1,7 C 6,4 km/h (2 Bft) 91,49 %
16.02.2017 21:08 1,7 C 86 % 1029,2 hPa 0,0 l/m 4,4 km/h (1 Bft) S-SW 207 0 min 0,000 mm 0,0 UV-I 0 W/m -0,4 C 1,7 C 6,4 km/h (2 Bft) 100,00 %
16.02.2017 21:10 1,6 C 86 % 1029,1 hPa 0,0 l/m 3,8 km/h (1 Bft) S-SW 207 0 min 0,000 mm 0,0 UV-I 0 W/m -0,5 C 1,6 C 6,4 km/h (2 Bft) 96,36 %
16.02.2017 21:12 1,6 C 86 % 1029,1 hPa 0,0 l/m 2,7 km/h (1 Bft) S-SW 207 0 min 0,000 mm 0,0 UV-I 0 W/m -0,5 C 1,6 C 4,8 km/h (1 Bft) 98,00 %
16.02.2017 21:14 1,5 C 86 % 1029,1 hPa 0,0 l/m 2,7 km/h (1 Bft) S-SW 207 0 min 0,000 mm 0,0 UV-I 0 W/m -0,6 C 1,5 C 4,8 km/h (1 Bft) 97,87 %
16.02.2017 21:16 1,5 C 86 % 1029,1 hPa 0,0 l/m 2,7 km/h (1 Bft) S-SW 207 0 min 0,000 mm 0,0 UV-I 0 W/m -0,6 C 1,5 C 3,2 km/h (1 Bft) 95,12 %
16.02.2017 21:18 1,4 C 86 % 1029,1 hPa 0,0 l/m 2,8 km/h (1 Bft) S-SW 207 0 min 0,000 mm 0,0 UV-I 0 W/m -0,7 C 1,4 C 4,8 km/h (1 Bft) 97,73 %
16.02.2017 21:20 1,3 C 87 % 1029,0 hPa 0,0 l/m 2,8 km/h (1 Bft) S-SW 207 0 min 0,000 mm 0,0 UV-I 0 W/m -0,6 C 1,3 C 4,8 km/h (1 Bft) 98,00 %
16.02.2017 21:22 1,3 C 87 % 1029,0 hPa 0,0 l/m 1,9 km/h (1 Bft) S-SW 204 0 min 0,000 mm 0,0 UV-I 0 W/m -0,6 C 1,3 C 4,8 km/h (1 Bft) 98,00 %
16.02.2017 21:24 1,2 C 87 % 1029,0 hPa 0,0 l/m 2,7 km/h (1 Bft) S-SW 196 0 min 0,000 mm 0,0 UV-I 0 W/m -0,7 C 1,2 C 4,8 km/h (1 Bft) 98,00 %
16.02.2017 21:26 1,2 C 87 % 1028,9 hPa 0,0 l/m 3,6 km/h (1 Bft) S 190 0 min 0,000 mm 0,0 UV-I 0 W/m -0,7 C 1,2 C 6,4 km/h (2 Bft) 95,74 %
16.02.2017 21:28 1,3 C 87 % 1028,9 hPa 0,0 l/m 3,4 km/h (1 Bft) S 181 0 min 0,000 mm 0,0 UV-I 0 W/m -0,6 C 1,3 C 4,8 km/h (1 Bft) 97,37 %
16.02.2017 21:30 1,6 C 87 % 1028,9 hPa 0,0 l/m 3,2 km/h (1 Bft) S 182 0 min 0,000 mm 0,0 UV-I 0 W/m -0,3 C 1,6 C 4,8 km/h (1 Bft) 92,45 %
16.02.2017 21:32 1,7 C 86 % 1028,9 hPa 0,0 l/m 4,1 km/h (1 Bft) S 182 0 min 0,000 mm 0,0 UV-I 0 W/m -0,4 C 1,7 C 4,8 km/h (1 Bft) 100,00 %
16.02.2017 21:34 1,8 C 85 % 1028,9 hPa 0,0 l/m 4,1 km/h (1 Bft) S 185 0 min 0,000 mm 0,0 UV-I 0 W/m -0,4 C 1,8 C 4,8 km/h (1 Bft) 98,11 %
16.02.2017 21:36 1,4 C 84 % 1029,0 hPa 0,0 l/m 3,4 km/h (1 Bft) S 185 0 min 0,000 mm 0,0 UV-I 0 W/m -1,0 C 1,4 C 4,8 km/h (1 Bft) 94,00 %
16.02.2017 21:38 1,2 C 85 % 1028,9 hPa 0,0 l/m 2,6 km/h (1 Bft) S 185 0 min 0,000 mm 0,0 UV-I 0 W/m -1,0 C 1,2 C 3,2 km/h (1 Bft) 97,14 %
16.02.2017 21:40 0,9 C 86 % 1028,8 hPa 0,0 l/m 2,3 km/h (1 Bft) S 185 0 min 0,000 mm 0,0 UV-I 0 W/m -1,2 C 0,9 C 4,8 km/h (1 Bft) 100,00 %
16.02.2017 21:42 0,7 C 87 % 1028,8 hPa 0,0 l/m 1,8 km/h (1 Bft) S 185 0 min 0,000 mm 0,0 UV-I 0 W/m -1,2 C 0,7 C 4,8 km/h (1 Bft) 93,33 %
16.02.2017 21:44 0,6 C 88 % 1028,8 hPa 0,0 l/m 2,4 km/h (1 Bft) S 185 0 min 0,000 mm 0,0 UV-I 0 W/m -1,2 C 0,6 C 4,8 km/h (1 Bft) 98,11 %
16.02.2017 21:46 0,5 C 88 % 1028,8 hPa 0,0 l/m 3,4 km/h (1 Bft) S 185 0 min 0,000 mm 0,0 UV-I 0 W/m -1,3 C 0,5 C 4,8 km/h (1 Bft) 95,24 %
16.02.2017 21:49 0,7 C 89 % 1028,8 hPa 0,0 l/m 3,8 km/h (1 Bft) S 185 0 min 0,000 mm 0,0 UV-I 0 W/m -0,9 C 0,7 C 6,4 km/h (2 Bft) 97,37 %
16.02.2017 21:50 0,7 C 89 % 1028,8 hPa 0,0 l/m 3,1 km/h (1 Bft) S 184 0 min 0,000 mm 0,0 UV-I 0 W/m -0,9 C 0,7 C 4,8 km/h (1 Bft) 100,00 %
16.02.2017 21:52 0,7 C 88 % 1028,8 hPa 0,0 l/m 2,8 km/h (1 Bft) S 184 0 min 0,000 mm 0,0 UV-I 0 W/m -1,1 C 0,7 C 4,8 km/h (1 Bft) 100,00 %
16.02.2017 21:54 0,8 C 89 % 1028,8 hPa 0,0 l/m 3,0 km/h (1 Bft) S 184 0 min 0,000 mm 0,0 UV-I 0 W/m -0,8 C 0,8 C 4,8 km/h (1 Bft) 97,73 %
16.02.2017 21:56 1,1 C 88 % 1028,8 hPa 0,0 l/m 3,7 km/h (1 Bft) S 184 0 min 0,000 mm 0,0 UV-I 0 W/m -0,7 C 1,1 C 4,8 km/h (1 Bft) 98,11 %
16.02.2017 21:58 1,1 C 87 % 1028,7 hPa 0,0 l/m 3,8 km/h (1 Bft) S 184 0 min 0,000 mm 0,0 UV-I 0 W/m -0,8 C 1,1 C 4,8 km/h (1 Bft) 98,00 %
16.02.2017 22:00 1,1 C 87 % 1028,7 hPa 0,0 l/m 3,6 km/h (1 Bft) S 184 0 min 0,000 mm 0,0 UV-I 0 W/m -0,8 C 1,1 C 4,8 km/h (1 Bft) 98,00 %
16.02.2017 22:02 1,2 C 87 % 1028,6 hPa 0,0 l/m 3,6 km/h (1 Bft) S 184 0 min 0,000 mm 0,0 UV-I 0 W/m -0,7 C 1,2 C 6,4 km/h (2 Bft) 100,00 %
16.02.2017 22:04 1,2 C 87 % 1028,6 hPa 0,0 l/m 3,1 km/h (1 Bft) S 184 0 min 0,000 mm 0,0 UV-I 0 W/m -0,7 C 1,2 C 4,8 km/h (1 Bft) 98,00 %
16.02.2017 22:06 1,2 C 87 % 1028,8 hPa 0,0 l/m 3,2 km/h (1 Bft) S 184 0 min 0,000 mm 0,0 UV-I 0 W/m -0,7 C 1,2 C 4,8 km/h (1 Bft) 100,00 %
16.02.2017 22:08 1,2 C 87 % 1028,9 hPa 0,0 l/m 4,0 km/h (1 Bft) S 184 0 min 0,000 mm 0,0 UV-I 0 W/m -0,7 C 1,2 C 4,8 km/h (1 Bft) 95,74 %
16.02.2017 22:10 1,0 C 86 % 1028,9 hPa 0,0 l/m 4,2 km/h (1 Bft) S 184 0 min 0,000 mm 0,0 UV-I 0 W/m -1,1 C 1,0 C 4,8 km/h (1 Bft) 96,00 %
16.02.2017 22:12 0,8 C 87 % 1028,8 hPa 0,0 l/m 4,5 km/h (1 Bft) S 184 0 min 0,000 mm 0,0 UV-I 0 W/m -1,1 C 0,8 C 6,4 km/h (2 Bft) 97,87 %
16.02.2017 22:14 0,6 C 87 % 1028,8 hPa 0,0 l/m 3,7 km/h (1 Bft) S 184 0 min 0,000 mm 0,0 UV-I 0 W/m -1,3 C 0,6 C 6,4 km/h (2 Bft) 91,43 %
16.02.2017 22:16 0,4 C 87 % 1028,8 hPa 0,0 l/m 1,9 km/h (1 Bft) S 184 0 min 0,000 mm 0,0 UV-I 0 W/m -1,5 C 0,4 C 3,2 km/h (1 Bft) 96,23 %
16.02.2017 22:18 0,4 C 88 % 1028,8 hPa 0,0 l/m 2,7 km/h (1 Bft) S 184 0 min 0,000 mm 0,0 UV-I 0 W/m -1,3 C 0,4 C 4,8 km/h (1 Bft) 96,23 %
16.02.2017 22:20 0,4 C 89 % 1028,8 hPa 0,0 l/m 2,8 km/h (1 Bft) S 184 0 min 0,000 mm 0,0 UV-I 0 W/m -1,2 C 0,4 C 4,8 km/h (1 Bft) 97,37 %
16.02.2017 22:22 0,4 C 89 % 1028,7 hPa 0,0 l/m 3,7 km/h (1 Bft) S 184 0 min 0,000 mm 0,0 UV-I 0 W/m -1,2 C 0,4 C 4,8 km/h (1 Bft) 94,64 %
16.02.2017 22:24 0,4 C 89 % 1028,7 hPa 0,0 l/m 3,7 km/h (1 Bft) S 184 0 min 0,000 mm 0,0 UV-I 0 W/m -1,2 C 0,4 C 4,8 km/h (1 Bft) 97,37 %
16.02.2017 22:26 0,6 C 89 % 1028,7 hPa 0,0 l/m 3,4 km/h (1 Bft) S 184 0 min 0,000 mm 0,0 UV-I 0 W/m -1,0 C 0,6 C 4,8 km/h (1 Bft) 96,00 %
16.02.2017 22:28 0,7 C 89 % 1028,6 hPa 0,0 l/m 3,5 km/h (1 Bft) S 184 0 min 0,000 mm 0,0 UV-I 0 W/m -0,9 C 0,7 C 6,4 km/h (2 Bft) 96,30 %
16.02.2017 22:30 0,7 C 88 % 1028,6 hPa 0,0 l/m 1,0 km/h (0 Bft) S 184 0 min 0,000 mm 0,0 UV-I 0 W/m -1,1 C 0,7 C 1,6 km/h (1 Bft) 95,52 %
16.02.2017 22:32 0,7 C 88 % 1028,5 hPa 0,0 l/m 0,8 km/h (0 Bft) S 184 0 min 0,000 mm 0,0 UV-I 0 W/m -1,1 C 0,7 C 1,6 km/h (1 Bft) 98,00 %
16.02.2017 22:34 0,7 C 88 % 1028,5 hPa 0,0 l/m 1,6 km/h (1 Bft) S 180 0 min 0,000 mm 0,0 UV-I 0 W/m -1,1 C 0,7 C 4,8 km/h (1 Bft) 95,74 %
16.02.2017 22:36 0,8 C 88 % 1028,4 hPa 0,0 l/m 2,6 km/h (1 Bft) S 180 0 min 0,000 mm 0,0 UV-I 0 W/m -1,0 C 0,8 C 4,8 km/h (1 Bft) 97,92 %
16.02.2017 22:38 1,0 C 88 % 1028,5 hPa 0,0 l/m 3,6 km/h (1 Bft) S 180 0 min 0,000 mm 0,0 UV-I 0 W/m -0,8 C 1,0 C 6,4 km/h (2 Bft) 92,11 %
16.02.2017 22:40 1,1 C 87 % 1028,4 hPa 0,0 l/m 2,8 km/h (1 Bft) S 180 0 min 0,000 mm 0,0 UV-I 0 W/m -0,8 C 1,1 C 4,8 km/h (1 Bft) 97,87 %
16.02.2017 22:42 1,1 C 87 % 1028,3 hPa 0,0 l/m 1,9 km/h (1 Bft) S 180 0 min 0,000 mm 0,0 UV-I 0 W/m -0,8 C 1,1 C 3,2 km/h (1 Bft) 97,87 %
16.02.2017 22:44 1,0 C 87 % 1028,3 hPa 0,0 l/m 1,7 km/h (1 Bft) S 180 0 min 0,000 mm 0,0 UV-I 0 W/m -0,9 C 1,0 C 3,2 km/h (1 Bft) 95,12 %
16.02.2017 22:46 0,9 C 86 % 1028,3 hPa 0,0 l/m 3,1 km/h (1 Bft) S 178 0 min 0,000 mm 0,0 UV-I 0 W/m -1,2 C 0,9 C 4,8 km/h (1 Bft) 94,55 %
16.02.2017 22:48 0,9 C 87 % 1028,3 hPa 0,0 l/m 4,0 km/h (1 Bft) S 176 0 min 0,000 mm 0,0 UV-I 0 W/m -1,0 C 0,9 C 6,4 km/h (2 Bft) 98,00 %
16.02.2017 22:50 0,9 C 87 % 1028,3 hPa 0,0 l/m 3,8 km/h (1 Bft) S 176 0 min 0,000 mm 0,0 UV-I 0 W/m -1,0 C 0,9 C 4,8 km/h (1 Bft) 98,00 %
16.02.2017 22:52 0,9 C 87 % 1028,3 hPa 0,0 l/m 5,0 km/h (1 Bft) S 178 0 min 0,000 mm 0,0 UV-I 0 W/m -1,0 C 0,9 C 8,0 km/h (2 Bft) 100,00 %
16.02.2017 22:54 1,0 C 87 % 1028,2 hPa 0,0 l/m 4,3 km/h (1 Bft) S 178 0 min 0,000 mm 0,0 UV-I 0 W/m -0,9 C 1,0 C 8,0 km/h (2 Bft) 94,74 %
16.02.2017 22:56 1,2 C 87 % 1028,2 hPa 0,0 l/m 4,4 km/h (1 Bft) S 177 0 min 0,000 mm 0,0 UV-I 0 W/m -0,7 C 1,2 C 8,0 km/h (2 Bft) 96,23 %
16.02.2017 22:58 1,3 C 87 % 1028,1 hPa 0,0 l/m 3,7 km/h (1 Bft) S 179 0 min 0,000 mm 0,0 UV-I 0 W/m -0,6 C 1,3 C 6,4 km/h (2 Bft) 97,56 %
16.02.2017 23:00 1,3 C 86 % 1028,1 hPa 0,0 l/m 2,9 km/h (1 Bft) S 180 0 min 0,000 mm 0,0 UV-I 0 W/m -0,8 C 1,3 C 4,8 km/h (1 Bft) 98,00 %
16.02.2017 23:02 1,3 C 86 % 1028,0 hPa 0,0 l/m 3,3 km/h (1 Bft) S 179 0 min 0,000 mm 0,0 UV-I 0 W/m -0,8 C 1,3 C 4,8 km/h (1 Bft) 100,00 %
16.02.2017 23:04 1,2 C 86 % 1028,0 hPa 0,0 l/m 4,0 km/h (1 Bft) S 180 0 min 0,000 mm 0,0 UV-I 0 W/m -0,9 C 1,2 C 4,8 km/h (1 Bft) 97,14 %
16.02.2017 23:06 1,1 C 85 % 1028,0 hPa 0,0 l/m 4,5 km/h (1 Bft) S 180 0 min 0,000 mm 0,0 UV-I 0 W/m -1,1 C 1,1 C 6,4 km/h (2 Bft) 100,00 %
16.02.2017 23:08 0,9 C 86 % 1028,0 hPa 0,0 l/m 4,0 km/h (1 Bft) S 180 0 min 0,000 mm 0,0 UV-I 0 W/m -1,2 C 0,9 C 6,4 km/h (2 Bft) 93,75 %
16.02.2017 23:10 0,7 C 86 % 1028,0 hPa 0,0 l/m 5,6 km/h (1 Bft) S 180 0 min 0,000 mm 0,0 UV-I 0 W/m -1,4 C 0,7 C 6,4 km/h (2 Bft) 93,88 %
16.02.2017 23:12 0,6 C 87 % 1028,0 hPa 0,0 l/m 5,0 km/h (1 Bft) S 180 0 min 0,000 mm 0,0 UV-I 0 W/m -1,3 C 0,6 C 6,4 km/h (2 Bft) 96,00 %
16.02.2017 23:14 0,5 C 88 % 1027,9 hPa 0,0 l/m 3,9 km/h (1 Bft) S 180 0 min 0,000 mm 0,0 UV-I 0 W/m -1,3 C 0,5 C 6,4 km/h (2 Bft) 95,24 %
16.02.2017 23:16 0,5 C 88 % 1027,9 hPa 0,0 l/m 3,9 km/h (1 Bft) S 180 0 min 0,000 mm 0,0 UV-I 0 W/m -1,3 C 0,5 C 6,4 km/h (2 Bft) 98,00 %
16.02.2017 23:18 0,6 C 88 % 1027,9 hPa 0,0 l/m 4,6 km/h (1 Bft) S 180 0 min 0,000 mm 0,0 UV-I 0 W/m -1,2 C 0,6 C 6,4 km/h (2 Bft) 92,45 %
16.02.2017 23:20 0,6 C 88 % 1027,9 hPa 0,0 l/m 4,4 km/h (1 Bft) S 180 0 min 0,000 mm 0,0 UV-I 0 W/m -1,2 C 0,6 C 6,4 km/h (2 Bft) 93,62 %
16.02.2017 23:22 0,7 C 88 % 1027,9 hPa 0,0 l/m 3,0 km/h (1 Bft) S 180 0 min 0,000 mm 0,0 UV-I 0 W/m -1,1 C 0,7 C 4,8 km/h (1 Bft) 97,87 %
16.02.2017 23:24 0,8 C 88 % 1027,8 hPa 0,0 l/m 4,1 km/h (1 Bft) S 180 0 min 0,000 mm 0,0 UV-I 0 W/m -1,0 C 0,8 C 6,4 km/h (2 Bft) 95,12 %
16.02.2017 23:26 1,0 C 87 % 1027,9 hPa 0,0 l/m 5,3 km/h (1 Bft) S 180 0 min 0,000 mm 0,0 UV-I 0 W/m -0,9 C 1,0 C 6,4 km/h (2 Bft) 98,00 %
16.02.2017 23:28 1,1 C 87 % 1027,9 hPa 0,0 l/m 2,7 km/h (1 Bft) S 180 0 min 0,000 mm 0,0 UV-I 0 W/m -0,8 C 1,1 C 4,8 km/h (1 Bft) 94,00 %
16.02.2017 23:30 1,1 C 87 % 1027,8 hPa 0,0 l/m 1,2 km/h (1 Bft) S 180 0 min 0,000 mm 0,0 UV-I 0 W/m -0,8 C 1,1 C 3,2 km/h (1 Bft) 97,87 %
16.02.2017 23:32 1,0 C 86 % 1027,8 hPa 0,0 l/m 1,6 km/h (1 Bft) S 180 0 min 0,000 mm 0,0 UV-I 0 W/m -1,1 C 1,0 C 3,2 km/h (1 Bft) 97,37 %
16.02.2017 23:34 0,9 C 87 % 1027,8 hPa 0,0 l/m 0,3 km/h (0 Bft) S 180 0 min 0,000 mm 0,0 UV-I 0 W/m -1,0 C 0,9 C 1,6 km/h (1 Bft) 96,00 %
16.02.2017 23:36 1,0 C 87 % 1027,8 hPa 0,0 l/m 0,5 km/h (0 Bft) S 180 0 min 0,000 mm 0,0 UV-I 0 W/m -0,9 C 1,0 C 1,6 km/h (1 Bft) 97,37 %
16.02.2017 23:38 0,9 C 87 % 1027,8 hPa 0,0 l/m 0,2 km/h (0 Bft) S 180 0 min 0,000 mm 0,0 UV-I 0 W/m -1,0 C 0,9 C 1,6 km/h (1 Bft) 98,00 %
16.02.2017 23:40 0,9 C 87 % 1027,8 hPa 0,0 l/m 1,9 km/h (1 Bft) S 180 0 min 0,000 mm 0,0 UV-I 0 W/m -1,0 C 0,9 C 4,8 km/h (1 Bft) 96,23 %
16.02.2017 23:42 0,8 C 87 % 1027,7 hPa 0,0 l/m 3,8 km/h (1 Bft) S 180 0 min 0,000 mm 0,0 UV-I 0 W/m -1,1 C 0,8 C 4,8 km/h (1 Bft) 98,00 %
16.02.2017 23:44 0,7 C 87 % 1027,7 hPa 0,0 l/m 2,7 km/h (1 Bft) S 180 0 min 0,000 mm 0,0 UV-I 0 W/m -1,2 C 0,7 C 3,2 km/h (1 Bft) 97,14 %
16.02.2017 23:46 0,6 C 87 % 1027,7 hPa 0,0 l/m 2,5 km/h (1 Bft) S 180 0 min 0,000 mm 0,0 UV-I 0 W/m -1,3 C 0,6 C 4,8 km/h (1 Bft) 96,23 %
16.02.2017 23:49 0,6 C 88 % 1027,7 hPa 0,0 l/m 2,8 km/h (1 Bft) S 180 0 min 0,000 mm 0,0 UV-I 0 W/m -1,2 C 0,6 C 4,8 km/h (1 Bft) 100,00 %
16.02.2017 23:50 0,6 C 88 % 1027,7 hPa 0,0 l/m 3,2 km/h (1 Bft) S 180 0 min 0,000 mm 0,0 UV-I 0 W/m -1,2 C 0,6 C 4,8 km/h (1 Bft) 95,65 %
16.02.2017 23:52 0,6 C 87 % 1027,8 hPa 0,0 l/m 1,0 km/h (0 Bft) S 180 0 min 0,000 mm 0,0 UV-I 0 W/m -1,3 C 0,6 C 3,2 km/h (1 Bft) 100,00 %
16.02.2017 23:54 0,5 C 87 % 1027,8 hPa 0,0 l/m 1,4 km/h (1 Bft) S 180 0 min 0,000 mm 0,0 UV-I 0 W/m -1,4 C 0,5 C 3,2 km/h (1 Bft) 96,23 %
16.02.2017 23:56 0,2 C 86 % 1027,8 hPa 0,0 l/m 0,3 km/h (0 Bft) S 180 0 min 0,000 mm 0,0 UV-I 0 W/m -1,9 C 0,2 C 1,6 km/h (1 Bft) 100,00 %
16.02.2017 23:58 -0,1 C 87 % 1027,9 hPa 0,0 l/m 0,2 km/h (0 Bft) S 180 0 min 0,000 mm 0,0 UV-I 0 W/m -2,0 C -0,1 C 1,6 km/h (1 Bft) 100,00 %
_ Min-Zeit 06:50 14:46 23:42 - 00:00 - - - - - - 06:50 06:50 00:00 19:46
Minimum _ -3,4 C 62 % 1027,7 hPa - 0,0 km/h (0 Bft) - - - - - - -4,2 C -3,4 C 0,0 km/h (0 Bft) 85,19 %
_ Max-Zeit 14:44 01:06 00:30 09:00 20:30 - - 07:20 12:00 11:26 11:58 14:58 14:54 20:14 00:02
Maximum _ 8,8 C 95 % 1035,9 hPa 0,2 l/m 7,2 km/h
S-SW (2 Bft)
- - 2 min 0,203 mm 1,3 UV-I 505 W/m 2,5 C 8,8 C 9,7 km/h
S (2 Bft)
100,00 %
Durchschnitt _ 1,7 C 84 % 1032,5 hPa #0,2 l/m 2,0 km/h (1 Bft) W-SW - #9:24 h #1,245 mm 1,0 UV-I 282 W/m -0,8 C 1,7 C 3,5 km/h (1 Bft) 96,58 %